[[{"header":{"parameterUnit":"m.s-1","parameterCategory":1,"la1":30.6,"la2":29.2853,"lo1":-89.7004,"lo2":-87.6739,"dy":0.0162,"dx":0.0183,"nx":112,"ny":82,"refTime":"2024-06-25T18:00:00:Z","depth":0,"parameterNumber":2,"parameterNumberName":"U-component_of_WINDS"},"data":[0.0,0.0,0.0,0.0,0.0,0.0,0.0,0.0,0.0,0.0,0.0,0.0,0.0,0.0,0.0,0.0,0.0,0.0,0.0,0.0,0.0,0.0,0.0,0.0,0.0,0.0,0.0,0.0,0.0,0.0,0.0,0.0,0.0,0.0,0.0,0.0,0.0,0.0,0.0,0.0,0.0,0.0,0.0,0.0,0.0,0.0,0.0,0.0,0.0,0.0,0.0,0.0,0.0,0.0,0.0,0.0,0.0,0.0,0.0,0.0,0.0,0.0,0.0,0.0,0.0,0.0,0.0,0.0,0.0,0.0,0.0,0.0,0.0,0.0,0.0,0.0,0.0,0.0,0.0,0.0,0.0,0.0,0.0,0.0,0.0,0.0,0.0,0.0,0.0,0.0,-2.1952,-2.2467,-2.2777,-2.3001,-2.3001,-2.3001,-2.3001,-2.3001,0.0,0.0,0.0,0.0,0.0,0.0,0.0,0.0,0.0,0.0,0.0,0.0,0.0,0.0,0.0,0.0,0.0,0.0,0.0,0.0,0.0,0.0,0.0,0.0,0.0,0.0,0.0,0.0,0.0,0.0,0.0,0.0,0.0,0.0,0.0,0.0,0.0,0.0,0.0,0.0,0.0,0.0,0.0,0.0,0.0,0.0,0.0,0.0,0.0,0.0,0.0,0.0,0.0,0.0,0.0,0.0,0.0,0.0,0.0,0.0,0.0,0.0,0.0,0.0,0.0,0.0,0.0,0.0,0.0,0.0,0.0,0.0,0.0,0.0,0.0,0.0,0.0,0.0,0.0,0.0,0.0,0.0,0.0,0.0,0.0,0.0,0.0,0.0,0.0,0.0,0.0,0.0,0.0,0.0,0.0,0.0,0.0,0.0,0.0,0.0,0.0,0.0,0.0,0.0,-2.1808,-2.2809,-2.2927,-2.3001,-2.3001,-2.3001,-2.3001,-2.3001,0.0,0.0,0.0,0.0,0.0,0.0,0.0,0.0,0.0,0.0,0.0,0.0,0.0,0.0,0.0,0.0,0.0,0.0,0.0,0.0,0.0,0.0,0.0,0.0,0.0,0.0,0.0,0.0,0.0,0.0,0.0,0.0,0.0,0.0,0.0,0.0,0.0,0.0,0.0,0.0,0.0,0.0,0.0,0.0,0.0,0.0,0.0,0.0,0.0,0.0,0.0,0.0,0.0,0.0,0.0,0.0,0.0,0.0,0.0,0.0,0.0,0.0,0.0,0.0,0.0,0.0,0.0,0.0,0.0,0.0,0.0,0.0,0.0,0.0,0.0,0.0,0.0,0.0,0.0,0.0,0.0,0.0,0.0,0.0,0.0,0.0,0.0,0.0,0.0,0.0,0.0,0.0,0.0,0.0,0.0,0.0,0.0,0.0,0.0,0.0,0.0,0.0,0.0,-2.1945,-2.2455,-2.2979,-2.3241,-2.3285,-2.3023,-2.3241,-2.3285,-2.3023,-2.2116,0.0,0.0,0.0,0.0,0.0,0.0,0.0,0.0,0.0,0.0,0.0,0.0,0.0,0.0,0.0,0.0,0.0,0.0,0.0,0.0,0.0,0.0,0.0,0.0,0.0,0.0,0.0,0.0,0.0,0.0,0.0,0.0,0.0,0.0,0.0,0.0,0.0,0.0,0.0,0.0,0.0,0.0,0.0,0.0,0.0,0.0,0.0,0.0,0.0,0.0,0.0,0.0,0.0,0.0,0.0,0.0,0.0,0.0,0.0,0.0,0.0,0.0,0.0,0.0,0.0,0.0,0.0,0.0,0.0,0.0,0.0,0.0,0.0,0.0,0.0,0.0,0.0,0.0,0.0,0.0,0.0,0.0,0.0,0.0,0.0,0.0,0.0,0.0,0.0,0.0,0.0,0.0,0.0,0.0,0.0,0.0,0.0,0.0,0.0,0.0,0.0,0.0,-2.2787,-2.3001,-2.3001,-2.3438,-2.358,-2.3209,-2.3514,-2.3569,-2.3198,-2.228,0.0,0.0,0.0,0.0,0.0,0.0,0.0,0.0,0.0,0.0,0.0,0.0,0.0,0.0,0.0,0.0,0.0,0.0,0.0,0.0,0.0,0.0,0.0,0.0,0.0,0.0,0.0,0.0,0.0,0.0,0.0,0.0,0.0,0.0,0.0,0.0,0.0,0.0,0.0,0.0,0.0,0.0,0.0,0.0,0.0,0.0,0.0,0.0,0.0,0.0,0.0,0.0,0.0,0.0,0.0,0.0,0.0,0.0,0.0,0.0,0.0,0.0,0.0,0.0,0.0,0.0,0.0,0.0,0.0,0.0,0.0,0.0,0.0,0.0,0.0,0.0,0.0,0.0,0.0,0.0,0.0,0.0,0.0,0.0,0.0,0.0,0.0,0.0,0.0,0.0,0.0,0.0,0.0,0.0,0.0,0.0,0.0,0.0,0.0,0.0,0.0,0.0,-2.257,-2.3001,-2.3001,-2.3438,-2.3722,-2.3678,-2.3711,-2.3722,-2.3678,-2.2794,0.0,0.0,0.0,0.0,0.0,0.0,0.0,0.0,0.0,0.0,0.0,0.0,0.0,0.0,0.0,0.0,0.0,0.0,0.0,0.0,0.0,0.0,0.0,0.0,0.0,0.0,0.0,0.0,0.0,0.0,0.0,0.0,0.0,0.0,0.0,0.0,0.0,0.0,0.0,0.0,0.0,0.0,0.0,0.0,0.0,0.0,0.0,0.0,0.0,0.0,0.0,0.0,0.0,0.0,0.0,0.0,0.0,0.0,0.0,0.0,0.0,0.0,0.0,0.0,0.0,0.0,0.0,0.0,0.0,0.0,0.0,0.0,0.0,0.0,0.0,0.0,0.0,0.0,0.0,0.0,0.0,0.0,0.0,0.0,0.0,0.0,0.0,0.0,0.0,0.0,0.0,0.0,0.0,0.0,0.0,0.0,0.0,0.0,0.0,0.0,0.0,0.0,-2.2807,-2.3121,-2.3427,-2.3908,-2.4071,-2.3755,-2.4017,-2.394,-2.3307,0.0,0.0,0.0,0.0,0.0,0.0,0.0,0.0,0.0,0.0,0.0,0.0,0.0,0.0,0.0,0.0,0.0,0.0,0.0,0.0,0.0,0.0,0.0,0.0,0.0,0.0,0.0,0.0,0.0,0.0,0.0,0.0,0.0,0.0,0.0,0.0,0.0,0.0,0.0,0.0,0.0,0.0,0.0,0.0,0.0,0.0,0.0,0.0,0.0,0.0,0.0,0.0,0.0,0.0,0.0,0.0,0.0,0.0,0.0,0.0,0.0,0.0,0.0,0.0,0.0,0.0,0.0,0.0,0.0,0.0,0.0,0.0,0.0,0.0,0.0,0.0,0.0,0.0,0.0,0.0,0.0,0.0,0.0,0.0,0.0,0.0,0.0,0.0,0.0,0.0,0.0,0.0,0.0,0.0,0.0,0.0,0.0,0.0,0.0,0.0,0.0,0.0,-2.3014,-2.323,-2.3416,-2.3919,-2.441,-2.4563,-2.4057,-2.4287,-2.4113,-2.3275,0.0,0.0,0.0,0.0,0.0,0.0,0.0,0.0,0.0,0.0,0.0,0.0,0.0,0.0,0.0,0.0,0.0,0.0,0.0,0.0,0.0,0.0,0.0,0.0,0.0,0.0,0.0,0.0,0.0,0.0,0.0,0.0,0.0,0.0,0.0,0.0,0.0,0.0,0.0,0.0,0.0,0.0,0.0,0.0,0.0,0.0,0.0,0.0,0.0,0.0,0.0,0.0,0.0,0.0,0.0,0.0,0.0,0.0,0.0,0.0,0.0,0.0,0.0,0.0,0.0,0.0,0.0,0.0,0.0,0.0,0.0,0.0,0.0,0.0,0.0,0.0,0.0,0.0,0.0,0.0,0.0,0.0,0.0,0.0,0.0,0.0,0.0,0.0,0.0,0.0,0.0,0.0,0.0,0.0,0.0,0.0,0.0,0.0,0.0,0.0,0.0,0.0,-2.3471,-2.3733,-2.3929,-2.4443,-2.4902,-2.5082,-2.4816,-2.4395,-2.4046,0.0,0.0,0.0,0.0,0.0,0.0,0.0,0.0,0.0,0.0,0.0,0.0,0.0,0.0,0.0,0.0,0.0,0.0,0.0,0.0,0.0,0.0,0.0,0.0,0.0,0.0,0.0,0.0,0.0,0.0,0.0,0.0,0.0,0.0,0.0,0.0,0.0,0.0,0.0,0.0,0.0,0.0,0.0,0.0,0.0,0.0,0.0,0.0,0.0,0.0,0.0,0.0,0.0,0.0,0.0,0.0,0.0,0.0,0.0,0.0,0.0,0.0,0.0,0.0,0.0,0.0,0.0,0.0,0.0,0.0,0.0,0.0,0.0,0.0,0.0,0.0,0.0,0.0,0.0,0.0,0.0,0.0,0.0,0.0,0.0,0.0,0.0,0.0,0.0,0.0,0.0,0.0,0.0,0.0,0.0,0.0,0.0,0.0,0.0,0.0,0.0,0.0,0.0,-2.3547,-2.3733,-2.3961,-2.4616,-2.4822,-2.4826,-2.4602,-2.4175,-2.3748,-2.3339,0.0,0.0,0.0,0.0,0.0,0.0,0.0,0.0,0.0,0.0,0.0,0.0,0.0,0.0,0.0,0.0,0.0,0.0,0.0,0.0,0.0,0.0,0.0,0.0,0.0,0.0,0.0,0.0,0.0,0.0,0.0,0.0,0.0,0.0,0.0,0.0,0.0,0.0,0.0,0.0,0.0,0.0,0.0,0.0,0.0,0.0,0.0,0.0,0.0,0.0,0.0,0.0,0.0,0.0,0.0,0.0,0.0,0.0,0.0,0.0,0.0,0.0,0.0,0.0,0.0,0.0,0.0,0.0,0.0,0.0,0.0,0.0,0.0,0.0,0.0,0.0,0.0,0.0,0.0,0.0,0.0,0.0,0.0,0.0,0.0,0.0,0.0,0.0,0.0,0.0,0.0,0.0,0.0,0.0,0.0,0.0,0.0,0.0,0.0,0.0,0.0,0.0,-2.3677,-2.3783,-2.4061,-2.4834,-2.4941,-2.4858,-2.4713,-2.4037,-2.3541,-2.3177,0.0,0.0,0.0,0.0,0.0,0.0,0.0,0.0,0.0,0.0,0.0,0.0,0.0,0.0,0.0,0.0,0.0,0.0,0.0,0.0,0.0,0.0,0.0,0.0,0.0,0.0,0.0,0.0,0.0,0.0,0.0,0.0,0.0,0.0,0.0,0.0,0.0,0.0,0.0,0.0,0.0,0.0,0.0,0.0,0.0,0.0,0.0,0.0,0.0,0.0,0.0,0.0,0.0,0.0,0.0,0.0,0.0,0.0,0.0,0.0,0.0,0.0,0.0,0.0,0.0,0.0,0.0,0.0,0.0,0.0,0.0,0.0,0.0,0.0,0.0,0.0,0.0,0.0,0.0,0.0,0.0,0.0,0.0,0.0,0.0,0.0,0.0,0.0,0.0,0.0,0.0,0.0,0.0,0.0,0.0,0.0,0.0,0.0,0.0,0.0,0.0,0.0,-2.3874,-2.3897,-2.4179,-2.5104,-2.52,-2.5115,-2.4861,-2.4063,-2.3468,-2.3194,0.0,0.0,0.0,0.0,0.0,0.0,0.0,0.0,0.0,0.0,0.0,0.0,0.0,0.0,0.0,0.0,0.0,0.0,0.0,0.0,0.0,0.0,0.0,0.0,0.0,0.0,0.0,0.0,0.0,0.0,0.0,0.0,0.0,0.0,0.0,0.0,0.0,0.0,0.0,0.0,0.0,0.0,0.0,0.0,0.0,0.0,0.0,0.0,0.0,0.0,0.0,0.0,0.0,0.0,0.0,0.0,0.0,0.0,0.0,0.0,-1.6452,-1.6087,0.0,0.0,0.0,0.0,0.0,0.0,0.0,0.0,0.0,0.0,0.0,0.0,0.0,0.0,0.0,0.0,0.0,0.0,0.0,0.0,0.0,0.0,0.0,0.0,0.0,0.0,0.0,0.0,0.0,0.0,0.0,0.0,0.0,0.0,0.0,0.0,0.0,0.0,0.0,0.0,-2.3716,-2.3828,-2.4098,-2.4851,-2.4946,-2.4861,-2.4625,-2.4127,-2.3659,-2.3205,-2.2656,0.0,0.0,0.0,0.0,0.0,0.0,0.0,0.0,0.0,0.0,0.0,0.0,0.0,0.0,0.0,0.0,0.0,0.0,0.0,0.0,0.0,0.0,0.0,0.0,0.0,0.0,0.0,0.0,0.0,0.0,0.0,0.0,0.0,0.0,0.0,0.0,0.0,0.0,0.0,0.0,0.0,0.0,0.0,0.0,0.0,0.0,0.0,0.0,0.0,0.0,0.0,0.0,0.0,0.0,0.0,0.0,0.0,0.0,0.0,-1.727,-1.6961,0.0,0.0,0.0,0.0,0.0,0.0,0.0,0.0,0.0,0.0,0.0,0.0,0.0,0.0,0.0,0.0,0.0,0.0,0.0,0.0,0.0,0.0,0.0,0.0,0.0,0.0,0.0,0.0,0.0,0.0,0.0,0.0,0.0,0.0,0.0,0.0,0.0,0.0,0.0,0.0,-2.3879,-2.3924,-2.4105,-2.4628,-2.47,-2.4615,-2.454,-2.4136,-2.3681,-2.3215,-2.2749,0.0,0.0,0.0,0.0,0.0,0.0,0.0,0.0,0.0,0.0,0.0,0.0,0.0,0.0,0.0,0.0,0.0,0.0,0.0,0.0,0.0,0.0,0.0,0.0,0.0,0.0,0.0,0.0,0.0,0.0,0.0,0.0,0.0,0.0,0.0,0.0,0.0,0.0,0.0,0.0,0.0,0.0,0.0,0.0,0.0,0.0,0.0,0.0,0.0,0.0,0.0,0.0,0.0,-1.7922,-1.7954,-1.7954,-1.7954,-1.8112,-1.8375,-1.8081,-1.7922,-1.7954,-1.8145,0.0,0.0,0.0,0.0,0.0,0.0,0.0,0.0,0.0,0.0,0.0,0.0,0.0,0.0,0.0,0.0,0.0,0.0,0.0,0.0,0.0,0.0,-2.341,-2.3646,-2.3819,-2.39,-2.3748,0.0,0.0,0.0,0.0,0.0,0.0,0.0,0.0,0.0,0.0,0.0,-2.4064,-2.3961,-2.4043,-2.4498,-2.454,-2.454,-2.454,-2.4209,-2.3795,-2.3339,-2.2946,-2.2522,0.0,0.0,0.0,0.0,0.0,0.0,0.0,0.0,0.0,0.0,0.0,0.0,0.0,0.0,0.0,0.0,0.0,0.0,0.0,0.0,0.0,0.0,0.0,0.0,0.0,0.0,0.0,0.0,0.0,0.0,0.0,0.0,-1.0012,-1.0604,0.0,0.0,0.0,0.0,0.0,0.0,0.0,0.0,0.0,0.0,0.0,0.0,0.0,-1.7676,-1.7771,-1.8073,-1.8232,-1.8232,-1.8541,-1.8684,-1.8684,-1.8684,-1.8716,-1.8756,-1.8708,0.0,-1.8232,-1.8515,0.0,0.0,0.0,0.0,0.0,0.0,0.0,0.0,0.0,0.0,0.0,0.0,0.0,0.0,0.0,0.0,0.0,0.0,0.0,0.0,0.0,0.0,-2.3888,-2.4271,-2.4364,-2.4364,-2.4364,-2.3856,-2.3412,-2.3252,-2.313,-2.3088,0.0,0.0,0.0,0.0,0.0,0.0,-2.3898,-2.3877,-2.4043,-2.4498,-2.454,-2.454,-2.454,-2.4488,-2.426,-2.3815,-2.3732,-2.3402,-2.2686,-2.2604,0.0,0.0,0.0,0.0,0.0,0.0,0.0,0.0,0.0,0.0,0.0,0.0,0.0,0.0,0.0,0.0,0.0,0.0,0.0,0.0,0.0,0.0,0.0,0.0,0.0,0.0,0.0,0.0,0.0,-1.0191,-1.0743,-1.1129,-1.1386,-1.18,0.0,0.0,0.0,0.0,0.0,0.0,0.0,0.0,0.0,-1.7747,-1.7993,-1.816,-1.8359,-1.8518,-1.8597,-1.8597,-1.8756,-1.8827,-1.8827,-1.8827,-1.8827,-1.8827,-1.8827,-1.8859,-1.8883,-1.9157,-1.9249,-1.9351,0.0,0.0,0.0,0.0,-2.0474,-2.0386,-2.0298,-2.0254,-2.0431,-2.068,0.0,0.0,0.0,0.0,0.0,0.0,0.0,-2.3991,-2.4198,-2.425,-2.4302,-2.4498,-2.454,-2.454,-2.454,-2.4229,-2.4033,-2.395,-2.395,-2.395,-2.395,-2.395,0.0,0.0,0.0,-2.4022,-2.4229,-2.425,-2.4322,-2.4519,-2.454,-2.454,-2.454,-2.454,-2.4353,-2.3908,-2.3784,-2.3329,-2.2625,-2.2513,-2.2004,0.0,0.0,0.0,0.0,0.0,0.0,0.0,0.0,0.0,0.0,0.0,0.0,0.0,0.0,0.0,0.0,0.0,0.0,0.0,0.0,0.0,0.0,0.0,0.0,0.0,0.0,0.0,0.0,-1.0864,-1.1238,-1.1672,-1.2184,-1.2692,0.0,0.0,0.0,0.0,0.0,0.0,-1.7071,-1.7517,-1.7943,-1.8557,-1.8573,-1.874,-1.909,-1.909,-1.909,-1.909,-1.909,-1.909,-1.909,-1.909,-1.909,-1.909,-1.909,-1.9248,-1.9566,-1.9589,-1.9861,-2.0205,-2.0933,-2.1336,-2.1626,-2.1698,-2.1715,-2.1624,-2.1535,-2.1432,-2.1447,-2.1881,-2.2101,-2.2355,-2.2679,0.0,0.0,0.0,0.0,-2.454,-2.454,-2.454,-2.454,-2.454,-2.4633,-2.4716,-2.4716,-2.4809,-2.485,-2.4736,-2.4623,-2.4581,-2.4695,-2.4623,0.0,-2.454,-2.454,-2.454,-2.454,-2.454,-2.4454,-2.4454,-2.4454,-2.4368,-2.4368,-2.4282,-2.4224,-2.3895,-2.3612,-2.3207,-2.2625,-2.2261,-2.17,-2.094,0.0,0.0,0.0,0.0,0.0,0.0,0.0,0.0,0.0,0.0,0.0,0.0,0.0,0.0,0.0,0.0,0.0,0.0,0.0,0.0,0.0,0.0,0.0,0.0,0.0,0.0,0.0,0.0,0.0,-1.2165,-1.27,0.0,0.0,0.0,0.0,-1.6877,-1.7201,-1.7627,-1.8232,-1.8263,-1.8597,-1.9296,-1.932,-1.9479,-1.9812,-1.9812,-1.9812,-1.9812,-1.9812,-1.9812,-1.9812,-1.9812,-1.9812,-1.9812,-1.9812,-1.982,-1.991,-1.9749,-2.0186,-2.0971,-2.1544,-2.1977,-2.23,-2.2574,-2.2513,-2.2353,-2.2618,-2.2862,-2.3018,-2.329,-2.3714,-2.4135,-2.4307,-2.4402,0.0,0.0,-2.4433,-2.454,-2.454,-2.454,-2.454,-2.454,-2.4881,-2.5192,-2.5192,-2.5513,-2.5689,-2.5275,-2.484,-2.4674,-2.5119,0.0,-2.454,-2.454,-2.454,-2.454,-2.454,-2.454,-2.4454,-2.4206,-2.4206,-2.411,-2.3841,-2.3841,-2.3831,-2.381,-2.3637,-2.329,-2.2824,-2.2356,-2.1553,-2.049,-1.9922,0.0,0.0,0.0,0.0,0.0,0.0,0.0,0.0,0.0,0.0,0.0,0.0,0.0,0.0,0.0,0.0,0.0,0.0,0.0,0.0,0.0,0.0,0.0,0.0,0.0,0.0,0.0,0.0,-1.2978,-1.3762,0.0,-1.5467,-1.6213,-1.6858,-1.7652,-1.7854,-1.8285,-1.8962,-1.8986,-1.9201,-1.9669,-1.9693,-1.9741,-1.9868,-1.9868,-1.9868,-1.9868,-1.9868,-1.9868,-1.9868,-1.9868,-1.9868,-1.9868,-1.9868,-1.9995,-2.0194,-2.0173,-2.0346,-2.0837,-2.15,-2.1898,-2.2254,-2.2824,-2.2833,-2.256,-2.3009,-2.3025,-2.2969,-2.3493,-2.4216,-2.4898,-2.4898,-2.5181,-2.5399,-2.5399,-2.5202,-2.4985,-2.4985,-2.4767,-2.4623,-2.4923,-2.4923,-2.504,-2.5327,-2.5411,-2.5473,-2.5523,-2.545,-2.5451,-2.5616,-2.5513,-2.532,-2.5153,-2.532,-2.531,-2.4964,-2.5053,-2.4964,-2.4596,-2.4256,-2.3998,-2.3723,-2.3467,-2.3309,-2.3144,-2.2969,-2.252,-2.1882,-2.1526,-2.1016,-2.0095,-1.9491,-1.8982,0.0,0.0,0.0,0.0,0.0,0.0,0.0,0.0,0.0,0.0,0.0,0.0,0.0,0.0,0.0,0.0,0.0,0.0,0.0,0.0,0.0,0.0,0.0,0.0,0.0,0.0,-1.3058,-1.3762,-1.4744,-1.5676,-1.6506,-1.7249,-1.7866,-1.8387,-1.868,-1.9136,-1.962,-1.9765,-1.999,-2.0223,-2.0239,-2.0197,-2.0218,-2.0218,-2.0218,-2.0218,-2.0218,-2.0218,-2.0218,-2.0218,-2.0218,-2.0218,-2.0218,-2.0353,-2.0567,-2.0567,-2.0632,-2.0818,-2.1489,-2.1801,-2.2092,-2.2867,-2.2887,-2.2594,-2.3095,-2.3323,-2.3456,-2.3761,-2.4462,-2.5183,-2.5183,-2.5378,-2.5603,-2.5603,-2.5409,-2.5183,-2.5283,-2.5057,-2.4903,-2.5211,-2.5306,-2.531,-2.5513,-2.55,-2.5505,-2.5794,-2.5746,-2.5655,-2.5808,-2.5706,-2.5523,-2.525,-2.5432,-2.5422,-2.4864,-2.5067,-2.4975,-2.4414,-2.3968,-2.3644,-2.3138,-2.2792,-2.2494,-2.2176,-2.19,-2.1535,-2.0988,-2.0718,-2.0275,-1.9654,-1.9109,-1.8661,-1.8588,0.0,0.0,0.0,0.0,0.0,0.0,0.0,0.0,0.0,0.0,0.0,0.0,0.0,0.0,0.0,0.0,0.0,0.0,0.0,0.0,0.0,0.0,0.0,-1.2361,-1.2819,-1.3519,-1.4489,-1.5583,-1.6591,-1.759,-1.8355,-1.892,-1.9188,-1.98,-2.0107,-2.0116,-2.0479,-2.0744,-2.0791,-2.0816,-2.0885,-2.0933,-2.0941,-2.0941,-2.0941,-2.0925,-2.0925,-2.0925,-2.0925,-2.0925,-2.0925,-2.0925,-2.0925,-2.0925,-2.0925,-2.0925,-2.0917,-2.1522,-2.1812,-2.1996,-2.2486,-2.2531,-2.2416,-2.2842,-2.3688,-2.4611,-2.4206,-2.4545,-2.5087,-2.5087,-2.5097,-2.5107,-2.5107,-2.5097,-2.5178,-2.5462,-2.5462,-2.5452,-2.5462,-2.5808,-2.6123,-2.5852,-2.5899,-2.61,-2.5994,-2.5501,-2.5247,-2.5678,-2.5398,-2.5015,-2.473,-2.4914,0.0,-2.4341,-2.4536,-2.4453,-2.3636,-2.3317,-2.2861,-2.1931,-2.1609,-2.134,-2.1032,-2.0736,-2.0473,-2.0292,-1.9828,-1.9463,-1.9204,-1.86,-1.8351,-1.8351,0.0,0.0,0.0,0.0,0.0,0.0,0.0,0.0,0.0,0.0,0.0,0.0,0.0,0.0,0.0,0.0,0.0,0.0,0.0,0.0,0.0,-1.2391,-1.2766,-1.2868,-1.3604,-1.455,-1.5652,-1.6657,-1.7584,-1.8378,-1.9055,-1.9396,-1.9487,-1.9901,-2.0215,-2.0495,-2.0842,-2.1197,-2.1459,-2.1542,-2.1626,-2.1619,-2.141,-2.1306,-2.1298,-2.1044,-2.0925,-2.0925,-2.0925,-2.0925,-2.0925,-2.0925,-2.0925,-2.0925,-2.0925,-2.0925,-2.0917,-2.1326,-2.1464,-2.1577,-2.208,-2.2339,-2.2347,-2.2339,-2.2823,-2.3345,-2.3642,-2.4159,-2.4769,-2.4967,-2.5287,-2.5543,-2.5543,-2.5307,-2.5061,-2.5351,-2.5205,-2.5045,-2.5375,-2.5347,-2.5336,-2.517,-2.5042,-2.4824,-2.4421,-2.4235,-2.4406,-2.5295,-2.5314,-2.5054,-2.4572,-2.4755,-2.4746,-2.4175,-2.4378,-2.4281,-2.3501,-2.3053,-2.2549,-2.1961,-2.1596,-2.1174,-2.0602,-2.0492,-2.0189,-1.9571,-1.9371,-1.9217,-1.8997,-1.9067,-1.9057,0.0,0.0,0.0,0.0,0.0,0.0,0.0,0.0,0.0,0.0,0.0,0.0,0.0,0.0,0.0,0.0,0.0,0.0,0.0,0.0,0.0,0.0,-1.2795,-1.3173,-1.3554,-1.4295,-1.5197,-1.6197,-1.7249,-1.814,-1.8896,-1.9387,-1.9762,-1.9762,-2.0416,-2.0897,-2.1029,-2.1624,-2.1904,-2.192,-2.1837,-2.1745,-2.165,-2.133,-2.1227,-2.1227,-2.102,-2.0925,-2.0925,-2.0925,-2.0925,-2.0925,-2.0925,-2.0925,-2.0925,-2.0925,-2.0925,-2.0925,0.0,0.0,0.0,0.0,-2.1996,-2.2158,-2.1887,-2.232,-2.2901,-2.3044,-2.3542,-2.405,-2.4244,-2.451,-2.4707,-2.4815,-2.4635,-2.4543,-2.5035,-2.4851,-2.4726,-2.5082,-2.4939,-2.4716,-2.4581,-2.4332,-2.4035,-2.3628,-2.3429,0.0,-2.3908,-2.4205,-2.4313,-2.3926,-2.4016,-2.4016,-2.3529,-2.3628,-2.3529,-2.2828,-2.2538,-2.2042,-2.1494,-2.108,0.0,0.0,0.0,-1.9939,-1.9547,-1.9445,0.0,0.0,0.0,0.0,0.0,0.0,0.0,0.0,-1.8889,-1.8897,0.0,0.0,0.0,0.0,0.0,0.0,0.0,0.0,0.0,0.0,0.0,0.0,0.0,0.0,0.0,0.0,-1.3206,-1.3732,-1.4254,-1.4775,-1.553,-1.6535,-1.7527,-1.845,-1.9188,-1.9745,-2.0036,-1.997,-2.1088,-2.17,-2.1456,0.0,0.0,0.0,0.0,-2.1689,-2.1383,-2.1186,-2.098,-2.098,-2.0941,-2.0925,-2.0925,-2.0925,-2.0925,-2.0925,-2.0925,-2.0925,-2.0925,-2.0925,-2.0925,-2.0925,-2.0925,-2.0925,-2.0925,-2.1121,-2.1522,-2.1878,-2.1562,0.0,0.0,-2.2339,-2.2658,-2.3129,-2.3229,-2.3229,-2.3229,-2.3529,-2.3529,-2.3728,-2.443,-2.4529,-2.4332,-2.4637,-2.4529,-2.4233,-2.3926,-2.3728,-2.3429,-2.3129,-2.2929,-2.2526,-2.2021,-2.2627,-2.3029,-2.2828,-2.2929,-2.2929,-2.2426,-2.2627,-2.2526,-2.2021,-2.1827,0.0,-2.0872,-2.0548,-2.0297,-1.9948,-1.9884,-1.9868,-1.9868,-1.9908,-1.9834,-1.954,-1.9579,-1.9406,-1.911,-1.911,-1.9336,-1.9613,-1.9388,-1.9433,0.0,0.0,0.0,0.0,0.0,0.0,0.0,0.0,0.0,0.0,0.0,0.0,0.0,0.0,0.0,-1.2738,-1.3393,-1.3944,-1.4279,-1.4935,-1.5732,-1.6764,-1.7747,-1.8719,-1.9654,-2.0201,-2.0568,-2.0609,-2.1225,-2.1726,-2.2065,-2.2425,-2.2576,-2.2484,-2.2511,-2.2386,-2.2084,-2.1876,-2.1563,-2.1346,-2.106,0.0,-2.0925,-2.0925,-2.0925,-2.0925,-2.0925,-2.0925,-2.0925,-2.0925,-2.0925,-2.0925,-2.0925,-2.0925,-2.0925,-2.0917,-2.1019,-2.1113,-2.1245,-2.1464,-2.1717,-2.2047,-2.2274,-2.2325,-2.2627,-2.2627,0.0,-2.2728,-2.2728,-2.2828,-2.3229,-2.3229,-2.3229,-2.3229,-2.3229,-2.3129,-2.2627,-2.2426,-2.2224,-2.1827,-2.1623,-2.1522,-2.1224,-2.1827,-2.2224,-2.192,-2.203,-2.192,-2.1827,-2.1928,-2.1827,-2.153,-2.1428,-2.1191,-2.0923,-2.0813,-2.0662,-2.0313,-2.0019,-1.9868,-1.9868,-2.0138,-2.0098,-1.9606,-1.9859,-1.9793,-1.9295,-1.9295,-1.939,-1.9766,-1.9628,-1.9687,0.0,0.0,0.0,0.0,0.0,0.0,0.0,0.0,0.0,0.0,0.0,-0.8855,-0.9814,0.0,-1.2388,-1.2921,-1.3469,-1.3954,-1.4276,-1.4779,-1.5527,-1.685,-1.787,-1.8703,-1.9513,-2.0158,-2.0776,-2.1353,-2.1919,-2.23,-2.2505,-2.2883,-2.2994,-2.2811,-2.2715,-2.2425,-2.2006,-2.1696,-2.1498,-2.1179,-2.1004,-2.0925,-2.0925,-2.0925,-2.0925,-2.0925,-2.0925,-2.0925,-2.0925,-2.0925,-2.0925,-2.0925,-2.0925,-2.0925,-2.0925,-2.0925,-2.0925,-2.0925,-2.1019,-2.1121,-2.1121,-2.142,-2.1522,-2.1522,-2.1623,-2.1725,-2.1725,-2.1827,-2.1928,-2.2021,-2.2426,-2.2426,-2.2325,-2.2426,-2.2426,-2.2224,-2.1928,-2.1928,-2.1827,-2.142,-2.1326,-2.1224,-2.0925,-2.1224,-2.142,-2.1326,-2.1326,-2.1326,-2.1326,-2.1326,-2.1224,-2.1121,-2.1121,-2.1019,-2.0917,-2.0925,-2.0845,-2.067,-2.0488,-2.0392,-2.0392,-2.0466,-2.0257,-1.9849,-1.9899,-1.968,-1.9279,-1.9279,-1.9528,-1.9996,-1.9927,-2.0111,0.0,0.0,0.0,0.0,0.0,0.0,0.0,0.0,-0.6156,-0.6681,-0.793,-0.9137,-0.9851,-1.1348,-1.2551,-1.3024,-1.3594,-1.4057,-1.4268,-1.458,-1.5337,-1.6662,-1.7669,-1.8572,-1.9389,-2.0124,-2.1002,-2.2113,-2.2635,-2.3008,-2.3064,-2.3458,-2.342,-2.3046,-2.2846,-2.2443,-2.1843,-2.153,-2.1224,-2.1019,-2.0925,-2.0925,-2.0925,-2.0925,-2.0925,-2.0925,-2.0925,-2.0925,-2.0925,-2.0925,-2.0925,-2.0925,-2.0925,-2.0925,-2.0925,-2.0925,-2.0925,-2.0925,-2.0925,-2.0925,-2.0925,-2.0925,-2.0925,-2.0925,-2.0925,-2.0925,-2.0925,-2.1121,-2.1224,-2.1326,-2.1725,-2.1725,-2.1623,-2.1827,-2.1725,-2.1522,-2.1522,-2.1522,-2.1522,-2.1224,-2.1224,-2.1121,-2.0917,-2.0925,-2.0925,-2.0925,-2.0925,-2.0925,-2.0925,-2.0925,-2.0925,-2.0925,-2.0925,-2.0925,-2.0925,-2.0925,-2.0925,-2.0925,-2.0925,-2.0925,-2.0822,-2.0617,-2.0308,-1.9983,-1.9776,-1.9583,-1.9279,-1.9345,-1.9667,-2.0237,-2.0303,-2.0501,-0.0067,-0.1094,-0.2298,-0.3219,-0.3846,-0.4385,0.0,0.0,-0.5891,-0.7183,-0.7928,-0.8747,-0.9794,-1.1332,-1.2569,-1.278,-1.3649,-1.4262,-1.4292,-1.4783,-1.5356,-1.6271,-1.7037,-1.8134,-1.9994,-2.0826,-2.1572,-2.2393,-2.2951,-2.3537,-2.4051,-2.38,-2.352,-2.3347,-2.3147,-2.2771,-2.2511,-2.1953,-2.1522,-2.1224,-2.1019,-2.0925,-2.0925,-2.0925,-2.0925,-2.0925,-2.0925,-2.0925,-2.0925,-2.0925,-2.0925,-2.0925,-2.0925,-2.0925,-2.0925,-2.0925,-2.0925,-2.0925,-2.0925,-2.0925,-2.0925,-2.0925,-2.0925,-2.0925,-2.0925,-2.0925,-2.0925,-2.0917,-2.0917,-2.0917,-2.1019,-2.1019,-2.1019,-2.1027,-2.1019,-2.1027,-2.1027,-2.1027,-2.1019,-2.0917,-2.0917,-2.0917,-2.0925,-2.0925,-2.0925,-2.0925,-2.0925,-2.0925,-2.0925,-2.0925,-2.0925,-2.0925,-2.0925,-2.0925,-2.0925,-2.0925,-2.0925,-2.0925,-2.0925,-2.0822,-2.0514,-2.0522,-2.0308,-1.9776,-1.968,-1.9583,-1.9279,-1.9572,-1.9894,-2.0245,-2.053,-2.0845,-0.0067,-0.0891,0.0,0.0,-0.3461,-0.4047,-0.4841,-0.5239,-0.5749,-0.6865,-0.7773,-0.8674,-0.9836,-1.1269,-1.2344,0.0,-1.345,-1.4123,-1.4274,-1.4783,-1.5458,-1.6386,-1.8001,-1.9412,-2.0525,-2.1041,-2.1798,-2.2905,-2.3204,-2.3555,-2.4214,-2.4044,-2.3845,-2.3646,-2.3347,-2.3055,-2.2569,-2.2063,-2.1648,-2.1326,-2.1027,-2.0925,-2.0925,-2.0925,-2.0925,-2.0925,-2.0925,-2.0925,-2.0925,-2.0925,-2.0925,-2.0925,-2.0925,-2.0925,-2.0925,-2.0925,-2.0925,-2.0925,-2.0925,-2.0925,-2.0925,-2.0925,-2.0925,-2.0925,-2.0925,-2.0925,-2.0925,-2.0925,-2.0925,-2.0925,-2.0925,-2.0925,-2.0925,-2.0925,-2.0925,-2.0925,-2.0925,-2.0925,-2.0925,-2.0925,-2.0925,-2.0925,-2.0925,-2.0925,-2.0925,-2.0925,-2.0925,-2.0925,-2.0925,-2.0925,-2.0925,-2.0925,-2.0925,-2.0925,-2.0925,-2.0925,-2.0925,-2.0925,-2.0719,-2.0617,-2.0522,-2.0205,-1.9887,-1.968,-1.9583,-1.9376,-1.9279,-1.9608,-1.9923,-2.0245,-2.0574,-2.0896,0.0134,0.0,0.0,-0.2244,-0.2969,-0.3675,-0.4501,-0.5033,-0.5577,-0.6473,-0.7403,-0.8495,-0.9593,-1.0875,-1.1925,-1.2558,-1.3359,-1.3975,-1.4057,-1.4627,-1.5435,-1.6563,-1.8574,-2.0062,-2.0642,-2.1131,-2.1907,-2.3139,-2.3204,-2.345,-2.4115,-2.4152,-2.4161,-2.3872,-2.3564,-2.3155,-2.2636,-2.2266,-2.1758,-2.1428,-2.1019,-2.0925,-2.0925,-2.0925,-2.0869,-2.0774,-2.0774,-2.0718,-2.0631,-2.0631,-2.0686,-2.0774,-2.0774,-2.0837,-2.0925,-2.0925,-2.0925,-2.0925,-2.0925,-2.0925,-2.0925,-2.0925,-2.0925,-2.0925,-2.0925,-2.0925,-2.0925,-2.0925,-2.0925,-2.0925,-2.0925,-2.0925,-2.0925,-2.0925,-2.0925,-2.0925,-2.0925,-2.0925,-2.0925,-2.0925,-2.0925,-2.0925,-2.0925,-2.0925,-2.0925,-2.0925,-2.0925,-2.0925,-2.0925,-2.0925,-2.0925,-2.0925,-2.0925,-2.0925,-2.0925,-2.0925,-2.0925,-2.0925,-2.0624,-2.0522,-2.0411,-1.999,-1.968,-1.9576,-1.9376,-1.9323,-1.9411,-1.974,-2.0055,-2.0377,-2.0706,-2.0984,0.0,0.0,-0.0635,-0.1522,-0.2452,-0.3297,-0.3778,-0.4468,-0.523,-0.593,-0.6908,-0.7955,-0.9221,-1.0139,-1.1133,-1.2143,-1.3405,-1.4066,-1.3641,-1.4308,-1.5319,-1.6649,-1.798,-1.9263,0.0,-2.1105,-2.2071,-2.2896,-2.296,-2.3308,-2.4106,-2.4152,-2.418,-2.4235,-2.38,-2.3382,-2.3064,-2.2376,-2.186,-2.1725,-2.1121,-2.0925,-2.0925,-2.0925,-2.0734,-2.0408,-2.0408,-2.021,-1.9892,-1.9892,-2.0098,-2.0408,-2.0408,-2.0615,-2.0925,-2.0925,-2.0925,-2.0925,-2.0925,-2.0925,-2.0925,-2.0925,-2.0925,-2.0925,-2.0925,-2.0925,-2.0925,-2.0925,-2.0925,-2.0925,-2.0925,-2.0925,-2.0925,-2.0925,-2.0925,-2.0925,-2.0925,-2.0925,-2.0925,-2.0925,-2.0925,-2.0925,-2.0925,-2.0925,-2.0925,-2.0925,-2.0925,-2.0925,-2.0925,-2.0925,-2.0925,-2.0925,-2.0925,-2.0925,-2.0925,-2.0925,-2.0925,-2.0925,-2.0624,-2.0411,-2.0078,-1.9887,-1.9576,-1.9272,-1.9279,-1.9433,-1.9755,-2.0069,-2.0391,-2.0713,-2.1042,-2.1203,0.0,0.0,-0.014,-0.1063,-0.1809,-0.2592,-0.3317,-0.4058,-0.4673,-0.526,-0.6196,-0.7349,-0.875,-0.9743,-1.0707,-1.1999,-1.3003,-1.3604,-1.3656,-1.4571,-1.5624,-1.6973,-1.794,0.0,0.0,0.0,0.0,-2.2802,-2.2857,-2.3299,-2.4106,-2.4152,-2.4161,-2.418,-2.3782,-2.3592,-2.3386,-2.1977,-2.1131,-2.113,-2.0764,-2.0448,-2.0226,-2.0464,-2.0377,-2.0043,-2.0043,-1.9971,-1.9868,-1.9868,-1.9932,-2.0067,-2.0297,-2.0464,-2.0599,-2.0837,-2.0925,-2.0925,-2.0925,-2.0925,-2.0925,-2.0925,-2.0925,-2.0925,-2.0925,-2.0925,-2.0925,-2.0925,-2.0925,-2.0925,-2.0925,-2.0925,-2.0925,-2.0925,-2.0925,-2.0925,-2.0925,-2.0925,-2.0925,-2.0925,-2.0925,-2.0925,-2.0925,-2.0925,-2.0925,-2.0925,-2.0925,-2.0925,-2.0925,-2.0925,-2.0925,-2.0925,-2.0925,-2.0925,-2.0925,-2.0925,-2.0822,-2.0624,-2.062,-2.0323,-1.9887,-1.9792,-1.9596,-1.9279,-1.9484,-1.9652,-1.9762,-2.0296,-2.0618,-2.0728,-2.1057,-2.1211,0.0,0.0724,0.0137,-0.062,-0.1197,-0.1871,-0.2761,-0.3487,-0.4093,-0.4617,-0.5541,-0.6623,-0.8134,-0.9428,-1.0735,-1.1987,-1.2837,-1.3405,-1.3737,-1.4678,-1.5624,-1.6664,-1.7837,-1.9079,0.0,0.0,0.0,-2.282,-2.2984,-2.3455,-2.4115,-2.4152,-2.4088,-2.3941,-2.3565,-2.3323,-2.3299,-2.1463,-2.0533,-2.0475,-2.0295,-2.0083,-1.9876,-2.0098,-2.0019,-1.9693,-1.9693,-1.9614,-1.9495,-1.9495,-1.9574,-1.9717,-2.0067,-2.0281,-2.044,-2.079,-2.0925,-2.0925,-2.0925,-2.0925,-2.0925,-2.0925,-2.0925,-2.0925,-2.0925,-2.0925,-2.0925,-2.0925,-2.0925,-2.0925,-2.0925,-2.0925,-2.0925,-2.0925,-2.0925,-2.0925,-2.0925,-2.0925,-2.0925,-2.0925,-2.0925,-2.0925,-2.0925,-2.0925,-2.0925,-2.0925,-2.0925,-2.0925,-2.0925,-2.0925,-2.0925,-2.0925,-2.0925,-2.0925,-2.0925,-2.0822,-2.0774,-2.0701,-2.0588,-2.034,-2.0031,-1.992,-1.9835,-1.9623,-1.9828,-1.9989,-2.0106,-2.0523,-2.0786,-2.0903,-2.1115,-2.1211,0.1284,0.0756,0.0259,-0.0133,-0.0615,-0.1264,-0.2086,-0.2809,-0.3543,-0.4143,-0.4849,-0.5851,0.0,0.0,-1.0937,-1.2087,-1.2922,-1.3582,-1.3804,-1.4628,-1.5458,0.0,0.0,0.0,0.0,0.0,0.0,-2.2893,0.0,-2.3712,-2.4106,-2.4115,-2.3932,-2.3423,-2.3044,-2.2804,-2.2749,-2.0849,-1.9942,-1.9812,-1.9828,-1.9828,-1.9812,-1.9828,-1.9662,-1.9344,-1.9344,-1.9153,-1.8827,-1.8827,-1.9034,-1.9383,-1.9733,-2.0067,-2.0408,-2.0782,-2.0925,-2.0925,-2.0925,-2.0925,-2.0925,-2.0925,-2.0925,-2.0925,-2.0925,-2.0925,-2.0925,-2.0925,-2.0925,-2.0925,-2.0925,-2.0925,-2.0925,-2.0925,-2.0925,-2.0925,-2.0925,-2.0925,-2.0925,-2.0925,-2.0925,-2.0925,-2.0925,-2.0925,-2.0925,-2.0925,-2.0925,-2.0925,-2.0925,-2.0925,-2.0925,-2.0925,-2.0925,-2.0925,-2.0925,-2.0617,-2.0669,-2.0922,-2.0522,-2.0337,-2.0535,-2.0354,-2.0252,-2.0237,-2.0252,-2.0413,-2.072,-2.0742,-2.0903,-2.1211,-2.1211,-2.1211,0.131,0.1038,0.0688,0.0126,-0.0194,-0.0529,-0.1395,-0.2245,-0.3086,-0.3818,-0.4733,-0.575,-0.7055,0.0,0.0,-1.1404,-1.2395,0.0,-1.3779,-1.4615,0.0,-1.6668,0.0,-1.9328,-2.1043,-2.2101,0.0,0.0,-2.3483,-2.3584,-2.3694,-2.3703,-2.3414,-2.2813,-2.2518,-2.2393,-2.2312,-2.023,-1.9119,-1.909,-1.9368,-1.936,-1.9105,-1.9376,-1.9304,-1.897,-1.897,-1.8915,-1.8827,-1.8827,-1.8883,-1.9026,-1.963,-1.9924,-2.0075,-2.0694,-2.0925,-2.0925,-2.0925,-2.0925,-2.0925,-2.0925,-2.0925,-2.0925,-2.0925,-2.0925,-2.0925,-2.0925,-2.0925,-2.0925,-2.0925,-2.0925,-2.0925,-2.0925,-2.0925,-2.0925,-2.0925,-2.0925,-2.0925,-2.0925,-2.0925,-2.0925,-2.0925,-2.0925,-2.0925,-2.0925,-2.0925,-2.0925,-2.0925,-2.0925,-2.0925,-2.0925,-2.0925,-2.0925,-2.0925,-2.0617,-2.0604,-2.0727,-2.0565,-2.0468,-2.0339,-2.0472,-2.0486,-2.0237,-2.0479,-2.064,-2.072,-2.0969,-2.113,-2.1211,-2.1211,-2.1211,0.127,0.1123,0.0847,0.0484,0.0188,-0.0194,-0.1095,-0.1924,-0.2766,-0.3711,-0.454,0.0,-0.6887,0.0,0.0,0.0,0.0,0.0,-1.4121,-1.4779,-1.5599,0.0,-1.8126,0.0,-2.1092,-2.2399,-2.3153,0.0,-2.3547,-2.3547,-2.3547,-2.3373,-2.3003,-2.2312,-2.2116,-2.1684,-2.1098,-1.9545,-1.8764,-1.8827,-1.9034,-1.9026,-1.8835,-1.9042,-1.9026,-1.8827,-1.8827,-1.8827,-1.8827,-1.8827,-1.8827,-1.8883,-1.9431,-1.9646,-1.9717,-2.0257,-2.0456,-2.048,-2.0639,-2.0686,-2.071,-2.0869,-2.0925,-2.0925,-2.0925,-2.0925,-2.0925,-2.0925,-2.0925,-2.0925,-2.0925,-2.0925,-2.0925,-2.0925,-2.0925,-2.0925,-2.0925,-2.0925,-2.0925,-2.0925,-2.0925,-2.0925,-2.0925,-2.0925,-2.0925,-2.0925,-2.0925,-2.0925,-2.0925,-2.0925,-2.0925,-2.0925,-2.0925,-2.0925,-2.0925,-2.0529,-2.0396,-2.0575,-2.0524,-2.0406,-2.0442,-2.0764,-2.0852,-2.0669,-2.0845,-2.094,-2.094,-2.1123,-2.1211,-2.1211,-2.1211,-2.1211,0.1234,0.1031,0.0879,0.0824,0.0308,-0.0321,-0.0966,-0.1787,-0.2693,-0.3711,0.0,-0.5492,-0.6891,-0.8028,-0.9358,-1.1111,0.0,-1.3314,-1.4469,-1.5032,-1.5724,-1.6637,-1.8348,-1.9974,-2.11,-2.2495,-2.335,-2.3395,-2.3419,-2.3382,-2.3382,-2.2966,-2.2499,-2.1814,-2.152,-2.081,-1.9579,-1.9063,-1.878,-1.8827,-1.8827,-1.8827,-1.8827,-1.8827,-1.8827,-1.8827,-1.8827,-1.8827,-1.8827,-1.8827,-1.8827,-1.8867,-1.9233,-1.9376,-1.9415,-1.9741,-1.9868,-1.9908,-2.0218,-2.0353,-2.0448,-2.0805,-2.0925,-2.0925,-2.0925,-2.0925,-2.0925,-2.0925,-2.0925,-2.0925,-2.0925,-2.0925,-2.0925,-2.0925,-2.0925,-2.0925,-2.0925,-2.0925,-2.0925,-2.0925,-2.0925,-2.0925,-2.0925,-2.0925,-2.0925,-2.0925,-2.0925,-2.0925,-2.0925,-2.0925,-2.0925,-2.0925,-2.0925,-2.0925,-2.0925,-2.0442,-2.0284,-2.0597,-2.0349,-2.034,-2.0706,-2.0998,-2.1167,-2.1211,-2.1211,-2.1211,-2.1211,-2.1211,-2.1211,-2.1211,-2.1211,-2.1211,0.101,0.0901,0.0797,0.0293,-0.0364,-0.0939,-0.1089,-0.2132,0.0,0.0,0.0,-0.5845,-0.7069,-0.8213,0.0,-1.1112,0.0,0.0,0.0,0.0,-1.5927,0.0,0.0,0.0,0.0,0.0,0.0,0.0,-2.2731,-2.2538,-2.2538,-2.2289,-2.1805,-2.1057,-2.0386,-1.9887,-1.9363,-1.8956,-1.878,-1.8827,-1.8827,-1.8827,-1.8827,-1.8827,-1.8827,-1.8827,-1.8827,-1.8827,-1.8827,-1.8827,-1.8827,-1.8867,-1.9233,-1.9376,-1.9415,-1.9741,-1.9868,-1.9876,-1.9932,-2.0146,-2.0448,-2.0805,-2.0925,-2.0925,-2.0925,-2.0925,-2.0925,-2.0925,-2.0925,-2.0925,-2.0925,-2.0925,-2.0925,-2.0925,-2.0925,-2.0925,-2.0925,-2.0925,-2.0925,-2.0925,-2.0925,-2.0925,-2.0925,-2.0925,-2.0925,-2.0925,-2.0925,-2.0925,-2.0925,-2.0925,-2.0925,-2.0925,-2.0925,-2.0925,-2.0925,-2.0442,-2.0226,-2.0529,-2.0193,-2.0113,-2.0698,-2.0779,-2.0933,-2.1203,-2.1211,-2.1211,-2.1211,-2.1211,-2.1211,-2.1211,-2.1211,-2.1211,0.0954,0.0673,0.0339,0.0058,-0.0543,-0.1182,-0.16,0.0,0.0,0.0,0.0,-0.6192,-0.7409,0.0,0.0,0.0,0.0,0.0,0.0,0.0,0.0,0.0,0.0,0.0,0.0,0.0,0.0,0.0,-2.2354,-2.2144,-2.2144,-2.1588,-2.1137,-2.0806,-2.0036,-1.9563,-1.9279,-1.8988,-1.8804,-1.8827,-1.8827,-1.8827,-1.8827,-1.8827,-1.8827,-1.8827,-1.8827,-1.8827,-1.8827,-1.8827,-1.8827,-1.8843,-1.9018,-1.909,-1.9105,-1.9264,-1.9328,-1.9352,-1.9542,-1.9717,-1.9948,-2.0472,-2.0774,-2.0925,-2.0925,-2.0925,-2.0925,-2.0925,-2.0925,-2.0925,-2.0925,-2.0925,-2.0925,-2.0925,-2.0925,-2.0925,-2.0925,-2.0925,-2.0925,-2.0925,-2.0925,-2.0925,-2.0925,-2.0925,-2.0925,-2.0925,-2.0925,-2.0925,-2.0925,-2.0925,-2.0925,-2.0925,-2.0925,-2.0925,-2.0925,-2.0529,-2.032,-2.0309,-2.0113,-2.019,-2.045,-2.0633,-2.0874,-2.1203,-2.1211,-2.1211,-2.1211,-2.1211,-2.1211,-2.1211,-2.1211,-2.1211,0.0729,0.028,-0.0227,-0.0412,-0.0849,-0.1436,-0.2212,-0.312,0.0,0.0,-0.5588,-0.6711,-0.7749,0.0,0.0,0.0,0.0,0.0,0.0,0.0,0.0,0.0,0.0,0.0,0.0,0.0,0.0,0.0,-2.1843,-2.1751,-2.1751,-2.1092,-2.068,-2.0542,-1.987,-1.9387,-1.9188,-1.8912,-1.8827,-1.8827,-1.8827,-1.8827,-1.8827,-1.8827,-1.8827,-1.8827,-1.8827,-1.8827,-1.8827,-1.8827,-1.8827,-1.8827,-1.8827,-1.8827,-1.8827,-1.8827,-1.8827,-1.8867,-1.9153,-1.9312,-1.9471,-2.0083,-2.0519,-2.0821,-2.0901,-2.0925,-2.0925,-2.0925,-2.0925,-2.0925,-2.0925,-2.0925,-2.0925,-2.0925,-2.0925,-2.0925,-2.0925,-2.0925,-2.0925,-2.0925,-2.0925,-2.0925,-2.0925,-2.0925,-2.0925,-2.0925,-2.0925,-2.0925,-2.0925,-2.0925,-2.0925,-2.0925,-2.0925,-2.0925,-2.0925,-2.0617,-2.0411,-2.0086,-2.0197,-2.0215,-2.0223,-2.0545,-2.0874,-2.1203,-2.1211,-2.1211,-2.1211,-2.1211,-2.1211,-2.1211,-2.1211,-2.1211,0.0056,-0.0336,-0.1025,-0.182,-0.1847,-0.1889,-0.28,0.0,0.0,0.0,-0.6041,-0.7338,-0.8258,-0.9395,0.0,0.0,0.0,0.0,0.0,0.0,0.0,0.0,0.0,0.0,0.0,0.0,0.0,0.0,-2.1077,-2.0797,-2.0797,-2.0779,-2.0482,-1.992,-1.9546,-1.9155,-1.8856,-1.8804,-1.8827,-1.8827,-1.8827,-1.8827,-1.8827,-1.8827,-1.8827,-1.8827,-1.8827,-1.8827,-1.8827,-1.8827,-1.8827,-1.8827,-1.8827,-1.8827,-1.8827,-1.8827,-1.8827,-1.8835,-1.8867,-1.9098,-1.9431,-1.9797,-2.0154,-2.0504,-2.0821,-2.0925,-2.0925,-2.0925,-2.0925,-2.0925,-2.0925,-2.0925,-2.0925,-2.0925,-2.0925,-2.0925,-2.0925,-2.0925,-2.0925,-2.0925,-2.0925,-2.0925,-2.0925,-2.0925,-2.0925,-2.0925,-2.0925,-2.0925,-2.0925,-2.0925,-2.0925,-2.0925,-2.0925,-2.0925,-2.0925,-2.0617,-2.0411,-2.0086,-2.0197,-2.0215,-2.0223,-2.0545,-2.0874,-2.1203,-2.1211,-2.1211,-2.1211,-2.1211,-2.1211,-2.1211,-2.1211,-2.1211,-0.0654,-0.0833,-0.1203,-0.1946,-0.2155,-0.2452,-0.3518,0.0,0.0,-0.5247,-0.6616,-0.7934,-0.8746,-1.008,-1.1413,-1.2272,-1.3856,-1.5218,0.0,0.0,0.0,0.0,0.0,0.0,0.0,0.0,0.0,-2.0332,-2.0272,-2.0225,-1.9949,-2.0296,-2.0252,-1.9795,-1.9487,-1.918,-1.8796,-1.8819,-1.8827,-1.8827,-1.8827,-1.8827,-1.8827,-1.8827,-1.8827,-1.8827,-1.8827,-1.8827,-1.8827,-1.8827,-1.8827,-1.8827,-1.8827,-1.8827,-1.8827,-1.8827,-1.8827,-1.8827,-1.8827,-1.8923,-1.9137,-1.9685,-1.9963,-2.0178,-2.075,-2.0925,-2.0925,-2.0925,-2.0925,-2.0925,-2.0925,-2.0925,-2.0925,-2.0925,-2.0925,-2.0925,-2.0925,-2.0925,-2.0925,-2.0925,-2.0925,-2.0925,-2.0925,-2.0925,-2.0925,-2.0925,-2.0925,-2.0925,-2.0925,-2.0925,-2.0925,-2.0925,-2.0925,-2.0925,-2.0925,-2.0822,-2.0609,-2.0078,-2.0302,-2.0323,-2.0223,-2.0545,-2.0874,-2.1203,-2.1211,-2.1211,-2.1211,-2.1211,-2.1211,-2.1211,-2.1211,-2.1211,-0.1667,-0.1667,-0.1741,-0.2432,-0.2788,-0.3177,0.0,0.0,-0.5246,-0.6054,-0.7359,-0.8591,-0.9236,-1.0753,-1.2015,0.0,-1.4469,-1.5835,-1.6544,0.0,0.0,0.0,0.0,0.0,0.0,0.0,0.0,-1.935,-1.9592,-1.9485,-1.9037,-1.9625,-1.9903,-1.9629,-1.9304,-1.9004,-1.8827,-1.8827,-1.8827,-1.8827,-1.8827,-1.8827,-1.8827,-1.8827,-1.8827,-1.8827,-1.8827,-1.8827,-1.8827,-1.8827,-1.8827,-1.8827,-1.8827,-1.8827,-1.8827,-1.8827,-1.8827,-1.8827,-1.8827,-1.8827,-1.8939,-1.9638,-1.9868,-1.9995,-2.071,-2.0925,-2.0925,-2.0925,-2.0925,-2.0925,-2.0925,-2.0925,-2.0925,-2.0925,-2.0925,-2.0925,-2.0925,-2.0925,-2.0925,-2.0925,-2.0925,-2.0925,-2.0925,-2.0925,-2.0925,-2.0925,-2.0925,-2.0925,-2.0925,-2.0925,-2.0925,-2.0925,-2.0925,-2.0925,-2.0925,-2.0822,-2.0656,-2.0223,-2.0446,-2.0572,-2.0362,-2.0691,-2.0976,-2.1203,-2.1211,-2.1211,-2.1211,-2.1211,-2.1211,-2.1211,-2.1211,-2.1211,-0.3087,-0.2964,-0.2983,-0.3714,-0.3944,-0.4141,0.0,-0.5692,-0.6514,-0.7049,-0.8237,-0.9332,-0.9979,-1.1093,-1.2272,-1.3222,-1.4904,-1.6367,-1.7079,0.0,0.0,0.0,0.0,0.0,0.0,0.0,0.0,-1.8835,-1.8835,0.0,-1.8238,-1.8919,-1.9274,-1.918,-1.8964,-1.8772,-1.8827,-1.8827,-1.8827,-1.8827,-1.8827,-1.8827,-1.8827,-1.8827,-1.8827,-1.8827,-1.8827,-1.8827,-1.8827,-1.8827,-1.8827,-1.8827,-1.8827,-1.8827,-1.8827,-1.8827,-1.8827,-1.8827,-1.8827,-1.8827,-1.8939,-1.9638,-1.9868,-1.9995,-2.071,-2.0925,-2.0925,-2.0925,-2.0925,-2.0925,-2.0925,-2.0925,-2.0925,-2.0925,-2.0925,-2.0925,-2.0925,-2.0925,-2.0925,-2.0925,-2.0925,-2.0925,-2.0925,-2.0925,-2.0925,-2.0925,-2.0925,-2.0925,-2.0925,-2.0925,-2.0925,-2.0925,-2.0925,-2.0925,-2.0925,-2.0617,-2.0558,-2.0559,-2.058,-2.0589,-2.0706,-2.1035,-2.1203,-2.1211,-2.1211,-2.1211,-2.1211,-2.1211,-2.1211,-2.1211,-2.1211,-2.1211,-0.3918,-0.3918,-0.3946,-0.4599,-0.4857,-0.5227,-0.6161,-0.6721,-0.7186,-0.7897,-0.8955,-0.9979,-1.0622,-1.1927,-1.3363,-1.4494,-1.5908,0.0,0.0,0.0,0.0,0.0,0.0,0.0,0.0,0.0,-1.9405,-1.8356,-1.8234,-1.8135,-1.8009,-1.8588,-1.884,-1.8552,-1.8684,-1.8812,-1.8827,-1.8827,-1.8827,-1.8827,-1.8827,-1.8827,-1.8827,-1.8827,-1.8827,-1.8827,-1.8827,-1.8827,-1.8827,-1.8827,-1.8827,-1.8827,-1.8827,-1.8827,-1.8827,-1.8827,-1.8827,-1.8827,-1.8827,-1.8827,-1.8907,-1.9376,-1.9526,-1.9654,-2.0353,-2.0726,-2.0925,-2.0925,-2.0925,-2.0925,-2.0925,-2.0925,-2.0925,-2.0925,-2.0925,-2.0925,-2.0925,-2.0925,-2.0925,-2.0925,-2.0925,-2.0925,-2.0925,-2.0925,-2.0925,-2.0925,-2.0925,-2.0925,-2.0925,-2.0925,-2.0925,-2.0925,-2.0925,-2.0925,-2.0925,-2.0617,-2.0558,-2.0567,-2.058,-2.0589,-2.0706,-2.1035,-2.1211,-2.1211,-2.1211,-2.1211,-2.1211,-2.1211,-2.1211,-2.1211,-2.1211,-2.1211,0.0,-0.5235,-0.5326,-0.5835,-0.6191,-0.6572,-0.7367,-0.7851,-0.8248,-0.8827,-0.9823,-1.0789,-1.1421,-1.2756,-1.4162,-1.5397,-1.6756,0.0,0.0,0.0,0.0,0.0,0.0,0.0,0.0,0.0,-1.9919,-1.8809,-1.8591,-1.8415,-1.8056,-1.8361,-1.833,-1.8089,-1.8375,-1.8629,-1.8629,-1.8764,-1.8827,-1.8827,-1.8827,-1.8827,-1.8827,-1.8827,-1.8827,-1.8827,-1.8827,-1.8827,0.0,-1.8827,-1.8827,-1.8827,-1.8827,-1.8827,-1.8827,-1.8827,-1.8827,-1.8827,-1.8827,-1.8827,-1.8891,-1.9256,-1.9455,-1.9662,-2.0226,-2.0639,-2.0925,-2.0925,-2.0925,-2.0925,-2.0925,-2.0925,-2.0925,-2.0925,-2.0925,-2.0925,-2.0925,-2.0925,-2.0925,-2.0925,-2.0925,-2.0925,-2.0925,-2.0925,-2.0925,-2.0925,-2.0925,-2.0925,-2.0925,-2.0925,-2.0925,-2.0925,-2.0925,-2.0925,-2.0925,-2.0514,-2.05,-2.075,-2.0547,-2.0545,-2.0889,-2.1101,-2.1211,-2.1211,-2.1211,-2.1211,-2.1211,-2.1211,-2.1211,-2.1211,-2.1211,-2.1211,0.0,-0.7082,-0.707,-0.7513,-0.7807,-0.8176,-0.8553,-0.9015,0.0,-0.9922,-1.0768,-1.1599,-1.2301,-1.3592,-1.4867,-1.6041,-1.7556,0.0,0.0,0.0,0.0,0.0,0.0,0.0,0.0,-2.1339,-2.1006,-2.0072,-1.9818,-1.9245,-1.8406,-1.8283,-1.8034,-1.76,-1.7978,-1.8247,-1.8295,-1.8629,-1.8804,-1.8827,-1.8827,-1.8827,-1.8827,-1.8827,-1.8827,-1.8827,-1.8827,-1.8827,-1.8827,-1.8827,-1.8827,-1.8827,-1.8827,-1.8827,-1.8827,-1.8827,-1.8827,-1.8827,-1.8827,-1.8827,-1.8883,-1.9225,-1.9558,-1.9892,-2.0218,-2.0583,-2.0893,-2.0909,-2.0925,-2.0925,-2.0925,-2.0925,-2.0925,-2.0925,-2.0925,-2.0925,-2.0925,-2.0925,-2.0925,-2.0925,-2.0925,-2.0925,-2.0925,-2.0925,-2.0925,-2.0925,-2.0925,-2.0925,-2.0925,-2.0925,-2.0925,-2.0925,-2.0925,-2.0925,-2.0925,-2.0395,-2.0376,-2.1055,-2.0557,-2.053,-2.1181,-2.1211,-2.1211,-2.1211,-2.1211,-2.1211,-2.1211,-2.1211,-2.1211,-2.1211,-2.1211,-2.1211,-1.0686,0.0,-0.8876,-0.9201,-0.9363,-0.9599,0.0,-1.0398,0.0,0.0,0.0,-1.2698,-1.3166,-1.4735,-1.629,-1.765,-1.8804,0.0,0.0,0.0,0.0,0.0,0.0,0.0,0.0,-2.2453,-2.2008,-2.1438,-2.0512,-1.9683,-1.9058,-1.8321,-1.7858,-1.7592,-1.76,-1.7771,-1.8295,-1.8383,-1.8557,-1.8827,-1.8827,-1.8827,-1.8827,-1.8827,-1.8827,-1.8827,-1.8827,-1.8827,-1.8827,-1.8827,-1.8827,-1.8827,-1.8827,-1.8827,-1.8827,-1.8827,-1.8827,-1.8827,-1.8827,-1.8827,-1.8843,-1.8931,-1.9201,-1.9503,-1.9582,-2.0035,-2.0575,-2.0845,-2.0925,-2.0925,-2.0925,-2.0925,-2.0925,-2.0925,-2.0925,-2.0925,-2.0925,-2.0925,-2.0925,-2.0925,-2.0925,-2.0925,-2.0925,-2.0925,-2.0925,-2.0925,-2.0925,-2.0925,-2.0925,-2.0925,-2.0925,-2.0925,-2.0925,-2.0925,-2.0925,-2.0395,-2.0376,-2.1055,-2.0557,-2.053,-2.1181,-2.1211,-2.1211,-2.1211,-2.1211,-2.1211,-2.1211,-2.1211,-2.1211,-2.1211,-2.1211,-2.1211,-1.2526,-1.1478,-1.0491,-1.0706,-1.0742,-1.0857,-1.1224,0.0,0.0,0.0,0.0,0.0,-1.4216,0.0,0.0,0.0,-1.9557,0.0,0.0,0.0,0.0,0.0,0.0,0.0,0.0,-2.2644,-2.2413,-2.1935,-2.1018,-2.0209,-1.945,-1.8532,-1.7946,-1.7523,-1.7191,-1.7358,-1.8049,-1.8216,-1.8478,-1.8827,-1.8827,-1.8827,-1.8827,-1.8827,-1.8827,-1.8827,-1.8827,-1.8827,-1.8827,-1.8827,-1.8827,-1.9012,-1.9012,-1.9012,-1.9204,-1.9204,-1.9204,-1.9112,-1.9012,-1.892,-1.8827,-1.8827,-1.8962,-1.9153,-1.932,-1.963,-2.0027,-2.0535,-2.0798,-2.0925,-2.0925,-2.0925,-2.0925,-2.0925,-2.0925,-2.0925,-2.0925,-2.0925,-2.0925,-2.0925,-2.0925,-2.0925,-2.0925,-2.0925,-2.0925,-2.0925,-2.0925,-2.0925,-2.0925,-2.0925,-2.0925,-2.0925,-2.0925,-2.0925,-2.0925,-2.0395,-2.0307,-2.0834,-2.0476,-2.0464,-2.0969,-2.113,-2.1211,-2.1211,-2.1211,-2.1211,-2.1211,-2.1081,-2.0967,-2.0967,-2.0852,-2.0744,-1.3564,-1.2854,-1.2142,-1.2068,-1.21,-1.2208,0.0,0.0,0.0,0.0,0.0,0.0,0.0,0.0,0.0,0.0,0.0,0.0,0.0,0.0,0.0,0.0,0.0,0.0,-2.2063,-2.241,-2.2312,-2.1742,-2.123,-2.0494,-1.9498,-1.8676,-1.7962,-1.74,-1.6902,-1.7048,-1.7691,-1.8041,-1.8398,-1.8748,-1.8804,-1.8827,-1.8827,-1.8827,-1.8827,-1.8827,-1.8827,0.0,-1.8827,-1.892,-1.9012,-1.9279,-1.9279,-1.9387,-1.9587,-1.9587,-1.9587,-1.9587,-1.9288,-1.9004,-1.8827,-1.8827,-1.8827,-1.8883,-1.9193,-1.9328,-1.9503,-2.0138,-2.0567,-2.0853,-2.0909,-2.0925,-2.0925,-2.0925,-2.0925,-2.0925,-2.0925,-2.0925,-2.0925,-2.0925,-2.0925,-2.0925,-2.0925,-2.0925,-2.0925,-2.0925,-2.0925,-2.0925,-2.0925,-2.0925,-2.0925,-2.0925,-2.0925,-2.0925,-2.0925,-2.0395,-2.02,-2.049,-2.0297,-2.0333,-2.0706,-2.1035,-2.1211,-2.1211,-2.1203,-2.1089,-2.1089,-2.073,-2.0601,-2.0601,-2.0263,-2.0155,-1.3992,-1.405,-1.4104,-1.3722,-1.3856,-1.405,0.0,0.0,0.0,0.0,0.0,0.0,0.0,0.0,0.0,0.0,0.0,0.0,0.0,0.0,0.0,0.0,0.0,-2.2064,-2.1834,-2.1742,-2.1551,-2.1075,-2.0447,-1.9696,-1.8914,-1.8189,-1.7596,-1.7139,-1.6894,-1.6937,-1.735,-1.7683,-1.8033,-1.8383,-1.8684,-1.8827,-1.8827,-1.8827,-1.8827,-1.8827,0.0,-1.9096,-1.9196,-1.9396,-1.9487,-1.9587,-1.9587,-1.9587,-1.9587,-1.9587,-1.9587,-1.9587,-1.9288,-1.9188,-1.9096,-1.8827,-1.8827,-1.8835,-1.8899,-1.9129,-1.9455,-1.9836,-2.0202,-2.0543,-2.0845,-2.0925,-2.0925,-2.0925,-2.0925,-2.0925,-2.0925,-2.0925,-2.0925,-2.0925,-2.0925,-2.0925,-2.0925,-2.0925,-2.0925,-2.0925,-2.0925,-2.0925,-2.0925,-2.0925,-2.0925,-2.0925,-2.0925,-2.0925,-2.0925,-2.0395,-2.0101,-2.0155,-1.9963,-2.0098,-2.0698,-2.1035,-2.1211,-2.1211,-2.096,-2.0838,-2.0723,-2.027,-1.9924,-1.9924,-1.9564,-1.9441,-1.5299,-1.5618,-1.587,-1.5896,-1.5459,-1.4972,0.0,0.0,0.0,0.0,0.0,0.0,0.0,0.0,0.0,0.0,0.0,0.0,0.0,0.0,0.0,0.0,0.0,-2.1883,-2.1655,-2.1578,-2.1272,-2.0644,-2.0177,-1.946,-1.8496,-1.8023,-1.7538,-1.7131,-1.6812,-1.6818,-1.6984,-1.7334,-1.7771,-1.8295,-1.8462,-1.8645,-1.8827,-1.8912,-1.9004,-1.9012,0.0,-1.9387,-1.9387,-1.9579,-1.9671,-1.9754,-1.9754,-1.9936,-2.0209,-2.0209,-2.0027,-1.9754,-1.9654,-1.9479,-1.9396,-1.9304,-1.9212,-1.9212,-1.9212,-1.9225,-1.9333,-1.9678,-2.0077,-2.048,-2.0829,-2.0925,-2.0925,-2.0925,-2.0925,-2.0925,-2.0925,-2.0925,-2.0925,-2.0925,-2.0925,-2.0925,-2.0925,-2.0925,-2.0925,-2.0925,-2.0925,-2.0925,-2.0925,-2.0925,-2.0925,-2.0925,-2.0925,-2.0925,-2.0925,-2.0395,-2.0059,-1.9934,-1.9942,-2.023,-2.0706,-2.08,-2.096,-2.096,-2.05,-2.0141,-1.9903,-1.9339,-1.8997,-1.8758,-1.8519,-1.8292,-1.646,-1.6776,-1.7147,-1.7519,0.0,0.0,0.0,0.0,0.0,0.0,0.0,0.0,0.0,0.0,0.0,0.0,0.0,0.0,0.0,-2.234,-2.2201,-2.1849,-2.1807,-2.1731,-2.1512,-2.1349,-2.0964,-2.0177,-1.969,-1.9043,-1.8175,-1.7696,-1.7293,-1.7057,-1.6812,-1.673,-1.673,-1.7008,-1.7461,-1.8057,-1.8144,-1.8359,-1.87,-1.8983,-1.9115,-1.9188,-1.9579,-1.9679,-1.9762,-1.9853,-1.9936,-2.0201,-2.0201,-2.0374,-2.0736,-2.0736,-2.0464,-2.011,-2.0019,-1.9845,-1.9671,-1.9587,-1.9587,-1.9587,-1.9587,-1.9387,-1.9269,-1.9625,-1.9942,-2.0281,-2.0694,-2.0861,-2.0925,-2.0925,-2.0925,-2.0925,-2.0925,-2.0925,-2.0925,-2.0925,-2.0925,-2.0925,-2.0925,-2.0925,-2.0925,-2.0925,-2.0925,-2.0925,-2.0925,-2.0925,-2.0925,-2.0925,-2.0925,-2.0814,-2.0609,-2.0189,-1.9814,-1.9626,-1.9954,-2.0237,-2.0492,-2.0523,-2.0493,-2.0493,-1.9809,-1.9339,-1.8978,-1.8292,-1.7824,-1.7461,-1.7244,-1.7015,-1.6821,-1.7202,-1.7574,-1.7956,0.0,0.0,0.0,0.0,0.0,0.0,0.0,0.0,0.0,0.0,0.0,0.0,0.0,0.0,-2.2433,0.0,-2.1849,-2.1807,-2.1807,-2.1731,-2.1512,-2.0954,-2.0401,-1.9678,-1.8623,-1.7804,-1.7456,-1.691,-1.6637,-1.6722,-1.673,-1.673,-1.673,-1.6762,-1.6969,-1.7358,-1.766,-1.7993,-1.8335,-1.862,-1.8896,-1.9188,-1.9654,-2.0019,-2.0292,-2.0564,-2.0736,-2.0907,-2.0907,-2.0907,-2.0997,-2.0997,-2.0826,-2.0654,-2.0382,-2.011,-1.9845,-1.9671,-1.9587,-1.9587,-1.9587,-1.9387,-1.9269,-1.9625,-1.9558,-1.962,-2.0281,-2.0678,-2.0925,-2.0925,-2.0925,-2.0925,-2.0925,-2.0925,-2.0925,-2.0925,-2.0925,-2.0925,-2.0925,-2.0925,-2.0925,-2.0925,-2.0925,-2.0925,-2.0925,-2.0925,-2.0925,-2.0925,-2.0925,-2.0609,-1.9887,-1.948,-1.9201,-1.8977,-1.9519,-1.9821,-1.9843,-1.9849,-1.9809,-1.9809,-1.9004,-1.8298,-1.8046,-1.712,-1.6532,-1.6177,-1.5946,-1.572,-1.8278,-1.8758,0.0,0.0,0.0,0.0,0.0,0.0,0.0,0.0,0.0,0.0,0.0,0.0,0.0,0.0,0.0,0.0,-2.2108,-2.1921,-2.1807,-2.1807,-2.1807,-2.1655,-2.1359,-2.0876,-2.0255,-1.9301,-1.8523,-1.7869,-1.7212,-1.7009,-1.6839,-1.673,-1.673,-1.673,-1.673,-1.673,-1.6884,-1.7185,-1.754,-1.7895,-1.8161,-1.883,-1.9181,-1.9322,-2.0099,-2.0473,-2.0564,-2.0826,-2.0907,-2.0997,-2.1195,-2.1186,-2.0997,-2.1195,-2.1105,-2.0907,-2.0727,-2.0637,-2.0555,-2.0464,-2.0382,-2.03,-2.03,-2.0019,-1.9679,-1.9611,-1.9568,-1.9758,-2.0218,-2.053,-2.0672,-2.0814,-2.0925,-2.0925,-2.0925,-2.0925,-2.0925,-2.0925,-2.0925,-2.0925,-2.0925,-2.0925,-2.0925,-2.0925,-2.0925,-2.0925,-2.0925,-2.0719,-2.0617,-2.0617,-2.0308,-1.9783,-1.8945,-1.8848,-1.8555,-1.8111,-1.8748,-1.9223,-1.9291,-1.9017,-1.8881,-1.8635,-1.7707,-1.712,-1.6762,-1.6059,-1.5472,-1.5121,-1.5007,-1.5007,-1.9565,-1.994,-2.0276,0.0,0.0,0.0,0.0,0.0,0.0,0.0,0.0,0.0,0.0,0.0,0.0,0.0,0.0,-2.217,-2.1849,-2.1807,-2.1807,-2.1807,-2.1731,-2.1578,-2.1118,-2.0644,-1.9854,-1.8834,-1.8231,-1.7574,-1.7049,-1.6863,-1.6774,-1.673,-1.673,-1.673,-1.673,-1.673,-1.6812,-1.7139,-1.7391,-1.7758,-1.8221,-1.8912,-1.9419,-1.9737,-2.0361,-2.0744,-2.0934,-2.1105,-2.1186,-2.1275,-2.1383,-2.1374,-2.1275,-2.1472,-2.1383,-2.1096,-2.1096,-2.1087,-2.0997,-2.0997,-2.0826,-2.0744,-2.0744,-2.0292,-1.9837,-1.9629,-1.9551,-1.9628,-2.0021,-2.0145,-2.0366,-2.0649,-2.0696,-2.075,-2.0893,-2.0925,-2.0925,-2.0925,-2.0925,-2.0917,-2.0822,-2.0822,-2.0719,-2.0712,-2.0609,-2.0506,-2.0506,-2.0308,-2.0101,-1.999,-1.9465,-1.8833,-1.8101,-1.7786,-1.7423,-1.7148,-1.7461,-1.7914,-1.8304,-1.8024,-1.7707,-1.7349,-1.6532,-1.5941,-1.5585,-1.5116,-1.4644,-1.4291,-1.4291,-1.4291,-2.032,-2.0636,0.0,0.0,0.0,0.0,0.0,0.0,0.0,0.0,0.0,0.0,0.0,0.0,0.0,-2.249,-2.2108,-2.1807,-2.1807,-2.1807,-2.1807,-2.1807,-2.1655,-2.1349,-2.0944,-2.0079,-1.9204,-1.8336,-1.7443,-1.6844,-1.6714,-1.6397,-1.6373,-1.6722,-1.673,-1.673,-1.673,-1.673,-1.6812,-1.7139,-1.731,-1.7771,-1.8456,-1.874,-1.9318,-2.0283,-2.0564,-2.0934,-2.1392,-2.1392,-2.1482,-2.1741,-2.1741,-2.1741,-2.1741,-2.1741,-2.1562,-2.1392,-2.1392,-2.1195,-2.0997,-2.0997,-2.0916,-2.0744,-2.0744,-2.0292,-1.9837,-1.9671,-1.942,-1.9241,-1.9383,-1.966,-1.9967,-2.0311,-2.0427,-2.0468,-2.0821,-2.0917,-2.0925,-2.0925,-2.0925,-2.0822,-2.0522,-2.0522,-2.0411,-2.0189,-1.9879,-1.968,-1.968,-1.948,-1.916,-1.8826,-1.8304,-1.7772,-1.7134,-1.6305,-1.6006,-1.6198,-1.5654,-1.5762,-1.693,-1.6628,-1.6419,-1.6059,-1.5467,-1.4873,-1.4629,-1.4286,-1.4052,-1.3688,-1.3688,-1.3688,-2.0905,-2.1213,0.0,0.0,0.0,0.0,0.0,0.0,0.0,0.0,0.0,0.0,0.0,0.0,0.0,-2.2014,-2.189,-2.1807,-2.1807,-2.1807,-2.1731,-2.1578,-2.1436,-2.1051,-2.0489,-1.9854,-1.9063,-1.8112,-1.7527,-1.7114,-1.673,-1.6635,-1.6627,-1.673,-1.673,-1.673,-1.673,-1.6894,-1.7057,-1.731,-1.7546,-1.7817,-1.8135,-1.8922,-1.954,-1.9965,-2.0793,-2.1302,-2.1392,-2.1571,-2.1651,-2.1741,-2.1741,-2.1741,-2.1741,-2.1741,-2.1651,-2.1651,-2.1651,-2.1553,-2.1463,-2.1463,-2.1383,-2.1114,-2.1006,-2.0736,-2.0382,-1.972,-1.9579,-1.9369,-1.9063,-1.9012,-1.9281,-1.9905,-2.0249,-2.0384,-2.0519,-2.0742,-2.0925,-2.0925,-2.0925,-2.0822,-2.0522,-2.03,-2.0086,-1.9879,-1.9354,-1.893,-1.8513,-1.8415,-1.8206,-1.7694,-1.7364,-1.6829,-1.6305,-1.5672,-1.5172,-1.5061,-1.4783,-1.5047,-1.6032,-1.566,-1.5353,-1.5002,-1.465,-1.4406,-1.4286,-1.4047,-1.3808,-1.3688,-1.3688,-1.3688,-2.1559,0.0,0.0,0.0,0.0,0.0,0.0,0.0,0.0,0.0,0.0,0.0,0.0,0.0,0.0,-2.1807,-2.1807,-2.1807,-2.1807,-2.1731,-2.1578,-2.1425,-2.1051,-2.0576,-1.9942,-1.9301,-1.8585,-1.7797,-1.7473,-1.7147,-1.673,-1.673,-1.673,-1.673,-1.673,-1.673,-1.6894,-1.7057,-1.7221,-1.7546,-1.7546,-1.7708,-1.8066,-1.8987,-1.9677,-2.0128,-2.1033,-2.1392,-2.1392,-2.1374,-2.1454,-2.1454,-2.1454,-2.1463,-2.1562,-2.1562,-2.1651,-2.1741,-2.1741,-2.1651,-2.1562,-2.1562,-2.1383,-2.1114,-2.0916,-2.0736,-2.0374,-1.9795,-1.9563,-1.942,-1.8843,-1.8558,-1.8691,-1.9534,-1.9932,-2.0218,-2.0361,-2.067,-2.0925,-2.0925,-2.0822,-2.0617,-2.0205,-1.9879,-1.9457,-1.9056,-1.8527,-1.7996,-1.7569,-1.7463,-1.7364,-1.6855,-1.6418,-1.5992,-1.5571,-1.4821,-1.4277,-1.4182,-1.3964,-1.4129,-1.4724,-1.4713,-1.4525,-1.4291,-1.4052,-1.4052,-1.4052,-1.3808,-1.3688,-1.3688,-1.3688,-1.3688,0.0,0.0,0.0,0.0,0.0,0.0,0.0,0.0,0.0,0.0,0.0,0.0,0.0,-2.1807,-2.1807,-2.1807,-2.1807,-2.1807,-2.1807,-2.1655,-2.1436,-2.1205,-2.0576,-1.9942,-1.9301,-1.8674,-1.8031,-1.7392,-1.7221,-1.6976,-1.673,-1.6706,-1.6683,-1.6683,-1.6683,-1.6764,-1.7009,-1.7041,-1.7294,-1.7619,-1.7473,-1.7554,-1.7985,-1.8785,-1.9609,-2.0465,-2.1132,-2.1392,-2.1302,-2.1096,-2.0997,-2.0997,-2.0907,-2.1105,-2.1302,-2.1302,-2.1472,-2.1642,-2.1651,-2.1562,-2.1392,-2.1392,-2.1114,-2.0736,-2.0744,-2.0564,-2.0184,-1.9704,-1.9646,-1.9404,-1.8666,-1.828,-1.8256,-1.9052,-1.9478,-1.9818,-2.0166,-2.0522,-2.0783,-2.0814,-2.0617,-2.0205,-1.968,-1.9146,-1.852,-1.7911,-1.7384,-1.6961,-1.663,-1.6624,-1.6524,-1.6324,-1.5779,-1.5351,-1.5035,-1.3964,-1.3401,-1.3593,-1.3276,-1.3154,-1.3353,-1.3931,-1.4052,-1.3688,-1.3688,-1.3688,-1.3688,-1.3688,-1.3688,-1.3688,-1.3688,-1.3688,0.0,0.0,0.0,0.0,0.0,0.0,0.0,0.0,0.0,0.0,0.0,0.0,-2.1807,-2.1807,-2.1807,-2.1807,-2.1807,-2.1807,-2.1807,-2.1655,-2.1272,-2.0799,-2.0167,-1.945,-1.8674,-1.8103,-1.7619,-1.7221,-1.7139,-1.6976,-1.673,-1.6468,-1.6317,-1.6317,-1.6317,-1.6245,-1.6173,-1.6758,-1.7057,-1.6894,-1.7057,-1.7221,-1.731,-1.8104,-1.9085,-2.0263,-2.0829,-2.1096,-2.1096,-2.0826,-2.0736,-2.0736,-2.0555,-2.0654,-2.0843,-2.0843,-2.1006,-2.1186,-2.1383,-2.1293,-2.1096,-2.1302,-2.1186,-2.0881,-2.0736,-2.0628,-2.0512,-1.9828,-1.9596,-1.9336,-1.8465,-1.8179,-1.8009,-1.7601,-1.8058,-1.8677,-1.9018,-1.946,-1.989,-1.9937,-1.9887,-1.9672,-1.9146,-1.8527,-1.7799,-1.6855,-1.6537,-1.643,-1.6105,-1.6099,-1.6105,-1.5998,-1.5464,-1.5035,-1.5041,-1.3964,-1.3335,-1.3381,-1.3199,-1.3088,-1.3136,-1.3613,-1.3808,-1.3688,-1.3688,-1.3688,-1.3688,-1.3688,-1.3688,-1.3688,-1.3688,-1.3688,0.0,0.0,0.0,0.0,0.0,0.0,0.0,0.0,0.0,0.0,0.0,0.0,-2.1807,-2.1807,-2.1807,-2.1807,-2.1807,-2.1807,-2.1655,-2.1425,-2.0954,-2.0333,-1.9618,-1.8895,-1.8103,-1.77,-1.7294,-1.6894,-1.6894,-1.6812,-1.6738,-1.6397,-1.6206,-1.6206,-1.5968,-1.589,-1.6055,-1.6236,-1.6401,-1.6566,-1.6476,-1.6394,-1.6319,-1.7589,-1.8658,-1.963,-2.0093,-2.0292,-2.0464,-2.0102,-2.0011,-1.992,-1.9646,-1.9737,-2.0011,-2.0102,-2.0275,-2.0538,-2.0925,-2.0925,-2.0736,-2.1024,-2.0826,-2.0439,-2.0374,-2.0175,-1.9894,-1.9312,-1.9144,-1.8843,-1.7994,-1.7621,-1.734,-1.6581,-1.7289,-1.8052,-1.8118,-1.8743,-1.9145,-1.9096,-1.9051,-1.8945,-1.8311,-1.7687,-1.6961,-1.6211,-1.6111,-1.6105,-1.5891,-1.5891,-1.5891,-1.5684,-1.5256,-1.4928,-1.4821,-1.3856,-1.336,-1.3462,-1.3228,-1.3112,-1.3216,-1.3523,-1.3688,-1.3688,-1.3688,-1.3688,-1.3688,-1.3688,-1.3688,-1.3688,-1.3688,-1.3688,0.0,0.0,0.0,0.0,0.0,0.0,0.0,0.0,0.0,0.0,0.0,-2.1807,-2.1807,-2.1807,-2.1807,-2.1807,-2.1818,-2.1741,-2.1512,-2.1031,-2.0469,-1.9863,-1.9063,-1.8345,-1.77,-1.7212,-1.6976,-1.673,-1.673,-1.673,-1.673,-1.6341,-1.6111,-1.6039,-1.5552,-1.5436,-1.5787,-1.5541,-1.5572,-1.5973,-1.5703,-1.5401,-1.5325,-1.6849,-1.7928,-1.8635,-1.8974,-1.9304,-1.9555,-1.919,-1.9039,-1.9004,-1.8827,-1.8819,-1.9004,-1.9279,-1.9538,-1.9712,-2.0275,-2.0374,-2.0201,-2.0564,-2.0292,-1.9928,-1.9853,-1.9571,-1.9112,-1.8783,-1.8582,-1.8257,-1.7419,-1.7066,-1.6791,-1.5927,-1.6594,-1.7469,-1.7216,-1.7881,-1.8412,-1.8157,-1.8102,-1.7996,-1.7477,-1.6743,-1.6217,-1.5891,-1.5891,-1.5891,-1.5891,-1.5891,-1.5791,-1.5482,-1.5154,-1.4928,-1.46,-1.3856,-1.3406,-1.3623,-1.3286,-1.3164,-1.3381,-1.358,-1.3688,-1.3688,-1.3688,-1.3688,-1.3688,-1.3688,-1.3688,-1.3688,-1.3688,-1.3688,0.0,0.0,0.0,0.0,0.0,0.0,0.0,0.0,0.0,0.0,-2.1807,-2.1807,-2.1807,-2.1807,-2.1807,-2.1807,-2.1772,-2.164,-2.1282,-2.0634,-1.9913,-1.9231,-1.8514,-1.787,-1.7212,-1.6894,-1.673,-1.673,-1.673,-1.673,-1.673,-1.6111,-1.5676,-1.5537,-1.4965,-1.4509,-1.4023,-1.4285,-1.4338,-1.4342,-1.4691,-1.4817,-1.4817,-1.5293,-1.601,-1.697,-1.7526,-1.8033,-1.8457,-1.8277,-1.836,-1.8542,-1.8272,-1.8179,-1.8272,-1.8542,-1.8619,-1.8703,-1.9455,-1.9729,-1.9737,-2.0201,-2.0292,-2.0218,-1.9754,-1.9453,-1.9036,-1.8373,-1.8179,-1.7893,-1.6958,-1.6878,-1.6697,-1.5458,-1.5484,-1.5856,-1.6109,-1.6526,-1.6941,-1.7012,-1.6971,-1.6842,-1.6537,-1.643,-1.6217,-1.5891,-1.5891,-1.5891,-1.5891,-1.5891,-1.5791,-1.5482,-1.5154,-1.4928,-1.46,-1.3856,-1.3406,-1.3623,-1.3286,-1.3164,-1.3381,-1.358,-1.3688,-1.3688,-1.3688,-1.3688,-1.3688,-1.3688,-1.3688,-1.3688,-1.3688,-1.3688,0.0,0.0,0.0,0.0,0.0,0.0,0.0,0.0,0.0,0.0,-2.1983,-2.1807,-2.1807,-2.1807,-2.1731,-2.1655,-2.1737,-2.1527,-2.0829,-2.0089,-1.9371,-1.8665,-1.8031,-1.7554,-1.7131,-1.6894,-1.673,-1.673,-1.673,-1.6561,-1.6283,-1.5725,-1.5211,-1.4797,-1.4164,-1.371,-1.3514,-1.3488,-1.3482,-1.3634,-1.385,-1.4081,-1.4328,-1.4503,-1.5092,-1.607,-1.6462,-1.6893,-1.7316,-1.7229,-1.7212,-1.736,-1.7461,-1.7441,-1.7535,-1.79,-1.7986,-1.7878,-1.8719,-1.8996,-1.908,-1.9729,-1.9928,-1.9853,-1.9629,-1.9144,-1.8465,-1.78,-1.7426,-1.7052,-1.6298,-1.6312,-1.6319,-1.5369,-1.5172,-1.5204,-1.5023,-1.5569,-1.6108,-1.6253,-1.6237,-1.6205,-1.6105,-1.6111,-1.5998,-1.5891,-1.5891,-1.5891,-1.5684,-1.569,-1.547,-1.5041,-1.4821,-1.4606,-1.418,-1.364,-1.3297,-1.3396,-1.3067,-1.2994,-1.3202,-1.3291,-1.3339,-1.3339,-1.357,-1.3688,-1.3688,-1.3688,-1.3688,-1.3688,-1.3688,-1.3688,0.0,0.0,0.0,0.0,0.0,0.0,0.0,0.0,0.0,0.0,-2.2128,-2.1807,-2.1807,-2.1807,-2.1731,-2.1502,-2.1584,-2.1296,-2.0264,-1.9335,-1.8612,-1.8095,-1.7627,-1.7229,-1.7057,-1.6812,-1.6656,-1.6648,-1.6574,-1.6335,-1.5743,-1.5169,-1.4605,-1.4118,-1.3357,-1.2931,-1.2934,-1.2636,-1.2661,-1.3017,-1.316,-1.3513,-1.3975,-1.4055,-1.4549,-1.5269,-1.5426,-1.5778,-1.6191,-1.6163,-1.6266,-1.6437,-1.6672,-1.6814,-1.6972,-1.7441,-1.7434,-1.7333,-1.8172,-1.8442,-1.8527,-1.9271,-1.9563,-1.9679,-1.9504,-1.8843,-1.8079,-1.7426,-1.6864,-1.6393,-1.5825,-1.5832,-1.5838,-1.5178,-1.4987,-1.4904,-1.4485,-1.4912,-1.5451,-1.5725,-1.5822,-1.5891,-1.5891,-1.5891,-1.5891,-1.5891,-1.5891,-1.5684,-1.5482,-1.5482,-1.5154,-1.4713,-1.4498,-1.4283,-1.3748,-1.3423,-1.3188,-1.3179,-1.2986,-1.2857,-1.306,-1.3065,-1.3065,-1.3065,-1.3372,-1.3556,-1.3613,-1.3665,-1.3688,-1.3688,-1.3688,-1.3688,0.0,0.0,0.0,0.0,0.0,0.0,0.0,0.0,0.0,0.0,-2.2128,-2.1807,-2.1807,-2.1807,-2.1731,-2.1502,-2.1389,-2.0848,-1.9766,-1.8426,-1.7523,-1.7456,-1.7221,-1.6976,-1.6738,-1.6738,-1.6648,-1.6394,-1.6245,-1.5934,-1.535,-1.4547,-1.3917,-1.3445,-1.2757,-1.2164,-1.18,-1.1624,-1.1778,-1.2286,-1.2737,-1.3238,-1.3674,-1.3961,-1.4095,-1.4193,-1.4426,-1.476,-1.531,-1.5245,-1.5602,-1.6225,-1.6239,-1.6422,-1.6683,-1.7145,-1.7153,-1.7167,-1.79,-1.8265,-1.8542,-1.9096,-1.9554,-1.9754,-1.9345,-1.8851,-1.8156,-1.7254,-1.6588,-1.6096,-1.5635,-1.5439,-1.5343,-1.4879,-1.4688,-1.4666,-1.474,-1.4902,-1.5167,-1.5445,-1.571,-1.5891,-1.5891,-1.5891,-1.5891,-1.5891,-1.569,-1.5482,-1.5482,-1.5261,-1.4928,-1.46,-1.4385,-1.4062,-1.3753,-1.3207,-1.2969,-1.3179,-1.2986,-1.2857,-1.306,-1.3065,-1.3065,-1.3065,-1.3088,-1.3202,-1.3405,-1.3599,-1.3688,-1.3688,-1.3688,-1.3688,0.0,0.0,0.0,0.0,0.0,0.0,0.0,0.0,0.0,-2.3422,-2.278,-2.2252,-2.2252,-2.2004,-2.1655,-2.1359,-2.0886,-2.0167,-1.9301,-1.8089,-1.7268,-1.7212,-1.6976,-1.6812,-1.6738,-1.6566,-1.6402,-1.6245,-1.5824,-1.5256,-1.4417,-1.3873,-1.3192,-1.2553,-1.2136,-1.1781,-1.1484,-1.1358,-1.1587,-1.2164,-1.2539,-1.3056,-1.3572,-1.3948,-1.4088,-1.4088,-1.4166,-1.4311,-1.4504,-1.4695,-1.4906,-1.5137,-1.5714,-1.6111,-1.6401,-1.7066,-1.7333,-1.752,-1.7994,-1.8265,-1.8527,-1.8819,-1.9296,-1.9671,-1.9504,-1.912,-1.8442,-1.7426,-1.6669,-1.6008,-1.5452,-1.5267,-1.507,-1.4783,-1.4592,-1.4473,-1.466,-1.492,-1.5185,-1.5445,-1.571,-1.5891,-1.5891,-1.5891,-1.5891,-1.5891,-1.5684,-1.5374,-1.5261,-1.4821,-1.439,-1.4072,-1.3743,-1.3527,-1.3207,-1.2989,-1.2801,-1.2655,-1.2554,-1.2587,-1.2658,-1.2663,-1.2663,-1.2663,-1.28,-1.3046,-1.3391,-1.3462,-1.3566,-1.3688,-1.3688,-1.3688,0.0,0.0,0.0,0.0,0.0,0.0,0.0,0.0,-2.3877,-2.3877,-2.3143,-2.2501,-2.2501,-2.2242,-2.184,-2.1312,-2.0547,-1.9835,-1.8984,-1.7883,-1.7147,-1.6968,-1.6812,-1.673,-1.673,-1.6484,-1.6154,-1.5914,-1.5401,0.0,-1.3615,-1.3107,-1.2525,-1.1726,-1.1558,-1.1409,-1.1335,-1.1186,-1.1433,-1.2012,-1.2393,-1.2907,-1.3507,-1.3908,-1.4088,-1.4088,-1.4088,-1.4088,-1.4102,-1.4295,-1.4436,-1.4569,-1.5251,-1.5769,-1.6246,-1.7115,-1.7606,-1.7885,-1.8172,-1.845,-1.8535,-1.8727,-1.9112,-1.9487,-1.9487,-1.9112,-1.8643,-1.7707,-1.6857,-1.6197,-1.5356,-1.4981,-1.479,-1.4592,-1.4394,-1.4395,-1.4769,-1.4986,-1.5185,-1.5445,-1.571,-1.5891,-1.5891,-1.5891,-1.5891,-1.5891,-1.5577,-1.5261,-1.5035,-1.439,-1.3959,-1.3748,-1.3423,-1.3098,-1.2881,-1.2772,-1.2659,-1.2441,-1.2441,-1.2441,-1.2441,-1.2441,-1.2441,-1.2441,-1.2583,-1.2833,-1.3183,-1.3249,-1.3386,-1.3589,-1.3589,-1.3622,0.0,0.0,0.0,0.0,0.0,0.0,0.0,0.0,-2.3877,-2.3877,-2.3163,-2.2532,-2.2532,-2.2532,-2.222,-2.1393,-2.0596,-1.9794,-1.8851,-1.7836,-1.709,-1.6746,-1.6754,-1.6746,-1.673,-1.6327,-1.5914,-1.5401,-1.4727,-1.3966,-1.2969,-1.2466,-1.1895,-1.1129,-1.1111,-1.1111,-1.1111,-1.1111,-1.1267,-1.1726,-1.2298,-1.2816,-1.324,-1.3821,-1.4088,-1.4088,-1.4088,-1.4088,-1.4088,-1.4088,-1.4255,-1.4536,-1.4836,-1.5486,-1.6232,-1.7279,-1.7878,-1.8179,-1.8643,-1.8827,-1.8827,-1.8827,-1.9012,-1.9188,-1.9188,-1.9004,-1.8643,-1.7908,-1.7153,-1.6393,-1.5629,-1.4867,-1.4298,-1.4298,-1.4298,-1.4443,-1.498,-1.5101,-1.5185,-1.5457,-1.5716,-1.5891,-1.5891,-1.5891,-1.5891,-1.5891,-1.5357,-1.5041,-1.5035,-1.418,-1.364,-1.364,-1.3207,-1.2881,-1.2881,-1.255,-1.2441,-1.2441,-1.2441,-1.2441,-1.2441,-1.2441,-1.2441,-1.2441,-1.2441,-1.2545,-1.2758,-1.2961,-1.3173,-1.3391,-1.3395,-1.3499,-2.1963,0.0,0.0,0.0,0.0,0.0,0.0,0.0,0.0,-2.3877,-2.3681,-2.3494,-2.3494,-2.3225,-2.2796,-2.2261,-2.1523,-2.0696,-1.9665,-1.844,-1.758,-1.7151,-1.7127,-1.7024,-1.6762,-1.6154,-1.5658,0.0,-1.4405,-1.3483,-1.2517,-1.1784,-1.1344,-1.1117,-1.1111,-1.1111,-1.1111,-1.1111,-1.1364,-1.1802,-1.2315,-1.284,-1.329,-1.3831,-1.4088,-1.4088,-1.4088,-1.4159,-1.4321,-1.4166,-1.4135,-1.4235,-1.471,-1.5443,-1.6178,-1.7221,-1.8323,-1.9188,-1.9296,-1.9479,-1.9471,-1.9012,-1.9012,-1.9188,-1.9012,-1.9004,-1.9004,-1.835,-1.7699,-1.677,-1.5547,-1.4885,-1.4496,-1.4394,-1.4298,-1.4395,-1.4751,-1.4974,-1.524,-1.5692,-1.5843,-1.5891,-1.5891,-1.5891,-1.5785,-1.569,-1.5256,-1.4928,-1.4713,-1.3964,-1.3423,-1.3423,-1.2876,-1.255,-1.255,-1.2441,-1.2441,-1.2441,-1.2441,-1.2441,-1.2441,-1.2441,-1.2441,-1.2441,-1.2441,-1.2469,-1.2531,-1.2748,-1.3036,-1.3391,-1.3537,-1.3636,-2.2097,-2.1952,0.0,0.0,0.0,0.0,-2.2842,-2.3256,0.0,0.0,-2.3432,-2.3298,-2.3298,-2.3154,-2.2941,-2.2451,-2.2207,-2.1475,-2.0041,-1.8853,-1.8013,-1.7586,-1.7485,-1.7342,-1.7,-1.6369,-1.5723,-1.518,-1.4243,-1.324,-1.2197,-1.1593,-1.1232,-1.1111,-1.1111,-1.1111,-1.1111,-1.1111,-1.1326,-1.1843,-1.228,-1.2798,-1.3326,-1.3781,-1.4082,-1.4243,-1.4328,-1.4489,-1.4741,-1.4748,-1.4671,-1.453,-1.5091,-1.5741,-1.6669,-1.7543,-1.8608,-1.9646,-1.9662,-1.9762,-1.9662,-1.9104,-1.9012,-1.9012,-1.8827,-1.892,-1.8912,-1.8542,-1.78,-1.677,-1.5547,-1.4975,-1.4592,-1.4394,-1.4298,-1.4377,-1.4654,-1.492,-1.5234,-1.5644,-1.5813,-1.5891,-1.5891,-1.5891,-1.5791,-1.5589,-1.5261,-1.4821,-1.4493,-1.3743,-1.3207,-1.3098,-1.2659,-1.2441,-1.2441,-1.2441,-1.2441,-1.2441,-1.2441,-1.2441,-1.2441,-1.2441,-1.2441,-1.2441,-1.2441,-1.2441,-1.2441,-1.2569,-1.2847,-1.3258,-1.3466,-1.3608,-2.2573,-2.2232,0.0,-2.188,-2.2149,0.0,-2.2418,-2.278,-2.3111,0.0,-2.2822,-2.2573,-2.2573,-2.2744,-2.2706,-2.2376,-2.2485,-2.1942,-2.0134,-1.9195,-1.8502,-1.7922,-1.7826,-1.7699,-1.7366,-1.6784,-1.6037,-1.5245,-1.423,-1.3131,-1.2073,-1.1691,-1.1413,-1.1166,-1.1129,-1.1111,-1.1111,-1.1111,-1.1326,-1.1766,-1.2091,-1.2605,-1.3238,-1.3574,-1.3951,-1.4398,-1.465,-1.4908,-1.5257,-1.565,-1.5575,-1.5195,-1.5709,-1.6384,-1.7285,-1.8032,-1.8938,-1.9737,-1.9837,-1.9853,-1.9579,-1.9288,-1.9004,-1.8827,-1.8735,-1.8735,-1.8743,-1.8574,-1.7628,-1.6581,-1.5724,-1.5159,-1.4688,-1.4394,-1.4298,-1.4364,-1.4618,-1.4902,-1.5179,-1.5409,-1.5692,-1.5891,-1.5891,-1.5891,-1.5791,-1.5482,-1.5148,-1.4821,-1.4169,-1.3635,-1.3207,-1.2881,-1.255,-1.2441,-1.2441,-1.2441,-1.2441,-1.2441,-1.2441,-1.2441,-1.2441,-1.2441,-1.2441,-1.2441,-1.2441,-1.2441,-1.2441,-1.2465,-1.2668,-1.3041,-1.3277,-1.3485,-2.3049,-2.2718,-2.2366,-2.2366,-2.2149,0.0,-2.1942,-2.2304,-2.2635,0.0,-2.2853,-2.3049,-2.3049,-2.296,-2.2818,-2.2755,-2.2246,-2.1567,-2.0695,-1.9791,-1.8954,-1.8321,-1.82,-1.8057,-1.7707,-1.6986,-1.6282,-1.5796,-1.4149,-1.2934,-1.2581,-1.1872,-1.1504,-1.1449,-1.1232,-1.1111,-1.1111,-1.1111,-1.125,-1.1534,-1.1821,-1.2263,-1.282,-1.3441,-1.3924,-1.4398,-1.4977,-1.5492,-1.5922,-1.6468,-1.6304,-1.5665,-1.6133,-1.6869,-1.7692,-1.8287,-1.9171,-2.0201,-2.0201,-2.0209,-2.0019,-1.9371,-1.9188,-1.9012,-1.8658,-1.8658,-1.8743,-1.8574,-1.8009,-1.734,-1.6581,-1.5818,-1.5153,-1.4688,-1.449,-1.431,-1.437,-1.4763,-1.5125,-1.5173,-1.5565,-1.5891,-1.5891,-1.5891,-1.5678,-1.5148,-1.5041,-1.4719,-1.3856,-1.3532,-1.3207,-1.2881,-1.255,-1.2441,-1.2441,-1.2441,-1.2441,-1.2441,-1.2441,-1.2441,-1.2441,-1.2441,-1.2441,-1.2441,-1.2441,-1.2441,-1.2441,-1.2616,-1.2743,-1.2833,-1.3211,-1.341,-2.3536,-2.3029,-2.2501,-2.2501,-2.2149,0.0,0.0,-2.1983,-2.2149,-2.2149,-2.2335,-2.2501,-2.2501,-2.257,-2.2382,-2.1777,-2.1484,-2.1034,-2.0004,-1.9397,-1.8907,-1.8581,-1.8565,-1.8422,-1.8073,-1.7619,-1.6855,-1.5655,-1.4432,-1.3374,-1.2744,-1.2314,-1.1885,-1.154,-1.1395,-1.1256,-1.1111,-1.1111,-1.125,-1.1534,-1.1611,-1.2128,-1.2896,-1.3307,-1.4035,-1.4977,-1.5643,-1.6237,-1.682,-1.7456,-1.7448,-1.7049,-1.7131,-1.7631,-1.8387,-1.8751,-1.9442,-2.0223,-2.0141,-2.0019,-1.9845,-1.9371,-1.9104,-1.892,-1.8743,-1.8743,-1.8743,-1.8574,-1.8195,-1.7714,-1.6958,-1.6285,-1.5622,-1.5153,-1.4777,-1.4496,-1.4496,-1.4722,-1.495,-1.5083,-1.5427,-1.5734,-1.5867,-1.5891,-1.5678,-1.5035,-1.5041,-1.4611,-1.364,-1.3423,-1.3098,-1.2659,-1.255,-1.2441,-1.2441,-1.2441,-1.2441,-1.2441,-1.2441,-1.2441,-1.2441,-1.2441,-1.2441,-1.2441,-1.2441,-1.2441,-1.2441,-1.255,-1.2663,-1.2772,-1.298,-1.3131,-2.4002,-2.3401,-2.2739,-2.2656,-2.2283,-2.1911,0.0,0.0,0.0,-2.1807,-2.1807,0.0,0.0,0.0,0.0,0.0,0.0,0.0,0.0,-1.8881,0.0,-1.8819,-1.8827,-1.8716,-1.843,-1.8171,-1.7316,-1.5605,-1.4886,-1.4105,-1.2908,-1.2762,-1.2345,-1.1618,-1.1558,-1.1395,-1.1111,-1.1111,-1.1226,-1.1449,-1.1449,-1.1938,-1.2826,-1.3209,-1.4117,-1.5389,-1.6198,-1.6894,-1.7473,-1.8121,-1.8442,-1.8362,-1.8201,-1.8434,-1.8898,-1.9118,-1.9592,-1.9972,-1.9892,-1.9754,-1.9579,-1.9288,-1.9004,-1.8827,-1.8827,-1.8827,-1.8735,-1.8566,-1.8381,-1.7994,-1.7419,-1.6756,-1.619,-1.5724,-1.5255,-1.4879,-1.4879,-1.4807,-1.4892,-1.5154,-1.5318,-1.5584,-1.5843,-1.5891,-1.5678,-1.5035,-1.5041,-1.4606,-1.3423,-1.3315,-1.3098,-1.2441,-1.2441,-1.2441,-1.2441,-1.2441,-1.2441,-1.2441,-1.2441,-1.2441,-1.2441,-1.2441,-1.2441,-1.2441,-1.2441,-1.2441,-1.2441,-1.2441,-1.2531,-1.2706,-1.2748,-1.2857,-2.4467,-2.4105,-2.3619,-2.3215,-2.276,-2.2304,-2.1901,0.0,-2.1807,-2.1807,0.0,0.0,0.0,0.0,0.0,0.0,0.0,0.0,-1.9486,-1.8924,-1.8659,-1.8796,-1.8827,-1.8812,-1.8772,-1.832,-1.7501,-1.6294,-1.5612,-1.4764,-1.3613,-1.3029,-1.2431,-1.189,-1.1655,-1.1395,-1.1111,-1.1111,-1.1129,-1.116,-1.1309,-1.1702,-1.2253,-1.3362,-1.4359,-1.5307,-1.6506,-1.7294,-1.77,-1.8193,-1.8442,-1.8442,-1.8362,-1.8597,-1.8898,-1.9118,-1.9418,-1.9795,-1.9892,-1.9936,-1.9745,-1.9379,-1.9004,-1.8827,-1.8827,-1.8827,-1.8827,-1.8735,-1.8651,-1.8381,-1.8087,-1.7419,-1.6857,-1.6487,-1.5913,-1.5343,-1.5343,-1.5183,-1.5171,-1.5444,-1.5517,-1.5584,-1.5843,-1.5891,-1.5678,-1.5035,-1.5041,-1.4606,-1.3423,-1.3315,-1.3098,-1.2441,-1.2441,-1.2441,-1.2441,-1.2441,-1.2441,-1.2441,-1.2441,-1.2441,-1.2441,-1.2441,-1.2441,-1.2441,-1.2441,-1.2441,-1.2441,-1.2441,-1.245,-1.2484,-1.2677,-1.2781,-2.454,-2.4219,-2.3764,-2.3298,-2.2842,-2.2377,-2.1911,-2.1807,-2.1807,-2.1807,0.0,0.0,0.0,0.0,0.0,0.0,-2.0327,0.0,0.0,0.0,-1.8423,0.0,0.0,0.0,-1.8827,-1.8237,-1.7531,-1.6643,-1.6088,-1.5241,-1.401,-1.3874,-1.3432,-1.2575,-1.2301,-1.2026,-1.1746,-1.1571,-1.1484,-1.1484,-1.1632,-1.2078,-1.2682,-1.3592,-1.469,-1.5823,-1.6823,-1.7627,-1.8112,-1.8442,-1.8612,-1.8531,-1.8442,-1.8539,-1.8848,-1.9201,-1.935,-1.94,-1.9644,-1.9662,-1.9471,-1.9096,-1.892,-1.8827,-1.8827,-1.8827,-1.8827,-1.8827,-1.8743,-1.8651,-1.8373,-1.7994,-1.7613,-1.734,-1.6763,-1.6285,-1.5906,-1.5728,-1.5422,-1.5307,-1.538,-1.5554,-1.5614,-1.5689,-1.5476,-1.5041,-1.4821,-1.439,-1.3423,-1.3315,-1.3098,-1.2441,-1.2441,-1.2441,-1.2441,-1.2441,-1.2441,-1.2441,-1.2441,-1.2441,-1.2441,-1.2441,-1.2441,-1.2441,-1.2441,-1.2441,-1.2441,-1.2441,-1.2441,-1.2441,-1.2535,-1.2578,-2.4364,-2.4033,-2.3577,-2.3111,-2.2749,-2.2377,-2.1911,-2.1807,-2.1849,-2.1973,-2.1994,0.0,0.0,0.0,-2.1696,-2.1211,0.0,-1.9631,0.0,-1.8445,0.0,0.0,0.0,0.0,0.0,-1.8073,-1.7557,-1.687,-1.6632,-1.5884,-1.464,-1.4747,-1.446,-1.3444,-1.3072,-1.2667,-1.2389,-1.2003,-1.1855,-1.1929,-1.215,-1.256,-1.3167,-1.4014,-1.5038,-1.6087,-1.7024,-1.7716,-1.8193,-1.8451,-1.8451,-1.8442,-1.8273,-1.8282,-1.8377,-1.9056,-1.9153,-1.9005,-1.9315,-1.9296,-1.9096,-1.8827,-1.8827,-1.8827,-1.8827,-1.8827,-1.8827,-1.8827,-1.8827,-1.8735,-1.8658,-1.8381,-1.8187,-1.8001,-1.7527,-1.7044,-1.6567,-1.6197,-1.5817,-1.5322,-1.5345,-1.5392,-1.5439,-1.5517,-1.5369,-1.5041,-1.4821,-1.4283,-1.3423,-1.3315,-1.3098,-1.2441,-1.2441,-1.2441,-1.2441,-1.2441,-1.2441,-1.2441,-1.2441,-1.2441,-1.2441,-1.2441,-1.2441,-1.2441,-1.2441,-1.2441,-1.2441,-1.2441,-1.2441,-1.2441,-1.2441,-1.2441,-2.3898,-2.3567,-2.3101,-2.2635,-2.2511,-2.2377,-2.1911,-2.1807,-2.1932,-2.2387,-2.247,-2.2615,-2.306,-2.2439,-2.1787,-2.1829,-2.0722,0.0,0.0,0.0,0.0,0.0,0.0,0.0,0.0,-1.7787,-1.7549,0.0,-1.7054,-1.673,-1.5884,-1.5705,-1.522,-1.4489,-1.381,-1.328,-1.2829,-1.2452,-1.2378,-1.2599,-1.2746,-1.3127,-1.3528,-1.4622,-1.5304,-1.5814,-1.6918,-1.7546,-1.77,-1.7951,-1.787,-1.77,-1.77,-1.7627,-1.7564,-1.8472,-1.8654,-1.8572,-1.9027,-1.9004,-1.8827,-1.8827,-1.8827,-1.8827,-1.8827,-1.8827,-1.8827,-1.8827,-1.8827,-1.8827,-1.8827,-1.8651,-1.8481,-1.8481,-1.8102,-1.7628,-1.7333,-1.6669,-1.6089,-1.5804,-1.5385,-1.5177,-1.5512,-1.5517,-1.5369,-1.5041,-1.4821,-1.4283,-1.3423,-1.3315,-1.3098,-1.2441,-1.2441,-1.2441,-1.2441,-1.2441,-1.2441,-1.2441,-1.2441,-1.2441,-1.2441,-1.2441,-1.2441,-1.2441,-1.2441,-1.2441,-1.2441,-1.2441,-1.2441,-1.2441,-1.2441,-1.2441,-2.3422,-2.3308,-2.308,-2.2615,-2.2501,-2.2377,-2.1911,-2.2045,-2.2304,-2.247,-2.2739,-2.2998,-2.3153,-2.2922,-2.2553,-2.1968,-2.0781,-1.9593,0.0,0.0,0.0,0.0,0.0,0.0,0.0,0.0,0.0,-1.7345,-1.728,0.0,-1.6483,-1.6388,-1.6052,-1.5475,-1.4849,-1.4288,-1.3825,-1.3575,-1.3319,-1.32,-1.3419,-1.3637,-1.3935,-1.4613,-1.5323,-1.5944,-1.6507,-1.7088,-1.7546,-1.7554,-1.7554,-1.7465,-1.7465,-1.7383,-1.7311,-1.8294,-1.8481,-1.8319,-1.8763,-1.892,-1.8827,-1.8827,-1.8827,-1.8827,-1.8827,-1.8827,-1.8827,-1.8827,-1.8827,-1.8827,-1.8827,-1.8735,-1.8743,-1.8743,-1.8558,-1.8272,-1.7714,-1.7239,-1.6697,-1.5747,-1.5454,-1.5314,-1.4969,-1.4943,-1.4959,-1.5013,-1.4396,-1.3856,-1.3315,-1.3098,-1.2881,-1.2441,-1.2441,-1.2441,-1.2441,-1.2441,-1.2441,-1.2441,-1.2441,-1.2441,-1.2441,-1.2441,-1.2441,-1.2441,-1.2441,-1.2441,-1.2441,-1.2441,-1.2441,-1.2441,-1.2441,-1.2441,-2.2946,-2.2822,-2.2625,-2.2325,-2.2252,-2.217,-2.188,-2.2035,-2.2294,-2.247,-2.2739,-2.2987,-2.3153,-2.3467,-2.3313,-2.2068,-2.0762,-1.9575,0.0,-1.7456,0.0,0.0,0.0,0.0,0.0,0.0,-1.7146,-1.7408,-1.7541,0.0,0.0,-1.7148,-1.6893,-1.65,-1.5734,-1.5091,-1.4613,-1.4349,-1.4096,-1.3855,-1.3928,-1.4145,-1.4289,-1.4793,-1.5364,-1.5936,-1.6299,-1.6814,-1.731,-1.7392,-1.7392,-1.731,-1.731,-1.7139,-1.7064,-1.803,-1.8376,-1.8394,-1.8676,-1.8827,-1.8827,-1.8827,-1.8827,-1.8827,-1.8827,-1.8827,-1.8827,-1.8827,-1.8827,-1.8827,-1.8827,-1.8827,-1.8827,-1.8827,-1.8827,-1.8643,-1.8001,-1.7527,-1.6951,-1.5724,-1.5409,-1.517,-1.4737,-1.4522,-1.4537,-1.477,-1.418,-1.364,-1.3315,-1.3098,-1.2772,-1.2441,-1.2441,-1.2441,-1.2441,-1.2441,-1.2441,-1.2441,-1.2441,-1.2441,-1.2441,-1.2441,-1.2441,-1.2441,-1.2441,-1.2441,-1.2441,-1.2441,-1.2441,-1.2441,-1.2441,-1.2441]},{"header":{"parameterUnit":"m.s-1","parameterCategory":1,"la1":30.6,"la2":29.2853,"lo1":-89.7004,"lo2":-87.6739,"dy":0.0162,"dx":0.0183,"nx":112,"ny":82,"refTime":"2024-06-25T18:00:00:Z","depth":0,"parameterNumber":3,"parameterNumberName":"V-component_of_WINDS"},"data":[0.0,0.0,0.0,0.0,0.0,0.0,0.0,0.0,0.0,0.0,0.0,0.0,0.0,0.0,0.0,0.0,0.0,0.0,0.0,0.0,0.0,0.0,0.0,0.0,0.0,0.0,0.0,0.0,0.0,0.0,0.0,0.0,0.0,0.0,0.0,0.0,0.0,0.0,0.0,0.0,0.0,0.0,0.0,0.0,0.0,0.0,0.0,0.0,0.0,0.0,0.0,0.0,0.0,0.0,0.0,0.0,0.0,0.0,0.0,0.0,0.0,0.0,0.0,0.0,0.0,0.0,0.0,0.0,0.0,0.0,0.0,0.0,0.0,0.0,0.0,0.0,0.0,0.0,0.0,0.0,0.0,0.0,0.0,0.0,0.0,0.0,0.0,0.0,0.0,0.0,-3.4624,-3.4431,-3.425,-3.4101,-3.4101,-3.4101,-3.4101,-3.4101,0.0,0.0,0.0,0.0,0.0,0.0,0.0,0.0,0.0,0.0,0.0,0.0,0.0,0.0,0.0,0.0,0.0,0.0,0.0,0.0,0.0,0.0,0.0,0.0,0.0,0.0,0.0,0.0,0.0,0.0,0.0,0.0,0.0,0.0,0.0,0.0,0.0,0.0,0.0,0.0,0.0,0.0,0.0,0.0,0.0,0.0,0.0,0.0,0.0,0.0,0.0,0.0,0.0,0.0,0.0,0.0,0.0,0.0,0.0,0.0,0.0,0.0,0.0,0.0,0.0,0.0,0.0,0.0,0.0,0.0,0.0,0.0,0.0,0.0,0.0,0.0,0.0,0.0,0.0,0.0,0.0,0.0,0.0,0.0,0.0,0.0,0.0,0.0,0.0,0.0,0.0,0.0,0.0,0.0,0.0,0.0,0.0,0.0,0.0,0.0,0.0,0.0,0.0,0.0,-3.3904,-3.4136,-3.4151,-3.4101,-3.4101,-3.4101,-3.4101,-3.4101,0.0,0.0,0.0,0.0,0.0,0.0,0.0,0.0,0.0,0.0,0.0,0.0,0.0,0.0,0.0,0.0,0.0,0.0,0.0,0.0,0.0,0.0,0.0,0.0,0.0,0.0,0.0,0.0,0.0,0.0,0.0,0.0,0.0,0.0,0.0,0.0,0.0,0.0,0.0,0.0,0.0,0.0,0.0,0.0,0.0,0.0,0.0,0.0,0.0,0.0,0.0,0.0,0.0,0.0,0.0,0.0,0.0,0.0,0.0,0.0,0.0,0.0,0.0,0.0,0.0,0.0,0.0,0.0,0.0,0.0,0.0,0.0,0.0,0.0,0.0,0.0,0.0,0.0,0.0,0.0,0.0,0.0,0.0,0.0,0.0,0.0,0.0,0.0,0.0,0.0,0.0,0.0,0.0,0.0,0.0,0.0,0.0,0.0,0.0,0.0,0.0,0.0,0.0,-3.3792,-3.3925,-3.4068,-3.4457,-3.4522,-3.4133,-3.4457,-3.4522,-3.4133,-3.2789,0.0,0.0,0.0,0.0,0.0,0.0,0.0,0.0,0.0,0.0,0.0,0.0,0.0,0.0,0.0,0.0,0.0,0.0,0.0,0.0,0.0,0.0,0.0,0.0,0.0,0.0,0.0,0.0,0.0,0.0,0.0,0.0,0.0,0.0,0.0,0.0,0.0,0.0,0.0,0.0,0.0,0.0,0.0,0.0,0.0,0.0,0.0,0.0,0.0,0.0,0.0,0.0,0.0,0.0,0.0,0.0,0.0,0.0,0.0,0.0,0.0,0.0,0.0,0.0,0.0,0.0,0.0,0.0,0.0,0.0,0.0,0.0,0.0,0.0,0.0,0.0,0.0,0.0,0.0,0.0,0.0,0.0,0.0,0.0,0.0,0.0,0.0,0.0,0.0,0.0,0.0,0.0,0.0,0.0,0.0,0.0,0.0,0.0,0.0,0.0,0.0,0.0,-3.4103,-3.4101,-3.4101,-3.4748,-3.4959,-3.4408,-3.4862,-3.4943,-3.4392,-3.3032,0.0,0.0,0.0,0.0,0.0,0.0,0.0,0.0,0.0,0.0,0.0,0.0,0.0,0.0,0.0,0.0,0.0,0.0,0.0,0.0,0.0,0.0,0.0,0.0,0.0,0.0,0.0,0.0,0.0,0.0,0.0,0.0,0.0,0.0,0.0,0.0,0.0,0.0,0.0,0.0,0.0,0.0,0.0,0.0,0.0,0.0,0.0,0.0,0.0,0.0,0.0,0.0,0.0,0.0,0.0,0.0,0.0,0.0,0.0,0.0,0.0,0.0,0.0,0.0,0.0,0.0,0.0,0.0,0.0,0.0,0.0,0.0,0.0,0.0,0.0,0.0,0.0,0.0,0.0,0.0,0.0,0.0,0.0,0.0,0.0,0.0,0.0,0.0,0.0,0.0,0.0,0.0,0.0,0.0,0.0,0.0,0.0,0.0,0.0,0.0,0.0,0.0,-3.3778,-3.4101,-3.4101,-3.4748,-3.5169,-3.5104,-3.5153,-3.5169,-3.5104,-3.3793,0.0,0.0,0.0,0.0,0.0,0.0,0.0,0.0,0.0,0.0,0.0,0.0,0.0,0.0,0.0,0.0,0.0,0.0,0.0,0.0,0.0,0.0,0.0,0.0,0.0,0.0,0.0,0.0,0.0,0.0,0.0,0.0,0.0,0.0,0.0,0.0,0.0,0.0,0.0,0.0,0.0,0.0,0.0,0.0,0.0,0.0,0.0,0.0,0.0,0.0,0.0,0.0,0.0,0.0,0.0,0.0,0.0,0.0,0.0,0.0,0.0,0.0,0.0,0.0,0.0,0.0,0.0,0.0,0.0,0.0,0.0,0.0,0.0,0.0,0.0,0.0,0.0,0.0,0.0,0.0,0.0,0.0,0.0,0.0,0.0,0.0,0.0,0.0,0.0,0.0,0.0,0.0,0.0,0.0,0.0,0.0,0.0,0.0,0.0,0.0,0.0,0.0,-3.3972,-3.4279,-3.4732,-3.5445,-3.5687,-3.5218,-3.5606,-3.5493,-3.4554,0.0,0.0,0.0,0.0,0.0,0.0,0.0,0.0,0.0,0.0,0.0,0.0,0.0,0.0,0.0,0.0,0.0,0.0,0.0,0.0,0.0,0.0,0.0,0.0,0.0,0.0,0.0,0.0,0.0,0.0,0.0,0.0,0.0,0.0,0.0,0.0,0.0,0.0,0.0,0.0,0.0,0.0,0.0,0.0,0.0,0.0,0.0,0.0,0.0,0.0,0.0,0.0,0.0,0.0,0.0,0.0,0.0,0.0,0.0,0.0,0.0,0.0,0.0,0.0,0.0,0.0,0.0,0.0,0.0,0.0,0.0,0.0,0.0,0.0,0.0,0.0,0.0,0.0,0.0,0.0,0.0,0.0,0.0,0.0,0.0,0.0,0.0,0.0,0.0,0.0,0.0,0.0,0.0,0.0,0.0,0.0,0.0,0.0,0.0,0.0,0.0,0.0,-3.428,-3.4441,-3.4716,-3.5461,-3.6189,-3.6416,-3.6003,-3.6178,-3.5918,-3.4998,0.0,0.0,0.0,0.0,0.0,0.0,0.0,0.0,0.0,0.0,0.0,0.0,0.0,0.0,0.0,0.0,0.0,0.0,0.0,0.0,0.0,0.0,0.0,0.0,0.0,0.0,0.0,0.0,0.0,0.0,0.0,0.0,0.0,0.0,0.0,0.0,0.0,0.0,0.0,0.0,0.0,0.0,0.0,0.0,0.0,0.0,0.0,0.0,0.0,0.0,0.0,0.0,0.0,0.0,0.0,0.0,0.0,0.0,0.0,0.0,0.0,0.0,0.0,0.0,0.0,0.0,0.0,0.0,0.0,0.0,0.0,0.0,0.0,0.0,0.0,0.0,0.0,0.0,0.0,0.0,0.0,0.0,0.0,0.0,0.0,0.0,0.0,0.0,0.0,0.0,0.0,0.0,0.0,0.0,0.0,0.0,0.0,0.0,0.0,0.0,0.0,0.0,-3.4961,-3.5185,-3.5477,-3.6238,-3.6918,-3.7361,-3.7492,-3.6857,-3.6502,0.0,0.0,0.0,0.0,0.0,0.0,0.0,0.0,0.0,0.0,0.0,0.0,0.0,0.0,0.0,0.0,0.0,0.0,0.0,0.0,0.0,0.0,0.0,0.0,0.0,0.0,0.0,0.0,0.0,0.0,0.0,0.0,0.0,0.0,0.0,0.0,0.0,0.0,0.0,0.0,0.0,0.0,0.0,0.0,0.0,0.0,0.0,0.0,0.0,0.0,0.0,0.0,0.0,0.0,0.0,0.0,0.0,0.0,0.0,0.0,0.0,0.0,0.0,0.0,0.0,0.0,0.0,0.0,0.0,0.0,0.0,0.0,0.0,0.0,0.0,0.0,0.0,0.0,0.0,0.0,0.0,0.0,0.0,0.0,0.0,0.0,0.0,0.0,0.0,0.0,0.0,0.0,0.0,0.0,0.0,0.0,0.0,0.0,0.0,0.0,0.0,0.0,0.0,-3.491,-3.5185,-3.5691,-3.7015,-3.7324,-3.7508,-3.7703,-3.7049,-3.6394,-3.5938,0.0,0.0,0.0,0.0,0.0,0.0,0.0,0.0,0.0,0.0,0.0,0.0,0.0,0.0,0.0,0.0,0.0,0.0,0.0,0.0,0.0,0.0,0.0,0.0,0.0,0.0,0.0,0.0,0.0,0.0,0.0,0.0,0.0,0.0,0.0,0.0,0.0,0.0,0.0,0.0,0.0,0.0,0.0,0.0,0.0,0.0,0.0,0.0,0.0,0.0,0.0,0.0,0.0,0.0,0.0,0.0,0.0,0.0,0.0,0.0,0.0,0.0,0.0,0.0,0.0,0.0,0.0,0.0,0.0,0.0,0.0,0.0,0.0,0.0,0.0,0.0,0.0,0.0,0.0,0.0,0.0,0.0,0.0,0.0,0.0,0.0,0.0,0.0,0.0,0.0,0.0,0.0,0.0,0.0,0.0,0.0,0.0,0.0,0.0,0.0,0.0,0.0,-3.5435,-3.5763,-3.6352,-3.7878,-3.8041,-3.8095,-3.8236,-3.737,-3.6598,-3.6205,0.0,0.0,0.0,0.0,0.0,0.0,0.0,0.0,0.0,0.0,0.0,0.0,0.0,0.0,0.0,0.0,0.0,0.0,0.0,0.0,0.0,0.0,0.0,0.0,0.0,0.0,0.0,0.0,0.0,0.0,0.0,0.0,0.0,0.0,0.0,0.0,0.0,0.0,0.0,0.0,0.0,0.0,0.0,0.0,0.0,0.0,0.0,0.0,0.0,0.0,0.0,0.0,0.0,0.0,0.0,0.0,0.0,0.0,0.0,0.0,0.0,0.0,0.0,0.0,0.0,0.0,0.0,0.0,0.0,0.0,0.0,0.0,0.0,0.0,0.0,0.0,0.0,0.0,0.0,0.0,0.0,0.0,0.0,0.0,0.0,0.0,0.0,0.0,0.0,0.0,0.0,0.0,0.0,0.0,0.0,0.0,0.0,0.0,0.0,0.0,0.0,0.0,-3.6241,-3.6623,-3.7232,-3.8657,-3.8805,-3.886,-3.9023,-3.7771,-3.7015,-3.7119,0.0,0.0,0.0,0.0,0.0,0.0,0.0,0.0,0.0,0.0,0.0,0.0,0.0,0.0,0.0,0.0,0.0,0.0,0.0,0.0,0.0,0.0,0.0,0.0,0.0,0.0,0.0,0.0,0.0,0.0,0.0,0.0,0.0,0.0,0.0,0.0,0.0,0.0,0.0,0.0,0.0,0.0,0.0,0.0,0.0,0.0,0.0,0.0,0.0,0.0,0.0,0.0,0.0,0.0,0.0,0.0,0.0,0.0,0.0,0.0,-3.6952,-3.6131,0.0,0.0,0.0,0.0,0.0,0.0,0.0,0.0,0.0,0.0,0.0,0.0,0.0,0.0,0.0,0.0,0.0,0.0,0.0,0.0,0.0,0.0,0.0,0.0,0.0,0.0,0.0,0.0,0.0,0.0,0.0,0.0,0.0,0.0,0.0,0.0,0.0,0.0,0.0,0.0,-3.6345,-3.6692,-3.7285,-3.8821,-3.8969,-3.9023,-3.9218,-3.8424,-3.768,-3.7135,-3.6257,0.0,0.0,0.0,0.0,0.0,0.0,0.0,0.0,0.0,0.0,0.0,0.0,0.0,0.0,0.0,0.0,0.0,0.0,0.0,0.0,0.0,0.0,0.0,0.0,0.0,0.0,0.0,0.0,0.0,0.0,0.0,0.0,0.0,0.0,0.0,0.0,0.0,0.0,0.0,0.0,0.0,0.0,0.0,0.0,0.0,0.0,0.0,0.0,0.0,0.0,0.0,0.0,0.0,0.0,0.0,0.0,0.0,0.0,0.0,-3.879,-3.8094,0.0,0.0,0.0,0.0,0.0,0.0,0.0,0.0,0.0,0.0,0.0,0.0,0.0,0.0,0.0,0.0,0.0,0.0,0.0,0.0,0.0,0.0,0.0,0.0,0.0,0.0,0.0,0.0,0.0,0.0,0.0,0.0,0.0,0.0,0.0,0.0,0.0,0.0,0.0,0.0,-3.7124,-3.7373,-3.7837,-3.9032,-3.9148,-3.9202,-3.9272,-3.8626,-3.7897,-3.7152,-3.6406,0.0,0.0,0.0,0.0,0.0,0.0,0.0,0.0,0.0,0.0,0.0,0.0,0.0,0.0,0.0,0.0,0.0,0.0,0.0,0.0,0.0,0.0,0.0,0.0,0.0,0.0,0.0,0.0,0.0,0.0,0.0,0.0,0.0,0.0,0.0,0.0,0.0,0.0,0.0,0.0,0.0,0.0,0.0,0.0,0.0,0.0,0.0,0.0,0.0,0.0,0.0,0.0,0.0,-4.0253,-4.0324,-4.0324,-4.0324,-4.0681,-4.127,-4.061,-4.0253,-4.0089,-4.0046,0.0,0.0,0.0,0.0,0.0,0.0,0.0,0.0,0.0,0.0,0.0,0.0,0.0,0.0,0.0,0.0,0.0,0.0,0.0,0.0,0.0,0.0,-3.7283,-3.7296,-3.7209,-3.7157,-3.7277,0.0,0.0,0.0,0.0,0.0,0.0,0.0,0.0,0.0,0.0,0.0,-3.7956,-3.816,-3.8477,-3.9206,-3.9272,-3.9272,-3.9272,-3.8742,-3.8079,-3.735,-3.6721,-3.6042,0.0,0.0,0.0,0.0,0.0,0.0,0.0,0.0,0.0,0.0,0.0,0.0,0.0,0.0,0.0,0.0,0.0,0.0,0.0,0.0,0.0,0.0,0.0,0.0,0.0,0.0,0.0,0.0,0.0,0.0,0.0,0.0,-3.1043,-3.2637,0.0,0.0,0.0,0.0,0.0,0.0,0.0,0.0,0.0,0.0,0.0,0.0,0.0,-3.97,-3.9914,-4.0592,-4.0949,-4.0949,-4.1645,-4.1966,-4.1966,-4.1966,-4.2037,-4.2126,-4.2019,0.0,-4.0949,-4.0864,0.0,0.0,0.0,0.0,0.0,0.0,0.0,0.0,0.0,0.0,0.0,0.0,0.0,0.0,0.0,0.0,0.0,0.0,0.0,0.0,0.0,0.0,-3.8228,-3.8841,-3.899,-3.899,-3.899,-3.781,-3.675,-3.6852,-3.6836,-3.677,0.0,0.0,0.0,0.0,0.0,0.0,-3.806,-3.8212,-3.8477,-3.9206,-3.9272,-3.9272,-3.9272,-3.9189,-3.8825,-3.8112,-3.798,-3.7633,-3.702,-3.6887,0.0,0.0,0.0,0.0,0.0,0.0,0.0,0.0,0.0,0.0,0.0,0.0,0.0,0.0,0.0,0.0,0.0,0.0,0.0,0.0,0.0,0.0,0.0,0.0,0.0,0.0,0.0,0.0,0.0,-3.16,-3.3064,-3.4253,-3.4785,-3.5266,0.0,0.0,0.0,0.0,0.0,0.0,0.0,0.0,0.0,-4.0096,-4.0414,-4.0788,-4.1234,-4.1591,-4.177,-4.177,-4.2126,-4.2287,-4.2287,-4.2287,-4.2287,-4.2287,-4.2287,-4.2358,-4.2412,-4.1795,-4.1279,-4.08,0.0,0.0,0.0,0.0,-4.0182,-4.0227,-4.0271,-3.9965,-3.9458,-3.9306,0.0,0.0,0.0,0.0,0.0,0.0,0.0,-3.8394,-3.8725,-3.8808,-3.8891,-3.9206,-3.9272,-3.9272,-3.9272,-3.8775,-3.8275,-3.8328,-3.8328,-3.8328,-3.8328,-3.8328,0.0,0.0,0.0,-3.8444,-3.8775,-3.8808,-3.8924,-3.9239,-3.9272,-3.9272,-3.9272,-3.9272,-3.8974,-3.8261,-3.8247,-3.8069,-3.7468,-3.7467,-3.7542,0.0,0.0,0.0,0.0,0.0,0.0,0.0,0.0,0.0,0.0,0.0,0.0,0.0,0.0,0.0,0.0,0.0,0.0,0.0,0.0,0.0,0.0,0.0,0.0,0.0,0.0,0.0,0.0,-3.3436,-3.4587,-3.5658,-3.6414,-3.686,0.0,0.0,0.0,0.0,0.0,0.0,-3.9496,-4.0047,-4.0778,-4.168,-4.1716,-4.2091,-4.2876,-4.2876,-4.2876,-4.2876,-4.2876,-4.2876,-4.2876,-4.2876,-4.2876,-4.2876,-4.2876,-4.3233,-4.369,-4.2736,-4.2351,-4.2361,-4.1985,-4.165,-4.1324,-4.1242,-4.1056,-4.0884,-4.0931,-4.0521,-3.9915,-3.9679,-3.9064,-3.8333,-3.8119,0.0,0.0,0.0,0.0,-3.9272,-3.9272,-3.9272,-3.9272,-3.9272,-3.9421,-3.9553,-3.9553,-3.9702,-3.9769,-3.9587,-3.9404,-3.9338,-3.952,-3.9404,0.0,-3.9272,-3.9272,-3.9272,-3.9272,-3.9272,-3.9325,-3.9325,-3.9325,-3.9379,-3.9379,-3.9432,-3.9146,-3.8615,-3.872,-3.8623,-3.8219,-3.8364,-3.855,-3.8769,0.0,0.0,0.0,0.0,0.0,0.0,0.0,0.0,0.0,0.0,0.0,0.0,0.0,0.0,0.0,0.0,0.0,0.0,0.0,0.0,0.0,0.0,0.0,0.0,0.0,0.0,0.0,0.0,0.0,-3.6358,-3.7147,0.0,0.0,0.0,0.0,-4.0003,-4.0036,-4.0298,-4.0949,-4.102,-4.177,-4.334,-4.3393,-4.375,-4.45,-4.45,-4.45,-4.45,-4.45,-4.45,-4.45,-4.45,-4.45,-4.45,-4.45,-4.4517,-4.4456,-4.3586,-4.3536,-4.3966,-4.3687,-4.2901,-4.194,-4.1793,-4.1248,-4.0534,-4.0387,-4.0204,-4.007,-3.9935,-3.9662,-3.9385,-3.9279,-3.9242,0.0,0.0,-3.9292,-3.9272,-3.9272,-3.9272,-3.9272,-3.9272,-3.9818,-4.0315,-4.0315,-4.0829,-4.111,-4.0448,-3.9752,-3.9487,-4.0199,0.0,-3.9272,-3.9272,-3.9272,-3.9272,-3.9272,-3.9272,-3.9325,-3.9501,-3.9501,-3.9537,-3.9677,-3.9677,-3.9661,-3.9627,-3.9731,-3.9935,-4.0136,-4.0331,-4.0324,-3.9998,-4.0176,0.0,0.0,0.0,0.0,0.0,0.0,0.0,0.0,0.0,0.0,0.0,0.0,0.0,0.0,0.0,0.0,0.0,0.0,0.0,0.0,0.0,0.0,0.0,0.0,0.0,0.0,0.0,0.0,-3.796,-3.8596,0.0,-3.9774,-3.9877,-4.0202,-4.0841,-4.0817,-4.131,-4.259,-4.2644,-4.3126,-4.4178,-4.4232,-4.4339,-4.4624,-4.4624,-4.4624,-4.4624,-4.4624,-4.4624,-4.4624,-4.4624,-4.4624,-4.4624,-4.4624,-4.491,-4.5356,-4.5044,-4.4645,-4.418,-4.384,-4.3445,-4.2978,-4.2701,-4.2053,-4.1334,-4.1086,-4.0696,-4.0188,-3.9884,-3.9907,-4.0038,-4.0038,-4.0299,-4.0647,-4.0647,-4.0332,-3.9984,-3.9984,-3.9636,-3.9404,-3.9885,-4.0275,-4.0662,-4.1128,-4.1466,-4.1772,-4.2061,-4.1328,-4.0729,-4.0994,-4.0829,-4.0718,-4.0845,-4.0718,-4.0702,-4.0938,-4.0883,-4.0938,-4.1137,-4.0771,-4.0538,-4.0678,-4.0239,-3.9969,-4.0087,-4.0188,-4.0419,-4.0724,-4.0913,-4.1024,-4.12,-4.0863,-4.0477,0.0,0.0,0.0,0.0,0.0,0.0,0.0,0.0,0.0,0.0,0.0,0.0,0.0,0.0,0.0,0.0,0.0,0.0,0.0,0.0,0.0,0.0,0.0,0.0,0.0,0.0,-3.8469,-3.9135,-3.9965,-4.0573,-4.0854,-4.0885,-4.1088,-4.1542,-4.1711,-4.2234,-4.3302,-4.3622,-4.412,-4.4893,-4.4929,-4.5098,-4.541,-4.541,-4.541,-4.541,-4.541,-4.541,-4.541,-4.541,-4.541,-4.541,-4.541,-4.5713,-4.6195,-4.6195,-4.5802,-4.5159,-4.48,-4.4453,-4.4069,-4.3694,-4.3044,-4.227,-4.1664,-4.1223,-4.0832,-4.0338,-4.0511,-4.0895,-4.0895,-4.1211,-4.1577,-4.1577,-4.1261,-4.0895,-4.0857,-4.0491,-4.0242,-4.074,-4.1095,-4.1505,-4.2044,-4.244,-4.287,-4.3356,-4.2428,-4.166,-4.191,-4.1743,-4.1649,-4.1816,-4.1705,-4.1688,-4.2001,-4.1925,-4.198,-4.2286,-4.1935,-4.1579,-4.1528,-4.1117,-4.0791,-4.0631,-4.0758,-4.0931,-4.1192,-4.1328,-4.1569,-4.1909,-4.1215,-4.0948,-4.1024,0.0,0.0,0.0,0.0,0.0,0.0,0.0,0.0,0.0,0.0,0.0,0.0,0.0,0.0,0.0,0.0,0.0,0.0,0.0,0.0,0.0,0.0,0.0,-3.8042,-3.8591,-3.9261,-3.9808,-4.1131,-4.1851,-4.1441,-4.1962,-4.2246,-4.2103,-4.2703,-4.312,-4.3138,-4.3917,-4.4741,-4.5622,-4.5676,-4.6095,-4.7015,-4.7033,-4.7033,-4.7033,-4.6998,-4.6998,-4.6998,-4.6998,-4.6998,-4.6998,-4.6998,-4.6998,-4.6998,-4.6998,-4.6998,-4.698,-4.6684,-4.5988,-4.5098,-4.4855,-4.422,-4.3291,-4.207,-4.1869,-4.1991,-4.13,-4.1463,-4.1959,-4.1959,-4.1976,-4.1992,-4.1992,-4.1976,-4.1904,-4.1755,-4.1755,-4.1738,-4.1755,-4.2322,-4.2839,-4.3026,-4.3749,-4.431,-4.435,-4.3076,-4.2227,-4.2948,-4.2478,-4.2047,-4.2193,-4.2085,0.0,-4.2373,-4.2284,-4.2354,-4.286,-4.2945,-4.277,-4.2354,-4.241,-4.2108,-4.1279,-4.1363,-4.1515,-4.1604,-4.1805,-4.1977,-4.2139,-4.1533,-4.1217,-4.1217,0.0,0.0,0.0,0.0,0.0,0.0,0.0,0.0,0.0,0.0,0.0,0.0,0.0,0.0,0.0,0.0,0.0,0.0,0.0,0.0,0.0,-3.8135,-3.8999,-3.8739,-3.9789,-4.0804,-4.1314,-4.1488,-4.1677,-4.2016,-4.2056,-4.2072,-4.203,-4.2678,-4.335,-4.3952,-4.4696,-4.5457,-4.6283,-4.6997,-4.7453,-4.7713,-4.7807,-4.7854,-4.7836,-4.7265,-4.6998,-4.6998,-4.6998,-4.6998,-4.6998,-4.6998,-4.6998,-4.6998,-4.6998,-4.6998,-4.698,-4.6795,-4.656,-4.6271,-4.6033,-4.5299,-4.4335,-4.3374,-4.2923,-4.2774,-4.2432,-4.2702,-4.3119,-4.3027,-4.336,-4.3799,-4.3799,-4.3394,-4.2972,-4.2824,-4.2366,-4.2097,-4.2651,-4.3031,-4.3445,-4.4262,-4.4715,-4.5015,-4.5213,-4.4869,-4.4487,-4.4258,-4.4067,-4.4058,-4.4329,-4.4204,-4.4187,-4.4524,-4.4436,-4.4489,-4.4906,-4.4522,-4.4254,-4.4288,-4.3793,-4.3173,-4.2474,-4.2484,-4.2326,-4.197,-4.2019,-4.2412,-4.3173,-4.359,-4.3829,0.0,0.0,0.0,0.0,0.0,0.0,0.0,0.0,0.0,0.0,0.0,0.0,0.0,0.0,0.0,0.0,0.0,0.0,0.0,0.0,0.0,0.0,-3.938,-4.0243,-4.0507,-4.1224,-4.1754,-4.1921,-4.1901,-4.197,-4.2192,-4.2055,-4.1902,-4.1902,-4.2802,-4.3568,-4.4089,-4.5082,-4.5922,-4.6477,-4.7098,-4.7441,-4.7506,-4.7629,-4.7676,-4.7676,-4.7212,-4.6998,-4.6998,-4.6998,-4.6998,-4.6998,-4.6998,-4.6998,-4.6998,-4.6998,-4.6998,-4.6998,0.0,0.0,0.0,0.0,-4.6116,-4.5431,-4.4629,-4.4283,-4.4227,-4.38,-4.4044,-4.4525,-4.442,-4.4675,-4.5035,-4.4998,-4.4673,-4.4278,-4.4024,-4.3702,-4.3481,-4.3885,-4.4079,-4.436,-4.5037,-4.5283,-4.5441,-4.5632,-4.5735,0.0,-4.5442,-4.5284,-4.5249,-4.5477,-4.5407,-4.5407,-4.5684,-4.5632,-4.5684,-4.6038,-4.5702,-4.5444,-4.5317,-4.4951,0.0,0.0,0.0,-4.35,-4.3141,-4.3166,0.0,0.0,0.0,0.0,0.0,0.0,0.0,0.0,-4.4772,-4.5341,0.0,0.0,0.0,0.0,0.0,0.0,0.0,0.0,0.0,0.0,0.0,0.0,0.0,0.0,0.0,0.0,-4.0643,-4.195,-4.26,-4.2608,-4.2381,-4.1978,-4.2314,-4.2432,-4.2103,-4.1866,-4.1771,-4.1868,-4.2998,-4.3763,-4.3992,0.0,0.0,0.0,0.0,-4.6779,-4.692,-4.703,-4.7122,-4.7122,-4.7033,-4.6998,-4.6998,-4.6998,-4.6998,-4.6998,-4.6998,-4.6998,-4.6998,-4.6998,-4.6998,-4.6998,-4.6998,-4.6998,-4.6998,-4.6888,-4.6684,-4.6389,-4.5717,0.0,0.0,-4.5299,-4.5446,-4.5887,-4.5837,-4.5837,-4.5837,-4.5684,-4.5684,-4.558,-4.523,-4.5177,-4.5283,-4.514,-4.5177,-4.5336,-4.5477,-4.558,-4.5735,-4.5887,-4.5988,-4.6186,-4.6429,-4.6137,-4.5938,-4.6038,-4.5988,-4.5988,-4.6235,-4.6137,-4.6186,-4.6429,-4.6542,0.0,-4.58,-4.5882,-4.5588,-4.4803,-4.466,-4.4624,-4.4624,-4.4714,-4.4811,-4.4939,-4.5029,-4.5168,-4.5294,-4.5294,-4.611,-4.7644,-4.6807,-4.6916,0.0,0.0,0.0,0.0,0.0,0.0,0.0,0.0,0.0,0.0,0.0,0.0,0.0,0.0,0.0,-4.0095,-4.1526,-4.26,-4.2674,-4.307,-4.3222,-4.2832,-4.2582,-4.2292,-4.1909,-4.1648,-4.1708,-4.2254,-4.3039,-4.3815,-4.4498,-4.5474,-4.6032,-4.6098,-4.6931,-4.7466,-4.7629,-4.7725,-4.7867,-4.7943,-4.7301,0.0,-4.6998,-4.6998,-4.6998,-4.6998,-4.6998,-4.6998,-4.6998,-4.6998,-4.6998,-4.6998,-4.6998,-4.6998,-4.6998,-4.698,-4.6934,-4.687,-4.6618,-4.656,-4.6572,-4.6222,-4.6178,-4.6284,-4.6137,-4.6137,0.0,-4.6087,-4.6087,-4.6038,-4.5837,-4.5837,-4.5837,-4.5837,-4.5837,-4.5887,-4.6137,-4.6235,-4.6332,-4.6542,-4.6637,-4.6684,-4.6842,-4.6542,-4.6332,-4.6477,-4.6447,-4.6477,-4.6542,-4.6495,-4.6542,-4.6702,-4.6749,-4.6771,-4.672,-4.6748,-4.6409,-4.5624,-4.4963,-4.4624,-4.4624,-4.5231,-4.5676,-4.5911,-4.6503,-4.6913,-4.7163,-4.7163,-4.7693,-4.8616,-4.768,-4.8121,0.0,0.0,0.0,0.0,0.0,0.0,0.0,0.0,0.0,0.0,0.0,-3.7243,-3.8294,0.0,-4.0205,-4.098,-4.2076,-4.2946,-4.3293,-4.3536,-4.3545,-4.305,-4.2616,-4.2257,-4.1846,-4.1561,-4.167,-4.2364,-4.3019,-4.3767,-4.4649,-4.5399,-4.5868,-4.6003,-4.6572,-4.7015,-4.7192,-4.7335,-4.7447,-4.7568,-4.7176,-4.6998,-4.6998,-4.6998,-4.6998,-4.6998,-4.6998,-4.6998,-4.6998,-4.6998,-4.6998,-4.6998,-4.6998,-4.6998,-4.6998,-4.6998,-4.6998,-4.6998,-4.6934,-4.6888,-4.6888,-4.6731,-4.6684,-4.6684,-4.6637,-4.659,-4.659,-4.6542,-4.6495,-4.6429,-4.6235,-4.6235,-4.6284,-4.6235,-4.6235,-4.6332,-4.6495,-4.6495,-4.6542,-4.6731,-4.6795,-4.6842,-4.6998,-4.6842,-4.6731,-4.6795,-4.6795,-4.6795,-4.6795,-4.6795,-4.6842,-4.6888,-4.6888,-4.6934,-4.698,-4.6998,-4.6819,-4.6427,-4.6016,-4.5802,-4.5802,-4.6239,-4.6587,-4.6762,-4.7165,-4.7511,-4.7717,-4.7717,-4.8333,-4.9492,-4.9014,-4.9466,0.0,0.0,0.0,0.0,0.0,0.0,0.0,0.0,-3.6298,-3.7892,-3.8548,-3.8802,-3.8788,-3.9902,-4.1054,-4.1623,-4.2467,-4.3262,-4.3912,-4.3892,-4.3612,-4.3124,-4.2657,-4.2208,-4.1817,-4.149,-4.1666,-4.2479,-4.3022,-4.3731,-4.4781,-4.5303,-4.5717,-4.5972,-4.6073,-4.627,-4.6578,-4.6702,-4.6842,-4.6934,-4.6998,-4.6998,-4.6998,-4.6998,-4.6998,-4.6998,-4.6998,-4.6998,-4.6998,-4.6998,-4.6998,-4.6998,-4.6998,-4.6998,-4.6998,-4.6998,-4.6998,-4.6998,-4.6998,-4.6998,-4.6998,-4.6998,-4.6998,-4.6998,-4.6998,-4.6998,-4.6998,-4.6888,-4.6842,-4.6795,-4.659,-4.659,-4.6637,-4.6542,-4.659,-4.6684,-4.6684,-4.6684,-4.6684,-4.6842,-4.6842,-4.6888,-4.698,-4.6998,-4.6998,-4.6998,-4.6998,-4.6998,-4.6998,-4.6998,-4.6998,-4.6998,-4.6998,-4.6998,-4.6998,-4.6998,-4.6998,-4.6998,-4.6998,-4.6998,-4.7043,-4.7133,-4.7267,-4.7363,-4.745,-4.7572,-4.7717,-4.788,-4.8677,-5.009,-5.0253,-5.0741,-3.0605,-3.1328,-3.187,-3.1967,-3.3117,-3.4468,0.0,0.0,-3.7193,-3.8754,-3.8967,-3.9052,-3.9648,-4.086,-4.1763,-4.1801,-4.2962,-4.3893,-4.3986,-4.3865,-4.3667,-4.3231,-4.2703,-4.2207,-4.1683,-4.1318,-4.166,-4.3016,-4.3164,-4.3804,-4.5234,-4.5477,-4.5666,-4.5821,-4.5922,-4.6175,-4.6411,-4.6548,-4.6684,-4.6842,-4.6934,-4.6998,-4.6998,-4.6998,-4.6998,-4.6998,-4.6998,-4.6998,-4.6998,-4.6998,-4.6998,-4.6998,-4.6998,-4.6998,-4.6998,-4.6998,-4.6998,-4.6998,-4.6998,-4.6998,-4.6998,-4.6998,-4.6998,-4.6998,-4.6998,-4.6998,-4.6998,-4.698,-4.698,-4.698,-4.6934,-4.6934,-4.6934,-4.6952,-4.6934,-4.6952,-4.6952,-4.6952,-4.6934,-4.698,-4.698,-4.698,-4.6998,-4.6998,-4.6998,-4.6998,-4.6998,-4.6998,-4.6998,-4.6998,-4.6998,-4.6998,-4.6998,-4.6998,-4.6998,-4.6998,-4.6998,-4.6998,-4.6998,-4.7043,-4.7178,-4.7196,-4.7267,-4.745,-4.7511,-4.7572,-4.7717,-4.8442,-4.9238,-5.0108,-5.0814,-5.1593,-3.0586,-3.1413,0.0,0.0,-3.3631,-3.4844,-3.6162,-3.6698,-3.7353,-3.8931,-3.9078,-3.9128,-3.9819,-4.0634,-4.1341,0.0,-4.2656,-4.3466,-4.3931,-4.3865,-4.3652,-4.325,-4.2667,-4.2108,-4.162,-4.1296,-4.1652,-4.3078,-4.3184,-4.3838,-4.5302,-4.5459,-4.5563,-4.5667,-4.5821,-4.599,-4.6274,-4.6517,-4.669,-4.6795,-4.6952,-4.6998,-4.6998,-4.6998,-4.6998,-4.6998,-4.6998,-4.6998,-4.6998,-4.6998,-4.6998,-4.6998,-4.6998,-4.6998,-4.6998,-4.6998,-4.6998,-4.6998,-4.6998,-4.6998,-4.6998,-4.6998,-4.6998,-4.6998,-4.6998,-4.6998,-4.6998,-4.6998,-4.6998,-4.6998,-4.6998,-4.6998,-4.6998,-4.6998,-4.6998,-4.6998,-4.6998,-4.6998,-4.6998,-4.6998,-4.6998,-4.6998,-4.6998,-4.6998,-4.6998,-4.6998,-4.6998,-4.6998,-4.6998,-4.6998,-4.6998,-4.6998,-4.6998,-4.6998,-4.6998,-4.6998,-4.6998,-4.6998,-4.7088,-4.7133,-4.7196,-4.7312,-4.7425,-4.7511,-4.7572,-4.7657,-4.7717,-4.8532,-4.9311,-5.0108,-5.0923,-5.1719,-3.0605,0.0,0.0,-3.3127,-3.3933,-3.4964,-3.6658,-3.6983,-3.732,-3.8681,-3.8991,-3.9127,-3.9577,-4.0236,-4.0915,-4.1399,-4.205,-4.2693,-4.3262,-4.3402,-4.3287,-4.2868,-4.2463,-4.2062,-4.1628,-4.125,-4.1639,-4.3064,-4.3184,-4.3872,-4.5354,-4.5423,-4.5441,-4.5615,-4.5753,-4.5939,-4.6154,-4.642,-4.6661,-4.6749,-4.6934,-4.6998,-4.6998,-4.6998,-4.6873,-4.6659,-4.6659,-4.6534,-4.6337,-4.6337,-4.6462,-4.6659,-4.6659,-4.6801,-4.6998,-4.6998,-4.6998,-4.6998,-4.6998,-4.6998,-4.6998,-4.6998,-4.6998,-4.6998,-4.6998,-4.6998,-4.6998,-4.6998,-4.6998,-4.6998,-4.6998,-4.6998,-4.6998,-4.6998,-4.6998,-4.6998,-4.6998,-4.6998,-4.6998,-4.6998,-4.6998,-4.6998,-4.6998,-4.6998,-4.6998,-4.6998,-4.6998,-4.6998,-4.6998,-4.6998,-4.6998,-4.6998,-4.6998,-4.6998,-4.6998,-4.6998,-4.6998,-4.6998,-4.7151,-4.7196,-4.7223,-4.7381,-4.7511,-4.7554,-4.7657,-4.7826,-4.8043,-4.8858,-4.9637,-5.0434,-5.1249,-5.1937,0.0,0.0,-3.2318,-3.3188,-3.3994,-3.504,-3.672,-3.7056,-3.7212,-3.7977,-3.8685,-3.9101,-3.8782,-3.9924,-4.0834,-4.0667,-4.1256,-4.1736,-4.1672,-4.2149,-4.2375,-4.1996,-4.2103,-4.2026,0.0,-4.1198,-4.1509,-4.3061,-4.3182,-4.3837,-4.5337,-4.5423,-4.5475,-4.5579,-4.5719,-4.589,-4.6007,-4.6389,-4.6613,-4.659,-4.6888,-4.6998,-4.6998,-4.6998,-4.6569,-4.5838,-4.5838,-4.5392,-4.4678,-4.4678,-4.5142,-4.5838,-4.5838,-4.6302,-4.6998,-4.6998,-4.6998,-4.6998,-4.6998,-4.6998,-4.6998,-4.6998,-4.6998,-4.6998,-4.6998,-4.6998,-4.6998,-4.6998,-4.6998,-4.6998,-4.6998,-4.6998,-4.6998,-4.6998,-4.6998,-4.6998,-4.6998,-4.6998,-4.6998,-4.6998,-4.6998,-4.6998,-4.6998,-4.6998,-4.6998,-4.6998,-4.6998,-4.6998,-4.6998,-4.6998,-4.6998,-4.6998,-4.6998,-4.6998,-4.6998,-4.6998,-4.6998,-4.6998,-4.7151,-4.7223,-4.7302,-4.7425,-4.7554,-4.7699,-4.7717,-4.8098,-4.8894,-4.9673,-5.047,-5.1267,-5.2082,-5.248,0.0,0.0,-3.2168,-3.2463,-3.3134,-3.3885,-3.445,-3.4941,-3.5494,-3.6281,-3.7024,-3.7808,-3.8671,-3.9077,-3.9614,-4.0506,-4.1241,-4.1869,-4.2344,-4.2926,-4.322,-4.2813,-4.2523,0.0,0.0,0.0,0.0,-4.3111,-4.3214,-4.382,-4.5337,-4.5423,-4.5441,-4.5475,-4.5684,-4.5563,-4.5164,-4.5563,-4.5574,-4.5057,-4.5828,-4.5927,-4.5427,-4.5963,-4.5766,-4.5017,-4.5017,-4.4856,-4.4624,-4.4624,-4.4767,-4.5071,-4.5588,-4.5963,-4.6266,-4.6801,-4.6998,-4.6998,-4.6998,-4.6998,-4.6998,-4.6998,-4.6998,-4.6998,-4.6998,-4.6998,-4.6998,-4.6998,-4.6998,-4.6998,-4.6998,-4.6998,-4.6998,-4.6998,-4.6998,-4.6998,-4.6998,-4.6998,-4.6998,-4.6998,-4.6998,-4.6998,-4.6998,-4.6998,-4.6998,-4.6998,-4.6998,-4.6998,-4.6998,-4.6998,-4.6998,-4.6998,-4.6998,-4.6998,-4.6998,-4.6998,-4.7043,-4.7151,-4.7707,-4.7877,-4.7425,-4.8078,-4.82,-4.7717,-4.8224,-4.8641,-4.8912,-5.0234,-5.1031,-5.1303,-5.2118,-5.2498,0.0,-3.0147,-3.1289,-3.1556,-3.2263,-3.2955,-3.3225,-3.3884,-3.4583,-3.5068,-3.6002,-3.7089,-3.8266,-3.8531,-3.9039,-4.0469,-4.1027,-4.1564,-4.2277,-4.2931,-4.322,-4.285,-4.2799,-4.2602,0.0,0.0,0.0,-4.3145,-4.3456,-4.4113,-4.5354,-4.5423,-4.5303,-4.5027,-4.5269,-4.5042,-4.4284,-4.4747,-4.4796,-4.4414,-4.5054,-4.5106,-4.4642,-4.5142,-4.4963,-4.4232,-4.4232,-4.4053,-4.3786,-4.3786,-4.3964,-4.4285,-4.5071,-4.5552,-4.5909,-4.6694,-4.6998,-4.6998,-4.6998,-4.6998,-4.6998,-4.6998,-4.6998,-4.6998,-4.6998,-4.6998,-4.6998,-4.6998,-4.6998,-4.6998,-4.6998,-4.6998,-4.6998,-4.6998,-4.6998,-4.6998,-4.6998,-4.6998,-4.6998,-4.6998,-4.6998,-4.6998,-4.6998,-4.6998,-4.6998,-4.6998,-4.6998,-4.6998,-4.6998,-4.6998,-4.6998,-4.6998,-4.6998,-4.6998,-4.6998,-4.7043,-4.7214,-4.7608,-4.821,-4.8505,-4.8359,-4.8996,-4.9094,-4.8568,-4.9075,-4.9474,-4.9764,-5.0796,-5.1448,-5.1737,-5.2263,-5.2498,-2.7998,-2.8877,-2.9725,-3.0488,-3.1322,-3.2163,-3.2922,-3.3809,-3.4428,-3.436,-3.5629,-3.6942,0.0,0.0,-3.9105,-4.048,-4.0672,-4.0889,-4.1556,-4.2184,-4.247,0.0,0.0,0.0,0.0,0.0,0.0,-4.3283,0.0,-4.4596,-4.5337,-4.5354,-4.501,-4.4285,-4.4505,-4.4277,-4.3469,-4.3958,-4.427,-4.45,-4.4535,-4.4535,-4.45,-4.4535,-4.4161,-4.3447,-4.3447,-4.3019,-4.2287,-4.2287,-4.2751,-4.3536,-4.4321,-4.5071,-4.5838,-4.6676,-4.6998,-4.6998,-4.6998,-4.6998,-4.6998,-4.6998,-4.6998,-4.6998,-4.6998,-4.6998,-4.6998,-4.6998,-4.6998,-4.6998,-4.6998,-4.6998,-4.6998,-4.6998,-4.6998,-4.6998,-4.6998,-4.6998,-4.6998,-4.6998,-4.6998,-4.6998,-4.6998,-4.6998,-4.6998,-4.6998,-4.6998,-4.6998,-4.6998,-4.6998,-4.6998,-4.6998,-4.6998,-4.6998,-4.6998,-4.7133,-4.7537,-4.8406,-4.8641,-4.9099,-4.9884,-5.0063,-5.0126,-5.009,-5.0126,-5.0524,-5.1285,-5.1339,-5.1737,-5.2498,-5.2498,-5.2498,-2.7273,-2.7969,-2.8683,-2.8886,-2.9589,-3.0288,-3.0437,-3.2109,-3.3589,-3.3514,-3.4777,-3.6305,-3.7606,0.0,0.0,-4.0434,-4.1183,0.0,-4.2407,-4.3056,0.0,-4.3707,0.0,-4.3668,-4.3627,-4.4087,0.0,0.0,-4.4165,-4.4354,-4.4561,-4.4578,-4.4267,-4.359,-4.3721,-4.3478,-4.2861,-4.2653,-4.2692,-4.2876,-4.35,-4.3483,-4.2912,-4.3518,-4.3358,-4.2608,-4.2608,-4.2483,-4.2287,-4.2287,-4.2412,-4.2733,-4.4089,-4.4749,-4.5088,-4.648,-4.6998,-4.6998,-4.6998,-4.6998,-4.6998,-4.6998,-4.6998,-4.6998,-4.6998,-4.6998,-4.6998,-4.6998,-4.6998,-4.6998,-4.6998,-4.6998,-4.6998,-4.6998,-4.6998,-4.6998,-4.6998,-4.6998,-4.6998,-4.6998,-4.6998,-4.6998,-4.6998,-4.6998,-4.6998,-4.6998,-4.6998,-4.6998,-4.6998,-4.6998,-4.6998,-4.6998,-4.6998,-4.6998,-4.6998,-4.7133,-4.7671,-4.883,-4.9343,-4.9721,-5.0027,-5.0669,-5.0705,-5.009,-5.0687,-5.1086,-5.1285,-5.19,-5.2299,-5.2498,-5.2498,-5.2498,-2.6434,-2.7067,-2.7721,-2.773,-2.8671,-2.9589,-2.9511,-3.1465,-3.3284,-3.3211,-3.4487,0.0,-3.7617,0.0,0.0,0.0,0.0,0.0,-4.3138,-4.3536,-4.3747,0.0,-4.4032,0.0,-4.3973,-4.468,-4.4954,0.0,-4.4285,-4.4285,-4.4285,-4.3958,-4.3491,-4.2861,-4.294,-4.2788,-4.2317,-4.2154,-4.2144,-4.2287,-4.2751,-4.2733,-4.2305,-4.2769,-4.2733,-4.2287,-4.2287,-4.2287,-4.2287,-4.2287,-4.2287,-4.2412,-4.3643,-4.4125,-4.4285,-4.5499,-4.5945,-4.5998,-4.6355,-4.6462,-4.6516,-4.6873,-4.6998,-4.6998,-4.6998,-4.6998,-4.6998,-4.6998,-4.6998,-4.6998,-4.6998,-4.6998,-4.6998,-4.6998,-4.6998,-4.6998,-4.6998,-4.6998,-4.6998,-4.6998,-4.6998,-4.6998,-4.6998,-4.6998,-4.6998,-4.6998,-4.6998,-4.6998,-4.6998,-4.6998,-4.6998,-4.6998,-4.6998,-4.6998,-4.6998,-4.7214,-4.7761,-4.8767,-4.955,-5.019,-5.0597,-5.1393,-5.1611,-5.1158,-5.1593,-5.1828,-5.1828,-5.2281,-5.2498,-5.2498,-5.2498,-5.2498,-2.5693,-2.6249,-2.6861,-2.696,-2.8221,-2.9432,-2.9496,-3.1473,-3.329,-3.3211,0.0,-3.6207,-3.7636,-3.7769,-3.8609,-4.1467,0.0,-4.2228,-4.3558,-4.3656,-4.3495,-4.3342,-4.4025,-4.4341,-4.399,-4.4872,-4.5094,-4.4233,-4.4044,-4.3975,-4.3975,-4.3421,-4.2763,-4.2129,-4.2236,-4.2198,-4.1987,-4.2074,-4.218,-4.2287,-4.2287,-4.2287,-4.2287,-4.2287,-4.2287,-4.2287,-4.2287,-4.2287,-4.2287,-4.2287,-4.2287,-4.2376,-4.3197,-4.3518,-4.3607,-4.4339,-4.4624,-4.4714,-4.541,-4.5713,-4.5927,-4.673,-4.6998,-4.6998,-4.6998,-4.6998,-4.6998,-4.6998,-4.6998,-4.6998,-4.6998,-4.6998,-4.6998,-4.6998,-4.6998,-4.6998,-4.6998,-4.6998,-4.6998,-4.6998,-4.6998,-4.6998,-4.6998,-4.6998,-4.6998,-4.6998,-4.6998,-4.6998,-4.6998,-4.6998,-4.6998,-4.6998,-4.6998,-4.6998,-4.6998,-4.7295,-4.7787,-4.8524,-4.9432,-5.0343,-5.1249,-5.1973,-5.2389,-5.2498,-5.2498,-5.2498,-5.2498,-5.2498,-5.2498,-5.2498,-5.2498,-5.2498,-2.5703,-2.5805,-2.6101,-2.6815,-2.7771,-2.8695,-2.9355,-3.1471,0.0,0.0,0.0,-3.6903,-3.7682,-3.8229,0.0,-4.0758,0.0,0.0,0.0,0.0,-4.3463,0.0,0.0,0.0,0.0,0.0,0.0,0.0,-4.275,-4.2388,-4.2388,-4.2365,-4.2111,-4.1551,-4.1797,-4.1929,-4.2002,-4.208,-4.218,-4.2287,-4.2287,-4.2287,-4.2287,-4.2287,-4.2287,-4.2287,-4.2287,-4.2287,-4.2287,-4.2287,-4.2287,-4.2376,-4.3197,-4.3518,-4.3607,-4.4339,-4.4624,-4.4642,-4.4767,-4.5249,-4.5927,-4.673,-4.6998,-4.6998,-4.6998,-4.6998,-4.6998,-4.6998,-4.6998,-4.6998,-4.6998,-4.6998,-4.6998,-4.6998,-4.6998,-4.6998,-4.6998,-4.6998,-4.6998,-4.6998,-4.6998,-4.6998,-4.6998,-4.6998,-4.6998,-4.6998,-4.6998,-4.6998,-4.6998,-4.6998,-4.6998,-4.6998,-4.6998,-4.6998,-4.6998,-4.7295,-4.7939,-4.8956,-4.9053,-4.9782,-5.123,-5.143,-5.181,-5.248,-5.2498,-5.2498,-5.2498,-5.2498,-5.2498,-5.2498,-5.2498,-5.2498,-2.5705,-2.5694,-2.5916,-2.6777,-2.7651,-2.8511,-2.9312,0.0,0.0,0.0,0.0,-3.7005,-3.7677,0.0,0.0,0.0,0.0,0.0,0.0,0.0,0.0,0.0,0.0,0.0,0.0,0.0,0.0,0.0,-4.2265,-4.2089,-4.2089,-4.1916,-4.1708,-4.1503,-4.1771,-4.1952,-4.2061,-4.2151,-4.2234,-4.2287,-4.2287,-4.2287,-4.2287,-4.2287,-4.2287,-4.2287,-4.2287,-4.2287,-4.2287,-4.2287,-4.2287,-4.2323,-4.2715,-4.2876,-4.2912,-4.3268,-4.3411,-4.3465,-4.3893,-4.4285,-4.4803,-4.598,-4.6659,-4.6998,-4.6998,-4.6998,-4.6998,-4.6998,-4.6998,-4.6998,-4.6998,-4.6998,-4.6998,-4.6998,-4.6998,-4.6998,-4.6998,-4.6998,-4.6998,-4.6998,-4.6998,-4.6998,-4.6998,-4.6998,-4.6998,-4.6998,-4.6998,-4.6998,-4.6998,-4.6998,-4.6998,-4.6998,-4.6998,-4.6998,-4.6998,-4.7214,-4.7581,-4.8137,-4.8558,-4.935,-5.0615,-5.1067,-5.1665,-5.248,-5.2498,-5.2498,-5.2498,-5.2498,-5.2498,-5.2498,-5.2498,-5.2498,-2.5693,-2.5702,-2.5956,-2.7009,-2.778,-2.8597,-2.9762,-3.1683,0.0,0.0,-3.5283,-3.7113,-3.7668,0.0,0.0,0.0,0.0,0.0,0.0,0.0,0.0,0.0,0.0,0.0,0.0,0.0,0.0,0.0,-4.196,-4.2007,-4.2007,-4.1621,-4.1478,-4.1655,-4.1894,-4.2055,-4.2103,-4.2228,-4.2287,-4.2287,-4.2287,-4.2287,-4.2287,-4.2287,-4.2287,-4.2287,-4.2287,-4.2287,-4.2287,-4.2287,-4.2287,-4.2287,-4.2287,-4.2287,-4.2287,-4.2287,-4.2287,-4.2376,-4.3019,-4.3375,-4.3732,-4.5106,-4.6088,-4.6766,-4.6944,-4.6998,-4.6998,-4.6998,-4.6998,-4.6998,-4.6998,-4.6998,-4.6998,-4.6998,-4.6998,-4.6998,-4.6998,-4.6998,-4.6998,-4.6998,-4.6998,-4.6998,-4.6998,-4.6998,-4.6998,-4.6998,-4.6998,-4.6998,-4.6998,-4.6998,-4.6998,-4.6998,-4.6998,-4.6998,-4.6998,-4.7133,-4.7223,-4.732,-4.8163,-4.9107,-5.0053,-5.085,-5.1665,-5.248,-5.2498,-5.2498,-5.2498,-5.2498,-5.2498,-5.2498,-5.2498,-5.2498,-2.5703,-2.5701,-2.6093,-2.7772,-2.8182,-2.8825,-3.1222,0.0,0.0,0.0,-3.61,-3.775,-3.764,-3.876,0.0,0.0,0.0,0.0,0.0,0.0,0.0,0.0,0.0,0.0,0.0,0.0,0.0,0.0,-4.1366,-4.1485,-4.1485,-4.145,-4.1533,-4.1762,-4.1917,-4.2032,-4.2103,-4.2234,-4.2287,-4.2287,-4.2287,-4.2287,-4.2287,-4.2287,-4.2287,-4.2287,-4.2287,-4.2287,-4.2287,-4.2287,-4.2287,-4.2287,-4.2287,-4.2287,-4.2287,-4.2287,-4.2287,-4.2305,-4.2376,-4.2894,-4.3643,-4.4464,-4.5267,-4.6052,-4.6766,-4.6998,-4.6998,-4.6998,-4.6998,-4.6998,-4.6998,-4.6998,-4.6998,-4.6998,-4.6998,-4.6998,-4.6998,-4.6998,-4.6998,-4.6998,-4.6998,-4.6998,-4.6998,-4.6998,-4.6998,-4.6998,-4.6998,-4.6998,-4.6998,-4.6998,-4.6998,-4.6998,-4.6998,-4.6998,-4.6998,-4.7133,-4.7223,-4.732,-4.8163,-4.9107,-5.0053,-5.085,-5.1665,-5.248,-5.2498,-5.2498,-5.2498,-5.2498,-5.2498,-5.2498,-5.2498,-5.2498,-2.7258,-2.7253,-2.7552,-2.8723,-2.9002,-2.9508,-3.1484,0.0,0.0,-3.4091,-3.6138,-3.7729,-3.7509,-3.8628,-3.9477,-3.9219,-4.024,-4.0976,0.0,0.0,0.0,0.0,0.0,0.0,0.0,0.0,0.0,-3.9904,-4.0438,-4.0788,-4.0902,-4.1385,-4.1754,-4.1972,-4.203,-4.2086,-4.2216,-4.2269,-4.2287,-4.2287,-4.2287,-4.2287,-4.2287,-4.2287,-4.2287,-4.2287,-4.2287,-4.2287,-4.2287,-4.2287,-4.2287,-4.2287,-4.2287,-4.2287,-4.2287,-4.2287,-4.2287,-4.2287,-4.2287,-4.2501,-4.2983,-4.4214,-4.4839,-4.532,-4.6605,-4.6998,-4.6998,-4.6998,-4.6998,-4.6998,-4.6998,-4.6998,-4.6998,-4.6998,-4.6998,-4.6998,-4.6998,-4.6998,-4.6998,-4.6998,-4.6998,-4.6998,-4.6998,-4.6998,-4.6998,-4.6998,-4.6998,-4.6998,-4.6998,-4.6998,-4.6998,-4.6998,-4.6998,-4.6998,-4.6998,-4.7043,-4.7116,-4.7302,-4.8119,-4.9063,-5.0053,-5.085,-5.1665,-5.248,-5.2498,-5.2498,-5.2498,-5.2498,-5.2498,-5.2498,-5.2498,-5.2498,-2.8271,-2.8271,-2.8462,-2.9274,-2.9635,-3.0224,0.0,0.0,-3.3597,-3.4334,-3.6173,-3.7585,-3.7392,-3.8446,-3.9298,0.0,-4.0024,-4.0721,-4.0438,0.0,0.0,0.0,0.0,0.0,0.0,0.0,0.0,-3.9238,-3.9729,-4.0172,-4.0365,-4.1145,-4.1727,-4.2094,-4.2115,-4.2187,-4.2287,-4.2287,-4.2287,-4.2287,-4.2287,-4.2287,-4.2287,-4.2287,-4.2287,-4.2287,-4.2287,-4.2287,-4.2287,-4.2287,-4.2287,-4.2287,-4.2287,-4.2287,-4.2287,-4.2287,-4.2287,-4.2287,-4.2287,-4.2287,-4.2537,-4.4107,-4.4624,-4.491,-4.6516,-4.6998,-4.6998,-4.6998,-4.6998,-4.6998,-4.6998,-4.6998,-4.6998,-4.6998,-4.6998,-4.6998,-4.6998,-4.6998,-4.6998,-4.6998,-4.6998,-4.6998,-4.6998,-4.6998,-4.6998,-4.6998,-4.6998,-4.6998,-4.6998,-4.6998,-4.6998,-4.6998,-4.6998,-4.6998,-4.6998,-4.7043,-4.7223,-4.7643,-4.8461,-4.9361,-5.0397,-5.1212,-5.1919,-5.248,-5.2498,-5.2498,-5.2498,-5.2498,-5.2498,-5.2498,-5.2498,-5.2498,-2.8191,-2.8204,-2.8379,-2.9198,-2.9956,-3.0935,0.0,-3.3564,-3.4309,-3.504,-3.6404,-3.7428,-3.7241,-3.837,-3.9219,-3.895,-3.9863,-4.051,-4.0236,0.0,0.0,0.0,0.0,0.0,0.0,0.0,0.0,-3.9488,-3.9488,0.0,-3.9789,-4.0571,-4.1332,-4.2086,-4.2098,-4.2162,-4.2287,-4.2287,-4.2287,-4.2287,-4.2287,-4.2287,-4.2287,-4.2287,-4.2287,-4.2287,-4.2287,-4.2287,-4.2287,-4.2287,-4.2287,-4.2287,-4.2287,-4.2287,-4.2287,-4.2287,-4.2287,-4.2287,-4.2287,-4.2287,-4.2537,-4.4107,-4.4624,-4.491,-4.6516,-4.6998,-4.6998,-4.6998,-4.6998,-4.6998,-4.6998,-4.6998,-4.6998,-4.6998,-4.6998,-4.6998,-4.6998,-4.6998,-4.6998,-4.6998,-4.6998,-4.6998,-4.6998,-4.6998,-4.6998,-4.6998,-4.6998,-4.6998,-4.6998,-4.6998,-4.6998,-4.6998,-4.6998,-4.6998,-4.6998,-4.7133,-4.7564,-4.8434,-4.9379,-5.0326,-5.1249,-5.2063,-5.248,-5.2498,-5.2498,-5.2498,-5.2498,-5.2498,-5.2498,-5.2498,-5.2498,-5.2498,-2.9763,-2.9763,-2.9976,-3.0771,-3.1107,-3.1661,-3.3242,-3.3791,-3.4174,-3.4899,-3.6254,-3.7241,-3.7042,-3.8119,-3.9087,-3.9287,-3.9873,0.0,0.0,0.0,0.0,0.0,0.0,0.0,0.0,0.0,-3.8709,-3.8483,-3.9102,-3.9793,-4.0449,-4.0788,-4.1103,-4.1426,-4.1966,-4.2251,-4.2287,-4.2287,-4.2287,-4.2287,-4.2287,-4.2287,-4.2287,-4.2287,-4.2287,-4.2287,-4.2287,-4.2287,-4.2287,-4.2287,-4.2287,-4.2287,-4.2287,-4.2287,-4.2287,-4.2287,-4.2287,-4.2287,-4.2287,-4.2287,-4.2465,-4.3518,-4.3857,-4.4143,-4.5713,-4.6551,-4.6998,-4.6998,-4.6998,-4.6998,-4.6998,-4.6998,-4.6998,-4.6998,-4.6998,-4.6998,-4.6998,-4.6998,-4.6998,-4.6998,-4.6998,-4.6998,-4.6998,-4.6998,-4.6998,-4.6998,-4.6998,-4.6998,-4.6998,-4.6998,-4.6998,-4.6998,-4.6998,-4.6998,-4.6998,-4.7133,-4.7564,-4.8452,-4.9379,-5.0326,-5.1249,-5.2063,-5.2498,-5.2498,-5.2498,-5.2498,-5.2498,-5.2498,-5.2498,-5.2498,-5.2498,-5.2498,0.0,-3.1284,-3.1407,-3.1872,-3.2223,-3.2666,-3.3576,-3.4008,-3.4356,-3.4756,-3.6029,-3.7014,-3.6783,-3.785,-3.8909,-3.934,-3.9715,0.0,0.0,0.0,0.0,0.0,0.0,0.0,0.0,0.0,-3.8469,-3.8351,-3.8977,-3.9492,-3.985,-4.0291,-4.0455,-4.0157,-4.127,-4.1841,-4.1841,-4.2144,-4.2287,-4.2287,-4.2287,-4.2287,-4.2287,-4.2287,-4.2287,-4.2287,-4.2287,-4.2287,0.0,-4.2287,-4.2287,-4.2287,-4.2287,-4.2287,-4.2287,-4.2287,-4.2287,-4.2287,-4.2287,-4.2287,-4.243,-4.3251,-4.3697,-4.4161,-4.5427,-4.6355,-4.6998,-4.6998,-4.6998,-4.6998,-4.6998,-4.6998,-4.6998,-4.6998,-4.6998,-4.6998,-4.6998,-4.6998,-4.6998,-4.6998,-4.6998,-4.6998,-4.6998,-4.6998,-4.6998,-4.6998,-4.6998,-4.6998,-4.6998,-4.6998,-4.6998,-4.6998,-4.6998,-4.6998,-4.6998,-4.7178,-4.7716,-4.8884,-4.9604,-5.0534,-5.1701,-5.2226,-5.2498,-5.2498,-5.2498,-5.2498,-5.2498,-5.2498,-5.2498,-5.2498,-5.2498,-5.2498,0.0,-3.2619,-3.2562,-3.2542,-3.3156,-3.373,-3.3677,-3.4243,0.0,-3.4602,-3.5778,-3.6789,-3.6498,-3.7599,-3.8729,-3.9209,-3.9432,0.0,0.0,0.0,0.0,0.0,0.0,0.0,0.0,-3.8103,-3.8288,-3.8764,-3.8894,-3.8811,-3.8373,-3.9208,-3.9345,-3.862,-4.0143,-4.0985,-4.1092,-4.1841,-4.2234,-4.2287,-4.2287,-4.2287,-4.2287,-4.2287,-4.2287,-4.2287,-4.2287,-4.2287,-4.2287,-4.2287,-4.2287,-4.2287,-4.2287,-4.2287,-4.2287,-4.2287,-4.2287,-4.2287,-4.2287,-4.2287,-4.2412,-4.3179,-4.3929,-4.4678,-4.541,-4.623,-4.6926,-4.6962,-4.6998,-4.6998,-4.6998,-4.6998,-4.6998,-4.6998,-4.6998,-4.6998,-4.6998,-4.6998,-4.6998,-4.6998,-4.6998,-4.6998,-4.6998,-4.6998,-4.6998,-4.6998,-4.6998,-4.6998,-4.6998,-4.6998,-4.6998,-4.6998,-4.6998,-4.6998,-4.6998,-4.7187,-4.8003,-4.9603,-4.9938,-5.0814,-5.2426,-5.2498,-5.2498,-5.2498,-5.2498,-5.2498,-5.2498,-5.2498,-5.2498,-5.2498,-5.2498,-5.2498,-3.3636,0.0,-3.2278,-3.2898,-3.3197,-3.3475,0.0,-3.4278,0.0,0.0,0.0,-3.6362,-3.6174,-3.7649,-3.9085,-3.9412,-3.987,0.0,0.0,0.0,0.0,0.0,0.0,0.0,0.0,-3.7002,-3.7177,-3.7509,-3.7779,-3.8217,-3.8859,-3.8846,-3.8738,-3.8602,-3.907,-3.9914,-4.1092,-4.1288,-4.168,-4.2287,-4.2287,-4.2287,-4.2287,-4.2287,-4.2287,-4.2287,-4.2287,-4.2287,-4.2287,-4.2287,-4.2287,-4.2287,-4.2287,-4.2287,-4.2287,-4.2287,-4.2287,-4.2287,-4.2287,-4.2287,-4.2323,-4.2519,-4.3126,-4.3804,-4.3982,-4.4999,-4.6212,-4.6819,-4.6998,-4.6998,-4.6998,-4.6998,-4.6998,-4.6998,-4.6998,-4.6998,-4.6998,-4.6998,-4.6998,-4.6998,-4.6998,-4.6998,-4.6998,-4.6998,-4.6998,-4.6998,-4.6998,-4.6998,-4.6998,-4.6998,-4.6998,-4.6998,-4.6998,-4.6998,-4.6998,-4.7187,-4.8003,-4.9603,-4.9938,-5.0814,-5.2426,-5.2498,-5.2498,-5.2498,-5.2498,-5.2498,-5.2498,-5.2498,-5.2498,-5.2498,-5.2498,-5.2498,-3.3726,-3.3333,-3.3022,-3.3445,-3.3557,-3.3664,-3.4037,0.0,0.0,0.0,0.0,0.0,-3.6321,0.0,0.0,0.0,-3.9876,0.0,0.0,0.0,0.0,0.0,0.0,0.0,0.0,-3.6771,-3.7117,-3.7424,-3.7723,-3.8008,-3.838,-3.842,-3.8267,-3.8011,-3.8162,-3.8986,-4.0538,-4.0913,-4.1502,-4.2287,-4.2287,-4.2287,-4.2287,-4.2287,-4.2287,-4.2287,-4.2287,-4.2287,-4.2287,-4.2287,-4.2287,-4.2205,-4.2205,-4.2205,-4.2139,-4.2139,-4.2139,-4.2181,-4.2205,-4.2246,-4.2287,-4.2287,-4.259,-4.3019,-4.3393,-4.4089,-4.4981,-4.6123,-4.6712,-4.6998,-4.6998,-4.6998,-4.6998,-4.6998,-4.6998,-4.6998,-4.6998,-4.6998,-4.6998,-4.6998,-4.6998,-4.6998,-4.6998,-4.6998,-4.6998,-4.6998,-4.6998,-4.6998,-4.6998,-4.6998,-4.6998,-4.6998,-4.6998,-4.6998,-4.6998,-4.7187,-4.7841,-4.9081,-4.9739,-5.0651,-5.19,-5.2299,-5.2498,-5.2498,-5.2498,-5.2498,-5.2498,-5.2508,-5.2554,-5.2554,-5.2599,-5.2663,-3.3364,-3.3706,-3.4052,-3.4079,-3.4171,-3.4236,0.0,0.0,0.0,0.0,0.0,0.0,0.0,0.0,0.0,0.0,0.0,0.0,0.0,0.0,0.0,0.0,0.0,0.0,-3.6004,-3.657,-3.7133,-3.7469,-3.7716,-3.7744,-3.7455,-3.7872,-3.787,-3.7314,-3.7521,-3.829,-3.9736,-4.0521,-4.1324,-4.2109,-4.2234,-4.2287,-4.2287,-4.2287,-4.2287,-4.2287,-4.2287,0.0,-4.2287,-4.2246,-4.2205,-4.2061,-4.2061,-4.2055,-4.2005,-4.2005,-4.2005,-4.2005,-4.2079,-4.2187,-4.2287,-4.2287,-4.2287,-4.2412,-4.3108,-4.3411,-4.3804,-4.5231,-4.6195,-4.6837,-4.6962,-4.6998,-4.6998,-4.6998,-4.6998,-4.6998,-4.6998,-4.6998,-4.6998,-4.6998,-4.6998,-4.6998,-4.6998,-4.6998,-4.6998,-4.6998,-4.6998,-4.6998,-4.6998,-4.6998,-4.6998,-4.6998,-4.6998,-4.6998,-4.6998,-4.7187,-4.7589,-4.8272,-4.9306,-5.0325,-5.1249,-5.2063,-5.2498,-5.2498,-5.248,-5.2526,-5.2526,-5.2627,-5.2635,-5.2635,-5.2787,-5.285,-3.3165,-3.3713,-3.4261,-3.4395,-3.4951,-3.5442,0.0,0.0,0.0,0.0,0.0,0.0,0.0,0.0,0.0,0.0,0.0,0.0,0.0,0.0,0.0,0.0,0.0,-3.4969,-3.5112,-3.5307,-3.5515,-3.5778,-3.614,-3.6466,-3.6724,-3.7088,-3.7309,-3.7392,-3.7503,-3.8041,-3.8968,-3.9718,-4.0503,-4.1288,-4.1966,-4.2287,-4.2287,-4.2287,-4.2287,-4.2287,0.0,-4.2145,-4.2121,-4.2072,-4.203,-4.2005,-4.2005,-4.2005,-4.2005,-4.2005,-4.2005,-4.2005,-4.2079,-4.2103,-4.2145,-4.2287,-4.2287,-4.2305,-4.2448,-4.2965,-4.3697,-4.4553,-4.5374,-4.6141,-4.6819,-4.6998,-4.6998,-4.6998,-4.6998,-4.6998,-4.6998,-4.6998,-4.6998,-4.6998,-4.6998,-4.6998,-4.6998,-4.6998,-4.6998,-4.6998,-4.6998,-4.6998,-4.6998,-4.6998,-4.6998,-4.6998,-4.6998,-4.6998,-4.6998,-4.7187,-4.7356,-4.7481,-4.8493,-4.9745,-5.123,-5.2063,-5.2498,-5.2498,-5.2536,-5.2563,-5.2608,-5.2806,-5.2937,-5.2937,-5.303,-5.3054,-3.3186,-3.3878,-3.4622,-3.5082,-3.5341,-3.5486,0.0,0.0,0.0,0.0,0.0,0.0,0.0,0.0,0.0,0.0,0.0,0.0,0.0,0.0,0.0,0.0,0.0,-3.4851,-3.4994,-3.5041,-3.5228,-3.5577,-3.5844,-3.6216,-3.6696,-3.6952,-3.7185,-3.7374,-3.754,-3.7773,-3.8148,-3.8933,-3.9914,-4.1092,-4.1466,-4.1877,-4.2287,-4.2228,-4.2187,-4.2205,0.0,-4.2055,-4.2055,-4.1987,-4.1945,-4.1884,-4.1884,-4.1797,-4.1666,-4.1666,-4.1754,-4.1884,-4.1909,-4.2012,-4.2072,-4.2115,-4.2157,-4.2157,-4.2157,-4.243,-4.2917,-4.3683,-4.4831,-4.5998,-4.6783,-4.6998,-4.6998,-4.6998,-4.6998,-4.6998,-4.6998,-4.6998,-4.6998,-4.6998,-4.6998,-4.6998,-4.6998,-4.6998,-4.6998,-4.6998,-4.6998,-4.6998,-4.6998,-4.6998,-4.6998,-4.6998,-4.6998,-4.6998,-4.6998,-4.7187,-4.7543,-4.8125,-4.905,-5.0071,-5.1249,-5.2137,-5.2536,-5.2536,-5.2717,-5.2813,-5.2882,-5.3133,-5.3277,-5.3341,-5.3404,-5.3502,-3.3194,-3.4018,-3.4771,-3.5524,0.0,0.0,0.0,0.0,0.0,0.0,0.0,0.0,0.0,0.0,0.0,0.0,0.0,0.0,0.0,-3.5925,-3.5528,-3.4965,-3.4899,-3.4947,-3.5105,-3.5182,-3.5412,-3.5844,-3.5891,-3.6195,-3.6856,-3.6893,-3.7084,-3.7429,-3.754,-3.7577,-3.7577,-3.8201,-3.9218,-4.0556,-4.0753,-4.1234,-4.2002,-4.1896,-4.1943,-4.2103,-4.1987,-4.1962,-4.1902,-4.1858,-4.1797,-4.1648,-4.1648,-4.1542,-4.1363,-4.1363,-4.1498,-4.1692,-4.1736,-4.1841,-4.1945,-4.2005,-4.2005,-4.2005,-4.2005,-4.2055,-4.2281,-4.3063,-4.427,-4.5552,-4.648,-4.6855,-4.6998,-4.6998,-4.6998,-4.6998,-4.6998,-4.6998,-4.6998,-4.6998,-4.6998,-4.6998,-4.6998,-4.6998,-4.6998,-4.6998,-4.6998,-4.6998,-4.6998,-4.6998,-4.6998,-4.6998,-4.6998,-4.7025,-4.7116,-4.7276,-4.7836,-4.8883,-4.9699,-5.0405,-5.104,-5.21,-5.2698,-5.2698,-5.298,-5.3133,-5.3222,-5.3502,-5.366,-5.3738,-5.387,-5.3963,-3.3012,-3.3761,-3.4492,-3.524,0.0,0.0,0.0,0.0,0.0,0.0,0.0,0.0,0.0,0.0,0.0,0.0,0.0,0.0,-3.6074,0.0,-3.4965,-3.4899,-3.4899,-3.4947,-3.5105,-3.5396,-3.5694,-3.6054,-3.5775,-3.6103,-3.7223,-3.668,-3.6719,-3.7559,-3.7577,-3.7577,-3.7577,-3.7648,-3.8112,-3.8986,-3.9664,-4.0414,-4.1181,-4.1096,-4.1464,-4.2103,-4.1909,-4.1736,-4.1604,-4.1471,-4.1363,-4.1255,-4.1255,-4.1255,-4.1209,-4.1209,-4.1318,-4.1426,-4.156,-4.1692,-4.1841,-4.1945,-4.2005,-4.2005,-4.2005,-4.2055,-4.2281,-4.3063,-4.3672,-4.4328,-4.5552,-4.6444,-4.6998,-4.6998,-4.6998,-4.6998,-4.6998,-4.6998,-4.6998,-4.6998,-4.6998,-4.6998,-4.6998,-4.6998,-4.6998,-4.6998,-4.6998,-4.6998,-4.6998,-4.6998,-4.6998,-4.6998,-4.6998,-4.7116,-4.7425,-4.7615,-4.8127,-4.9117,-4.9871,-5.0319,-5.0373,-5.2047,-5.298,-5.298,-5.3295,-5.3521,-5.3545,-5.3889,-5.4072,-5.4179,-5.4268,-5.4375,-3.3146,-3.384,0.0,0.0,0.0,0.0,0.0,0.0,0.0,0.0,0.0,0.0,0.0,0.0,0.0,0.0,0.0,0.0,-3.5379,-3.5081,-3.4899,-3.4899,-3.4899,-3.4994,-3.5198,-3.5441,-3.58,-3.6301,-3.6354,-3.6636,-3.7337,-3.7108,-3.7164,-3.7577,-3.7577,-3.7577,-3.7577,-3.7577,-3.77,-3.7929,-3.8712,-3.9494,-4.0317,-4.0613,-4.0901,-4.1202,-4.1438,-4.1515,-4.1471,-4.1318,-4.1255,-4.1209,-4.1152,-4.1134,-4.1209,-4.1152,-4.1198,-4.1255,-4.1346,-4.1391,-4.1453,-4.1498,-4.156,-4.1622,-4.1622,-4.1736,-4.1962,-4.2296,-4.2939,-4.3861,-4.541,-4.6382,-4.6981,-4.7025,-4.6998,-4.6998,-4.6998,-4.6998,-4.6998,-4.6998,-4.6998,-4.6998,-4.6998,-4.6998,-4.6998,-4.6998,-4.6998,-4.6998,-4.6998,-4.7088,-4.7133,-4.7133,-4.7267,-4.7468,-4.7788,-4.7847,-4.8338,-4.9423,-5.0145,-5.0738,-5.1255,-5.2606,-5.3318,-5.3363,-5.3699,-5.3889,-5.3981,-5.4214,-5.4405,-5.4524,-5.4576,-5.4576,-3.338,-3.4021,-3.4594,0.0,0.0,0.0,0.0,0.0,0.0,0.0,0.0,0.0,0.0,0.0,0.0,0.0,0.0,-3.5479,-3.4965,-3.4899,-3.4899,-3.4899,-3.4947,-3.5041,-3.5321,-3.5577,-3.6002,-3.6568,-3.6566,-3.6844,-3.7411,-3.7217,-3.7236,-3.7577,-3.7577,-3.7577,-3.7577,-3.7577,-3.754,-3.7392,-3.7942,-3.8741,-3.9753,-4.01,-4.0486,-4.0918,-4.1288,-4.138,-4.1307,-4.1198,-4.1134,-4.1088,-4.1076,-4.1059,-4.1088,-4.1029,-4.1076,-4.118,-4.118,-4.1163,-4.1209,-4.1209,-4.1318,-4.138,-4.138,-4.1604,-4.1823,-4.1856,-4.2409,-4.3319,-4.4706,-4.5783,-4.6561,-4.6927,-4.6757,-4.6605,-4.6926,-4.6998,-4.6998,-4.6998,-4.6998,-4.698,-4.7043,-4.7043,-4.7088,-4.707,-4.7116,-4.716,-4.716,-4.7267,-4.7356,-4.7381,-4.7578,-4.7811,-4.8093,-4.821,-4.8862,-5.0157,-5.0711,-5.1298,-5.2051,-5.3098,-5.3699,-5.3795,-5.4072,-5.4249,-5.4352,-5.4505,-5.4654,-5.4767,-5.4767,-5.4767,-3.3818,-3.4175,0.0,0.0,0.0,0.0,0.0,0.0,0.0,0.0,0.0,0.0,0.0,0.0,0.0,-3.5992,-3.5379,-3.4899,-3.4899,-3.4899,-3.4899,-3.4899,-3.4994,-3.5182,-3.5379,-3.5854,-3.6308,-3.6776,-3.6365,-3.6538,-3.7541,-3.6827,-3.6774,-3.7559,-3.7577,-3.7577,-3.7577,-3.7577,-3.754,-3.7392,-3.7334,-3.8111,-3.958,-3.9511,-4.0275,-4.1587,-4.1471,-4.1307,-4.1093,-4.1093,-4.1047,-4.0888,-4.0888,-4.0888,-4.0888,-4.0888,-4.0982,-4.1093,-4.1093,-4.1152,-4.1209,-4.1209,-4.1272,-4.138,-4.138,-4.1604,-4.1823,-4.1945,-4.2126,-4.2465,-4.328,-4.4418,-4.5648,-4.6713,-4.615,-4.5704,-4.6766,-4.698,-4.6998,-4.6998,-4.6998,-4.7043,-4.7196,-4.7196,-4.7223,-4.7276,-4.7407,-4.7511,-4.7511,-4.7615,-4.7723,-4.7793,-4.7995,-4.8174,-4.8384,-4.8731,-4.9631,-5.1374,-5.1604,-5.1959,-5.2494,-5.3552,-5.4127,-5.4214,-5.4386,-5.4552,-5.4597,-5.4749,-5.4829,-5.4901,-5.4901,-5.4901,-3.3781,-3.428,0.0,0.0,0.0,0.0,0.0,0.0,0.0,0.0,0.0,0.0,0.0,0.0,0.0,-3.523,-3.5032,-3.4899,-3.4899,-3.4899,-3.4947,-3.5041,-3.5152,-3.5383,-3.5667,-3.6002,-3.6426,-3.693,-3.6953,-3.7124,-3.7577,-3.7362,-3.7345,-3.7577,-3.7577,-3.7577,-3.7577,-3.7503,-3.7429,-3.7334,-3.7203,-3.7355,-3.7809,-3.8796,-3.9406,-3.9826,-4.0809,-4.114,-4.1093,-4.1,-4.0935,-4.0888,-4.0888,-4.0888,-4.0888,-4.0888,-4.0935,-4.0935,-4.0935,-4.0965,-4.1012,-4.1012,-4.1076,-4.1215,-4.1226,-4.1363,-4.156,-4.1813,-4.1987,-4.2257,-4.2567,-4.2953,-4.356,-4.4971,-4.5481,-4.5784,-4.6088,-4.6587,-4.6998,-4.6998,-4.6998,-4.7043,-4.7196,-4.7249,-4.732,-4.7407,-4.7603,-4.7752,-4.7915,-4.7974,-4.8053,-4.8286,-4.8364,-4.8532,-4.8731,-4.8959,-4.9627,-5.0844,-5.1555,-5.2475,-5.3693,-5.4168,-5.4439,-5.4557,-5.4673,-5.4717,-5.4749,-5.481,-5.4871,-5.4901,-5.4901,-5.4901,-3.4502,0.0,0.0,0.0,0.0,0.0,0.0,0.0,0.0,0.0,0.0,0.0,0.0,0.0,0.0,-3.4899,-3.4899,-3.4899,-3.4899,-3.4947,-3.5041,-3.5135,-3.5383,-3.5639,-3.5975,-3.6301,-3.6673,-3.7105,-3.7259,-3.741,-3.7577,-3.7577,-3.7577,-3.7577,-3.7577,-3.7577,-3.7503,-3.7429,-3.7354,-3.7203,-3.7203,-3.7126,-3.704,-3.8502,-3.925,-3.9504,-4.062,-4.1093,-4.1093,-4.1059,-4.0995,-4.0995,-4.0995,-4.1012,-4.0982,-4.0982,-4.0935,-4.0888,-4.0888,-4.0935,-4.0982,-4.0982,-4.1076,-4.1215,-4.1272,-4.1363,-4.1542,-4.1735,-4.1952,-4.2126,-4.2323,-4.2427,-4.2731,-4.3875,-4.4767,-4.541,-4.5731,-4.6427,-4.6998,-4.6998,-4.7043,-4.7133,-4.7312,-4.7407,-4.756,-4.7765,-4.7951,-4.8132,-4.8269,-4.8307,-4.8364,-4.8606,-4.8714,-4.8855,-4.9012,-4.9244,-4.979,-5.071,-5.1662,-5.273,-5.4005,-5.4433,-5.4686,-5.4767,-5.4829,-5.4829,-5.4829,-5.4871,-5.4901,-5.4901,-5.4901,-5.4901,0.0,0.0,0.0,0.0,0.0,0.0,0.0,0.0,0.0,0.0,0.0,0.0,0.0,-3.4899,-3.4899,-3.4899,-3.4899,-3.4899,-3.4899,-3.4994,-3.5152,-3.5291,-3.5639,-3.5975,-3.6301,-3.665,-3.697,-3.7297,-3.7354,-3.7466,-3.7577,-3.7523,-3.747,-3.747,-3.747,-3.7433,-3.7323,-3.7394,-3.7299,-3.7147,-3.7259,-3.722,-3.7079,-3.8515,-3.9546,-4.0165,-4.081,-4.1093,-4.114,-4.118,-4.1209,-4.1209,-4.1255,-4.1198,-4.114,-4.114,-4.1029,-4.0918,-4.0935,-4.0982,-4.1093,-4.1093,-4.1215,-4.1363,-4.138,-4.1471,-4.1613,-4.1778,-4.1892,-4.209,-4.2422,-4.2548,-4.2749,-4.3298,-4.4007,-4.4775,-4.5561,-4.6364,-4.6954,-4.7025,-4.7133,-4.7312,-4.7511,-4.7687,-4.7933,-4.8226,-4.8419,-4.8569,-4.8642,-4.8623,-4.8678,-4.8787,-4.8925,-4.9061,-4.9179,-4.9514,-5.0013,-5.073,-5.1802,-5.276,-5.3556,-5.4356,-5.4829,-5.4901,-5.4901,-5.4901,-5.4901,-5.4901,-5.4901,-5.4901,-5.4901,-5.4901,0.0,0.0,0.0,0.0,0.0,0.0,0.0,0.0,0.0,0.0,0.0,0.0,-3.4899,-3.4899,-3.4899,-3.4899,-3.4899,-3.4899,-3.4899,-3.4994,-3.5228,-3.5487,-3.5827,-3.6199,-3.665,-3.6913,-3.7147,-3.7354,-3.7392,-3.7466,-3.7577,-3.6988,-3.6649,-3.6649,-3.6649,-3.6702,-3.6755,-3.7201,-3.7429,-3.7503,-3.7429,-3.7354,-3.7334,-3.817,-3.9129,-4.0201,-4.0878,-4.118,-4.118,-4.1318,-4.1363,-4.1363,-4.1453,-4.1426,-4.1353,-4.1353,-4.1226,-4.1134,-4.1076,-4.1123,-4.118,-4.114,-4.1134,-4.1202,-4.1363,-4.1373,-4.1366,-4.1805,-4.2023,-4.2186,-4.2468,-4.257,-4.2685,-4.3023,-4.3595,-4.4268,-4.5078,-4.5845,-4.6575,-4.7255,-4.7425,-4.7493,-4.7687,-4.7951,-4.8247,-4.8606,-4.8715,-4.8751,-4.8839,-4.882,-4.8839,-4.8874,-4.9046,-4.9179,-4.9197,-4.9514,-4.9768,-4.9937,-5.1499,-5.2494,-5.2684,-5.4095,-5.4871,-5.4901,-5.4901,-5.4901,-5.4901,-5.4901,-5.4901,-5.4901,-5.4901,-5.4901,0.0,0.0,0.0,0.0,0.0,0.0,0.0,0.0,0.0,0.0,0.0,0.0,-3.4899,-3.4899,-3.4899,-3.4899,-3.4899,-3.4899,-3.4994,-3.5135,-3.5396,-3.5756,-3.6131,-3.6492,-3.6913,-3.7108,-3.7299,-3.7503,-3.7503,-3.754,-3.7594,-3.6827,-3.6399,-3.6399,-3.6077,-3.6112,-3.6487,-3.6898,-3.7274,-3.7649,-3.7667,-3.7703,-3.7757,-3.8153,-3.9118,-4.0471,-4.0745,-4.1147,-4.1498,-4.1675,-4.1719,-4.1762,-4.1892,-4.1849,-4.1719,-4.1675,-4.1569,-4.1418,-4.129,-4.129,-4.1363,-4.1261,-4.1318,-4.1445,-4.1542,-4.1596,-4.1709,-4.2132,-4.2252,-4.2323,-4.2649,-4.2804,-4.2918,-4.3196,-4.3612,-4.4126,-4.4563,-4.5531,-4.6506,-4.6969,-4.7451,-4.7788,-4.8014,-4.8267,-4.8569,-4.8804,-4.8857,-4.8839,-4.8909,-4.8909,-4.8909,-4.8996,-4.9131,-4.9211,-4.9244,-4.9544,-4.9862,-5.0239,-5.1613,-5.2589,-5.3006,-5.4238,-5.4901,-5.4901,-5.4901,-5.4901,-5.4901,-5.4901,-5.4901,-5.4901,-5.4901,-5.4901,0.0,0.0,0.0,0.0,0.0,0.0,0.0,0.0,0.0,0.0,0.0,-3.4899,-3.4899,-3.4899,-3.4899,-3.4899,-3.4916,-3.4963,-3.5105,-3.535,-3.5633,-3.6019,-3.6426,-3.6794,-3.7108,-3.7337,-3.7466,-3.7577,-3.7577,-3.7577,-3.7577,-3.6702,-3.6185,-3.6238,-3.5556,-3.55,-3.6093,-3.6391,-3.6908,-3.7629,-3.7911,-3.8119,-3.8171,-3.8293,-3.9114,-4.0423,-4.0459,-4.093,-4.1697,-4.1866,-4.2021,-4.2187,-4.2287,-4.2269,-4.2187,-4.2061,-4.1899,-4.1796,-4.1569,-4.1542,-4.1648,-4.1471,-4.1604,-4.178,-4.1858,-4.197,-4.2181,-4.2435,-4.2481,-4.2494,-4.2844,-4.3049,-4.3178,-4.3463,-4.3798,-4.4066,-4.427,-4.5394,-4.6444,-4.6691,-4.7466,-4.8132,-4.8344,-4.8624,-4.8822,-4.8909,-4.8909,-4.8909,-4.8909,-4.8909,-4.8962,-4.9101,-4.9183,-4.9211,-4.9289,-4.9544,-5.0032,-5.0843,-5.184,-5.2798,-5.3669,-5.4465,-5.4901,-5.4901,-5.4901,-5.4901,-5.4901,-5.4901,-5.4901,-5.4901,-5.4901,-5.4901,0.0,0.0,0.0,0.0,0.0,0.0,0.0,0.0,0.0,0.0,-3.4899,-3.4899,-3.4899,-3.4899,-3.4899,-3.4899,-3.5013,-3.5141,-3.5245,-3.556,-3.5924,-3.636,-3.6731,-3.7048,-3.7337,-3.7503,-3.7577,-3.7577,-3.7577,-3.7577,-3.7577,-3.6185,-3.5416,-3.552,-3.4831,-3.46,-3.4927,-3.5579,-3.6399,-3.7361,-3.8022,-3.835,-3.835,-3.8331,-3.8651,-3.9263,-3.983,-4.0503,-4.1212,-4.1292,-4.1725,-4.2391,-4.253,-4.257,-4.253,-4.2391,-4.2315,-4.2257,-4.1959,-4.1831,-4.1849,-4.1648,-4.1604,-4.1684,-4.2121,-4.2197,-4.2258,-4.2508,-4.257,-4.267,-4.305,-4.3123,-4.3215,-4.3652,-4.3726,-4.3862,-4.456,-4.5406,-4.6232,-4.7058,-4.7924,-4.8569,-4.8715,-4.8751,-4.8822,-4.8909,-4.8909,-4.8909,-4.8909,-4.8909,-4.8962,-4.9101,-4.9183,-4.9211,-4.9289,-4.9544,-5.0032,-5.0843,-5.184,-5.2798,-5.3669,-5.4465,-5.4901,-5.4901,-5.4901,-5.4901,-5.4901,-5.4901,-5.4901,-5.4901,-5.4901,-5.4901,0.0,0.0,0.0,0.0,0.0,0.0,0.0,0.0,0.0,0.0,-3.5181,-3.4899,-3.4899,-3.4899,-3.4947,-3.4994,-3.5127,-3.5302,-3.5537,-3.5871,-3.6241,-3.6632,-3.697,-3.722,-3.7374,-3.7503,-3.7577,-3.7577,-3.7577,-3.7417,-3.7006,-3.595,-3.5193,-3.486,-3.4194,-3.4147,-3.475,-3.5137,-3.6058,-3.7459,-3.7796,-3.8169,-3.8578,-3.8533,-3.8809,-3.9281,-3.95,-4.0039,-4.0793,-4.1339,-4.1811,-4.2172,-4.268,-4.2899,-4.286,-4.2688,-4.2631,-4.2634,-4.2292,-4.2169,-4.211,-4.1831,-4.178,-4.1858,-4.2094,-4.2252,-4.2468,-4.2709,-4.2862,-4.3013,-4.3304,-4.334,-4.3359,-4.3704,-4.3753,-4.3845,-4.4258,-4.4897,-4.5805,-4.7202,-4.8177,-4.8785,-4.8839,-4.8857,-4.8874,-4.8909,-4.8909,-4.8909,-4.8996,-4.9015,-4.9064,-4.9197,-4.9244,-4.9308,-4.9452,-4.9604,-5.0061,-5.0883,-5.1452,-5.2115,-5.2949,-5.3309,-5.3499,-5.3499,-5.4427,-5.4901,-5.4901,-5.4901,-5.4901,-5.4901,-5.4901,-5.4901,0.0,0.0,0.0,0.0,0.0,0.0,0.0,0.0,0.0,0.0,-3.5413,-3.4899,-3.4899,-3.4899,-3.4947,-3.5088,-3.5221,-3.5442,-3.5817,-3.6172,-3.6528,-3.6895,-3.7164,-3.7372,-3.7429,-3.754,-3.7631,-3.7613,-3.7667,-3.7345,-3.6644,-3.5954,-3.5259,-3.4509,-3.3909,-3.3907,-3.4595,-3.4954,-3.5754,-3.7016,-3.7421,-3.7897,-3.8395,-3.8615,-3.8912,-3.9264,-3.9161,-3.9547,-4.0328,-4.1033,-4.1559,-4.1996,-4.2596,-4.2959,-4.3086,-4.2899,-4.288,-4.29,-4.2552,-4.2414,-4.2356,-4.2044,-4.1952,-4.1962,-4.2065,-4.2323,-4.2591,-4.2862,-4.3087,-4.3268,-4.3479,-4.3497,-4.3516,-4.3771,-4.3837,-4.3906,-4.4252,-4.4893,-4.5845,-4.7339,-4.8336,-4.8909,-4.8909,-4.8909,-4.8909,-4.8909,-4.8909,-4.8996,-4.9101,-4.9101,-4.9183,-4.9276,-4.934,-4.9402,-4.9574,-4.9663,-5.009,-5.096,-5.1131,-5.1566,-5.2381,-5.24,-5.24,-5.24,-5.3631,-5.4371,-5.4598,-5.4806,-5.4901,-5.4901,-5.4901,-5.4901,0.0,0.0,0.0,0.0,0.0,0.0,0.0,0.0,0.0,0.0,-3.5413,-3.4899,-3.4899,-3.4899,-3.4947,-3.5088,-3.5248,-3.5571,-3.6028,-3.6359,-3.6738,-3.7223,-3.7354,-3.7466,-3.7594,-3.7594,-3.7613,-3.7703,-3.781,-3.7539,-3.6831,-3.6232,-3.5557,-3.4798,-3.4119,-3.3879,-3.4028,-3.4995,-3.5458,-3.543,-3.699,-3.7642,-3.7569,-3.8358,-3.8726,-3.8731,-3.8583,-3.8958,-3.9626,-3.9714,-4.0643,-4.1994,-4.203,-4.2504,-4.3178,-4.2975,-4.2994,-4.303,-4.2688,-4.2512,-4.2391,-4.2145,-4.1934,-4.1884,-4.2203,-4.2341,-4.2516,-4.2974,-4.3214,-4.3338,-4.3548,-4.3597,-4.3631,-4.3832,-4.3897,-4.4151,-4.5032,-4.5862,-4.668,-4.7534,-4.8351,-4.8909,-4.8909,-4.8909,-4.8909,-4.8909,-4.9015,-4.9101,-4.9101,-4.915,-4.9211,-4.9289,-4.9352,-4.9446,-4.9593,-4.9721,-5.0147,-5.096,-5.1131,-5.1566,-5.2381,-5.24,-5.24,-5.24,-5.2494,-5.2949,-5.3764,-5.4541,-5.4901,-5.4901,-5.4901,-5.4901,0.0,0.0,0.0,0.0,0.0,0.0,0.0,0.0,0.0,-3.7483,-3.6456,-3.5611,-3.5611,-3.5214,-3.4994,-3.5198,-3.5458,-3.5827,-3.6301,-3.6681,-3.7031,-3.7337,-3.7466,-3.754,-3.7594,-3.7649,-3.7721,-3.781,-3.7967,-3.7525,-3.6368,-3.614,-3.552,-3.4257,-3.4034,-3.3972,-3.4074,-3.4445,-3.4884,-3.5328,-3.6417,-3.7127,-3.7544,-3.8322,-3.8707,-3.8707,-3.8658,-3.8792,-3.9054,-3.9566,-4.0134,-4.0756,-4.175,-4.2247,-4.2449,-4.2776,-4.29,-4.2824,-4.2649,-4.2512,-4.2356,-4.2269,-4.2097,-4.1945,-4.2065,-4.2199,-4.2414,-4.2862,-4.3142,-4.3391,-4.3634,-4.3719,-4.3767,-4.3865,-4.3929,-4.4215,-4.5119,-4.5918,-4.6735,-4.7534,-4.8351,-4.8909,-4.8909,-4.8909,-4.8909,-4.8909,-4.8996,-4.9135,-4.915,-4.9244,-4.9371,-4.9483,-4.9555,-4.9615,-4.9721,-4.9778,-4.9948,-5.0288,-5.0353,-5.0486,-5.077,-5.0789,-5.0789,-5.0789,-5.1338,-5.2324,-5.3707,-5.3992,-5.4408,-5.4901,-5.4901,-5.4901,0.0,0.0,0.0,0.0,0.0,0.0,0.0,0.0,-3.8212,-3.8212,-3.7036,-3.6009,-3.6009,-3.5595,-3.5293,-3.5295,-3.5588,-3.5968,-3.6468,-3.6869,-3.7195,-3.7449,-3.754,-3.7577,-3.7577,-3.7685,-3.7828,-3.7951,-3.8119,0.0,-3.6175,-3.6258,-3.5616,-3.4053,-3.4049,-3.4099,-3.4124,-3.4173,-3.442,-3.4884,-3.5992,-3.6703,-3.711,-3.8212,-3.8707,-3.8707,-3.8707,-3.8707,-3.8744,-3.9276,-3.9662,-4.0029,-4.1339,-4.1896,-4.2049,-4.263,-4.2768,-4.2652,-4.2552,-4.2432,-4.2374,-4.231,-4.2181,-4.203,-4.203,-4.2181,-4.2369,-4.2747,-4.3069,-4.3321,-4.3667,-4.3818,-4.3883,-4.3929,-4.3974,-4.4302,-4.5454,-4.6122,-4.6735,-4.7534,-4.8351,-4.8909,-4.8909,-4.8909,-4.8909,-4.8909,-4.903,-4.915,-4.9179,-4.9371,-4.9495,-4.9574,-4.9663,-4.975,-4.9807,-4.9835,-4.9843,-4.9898,-4.9898,-4.9898,-4.9898,-4.9898,-4.9898,-4.9898,-5.0467,-5.1471,-5.2873,-5.3139,-5.3688,-5.4503,-5.4503,-5.4636,0.0,0.0,0.0,0.0,0.0,0.0,0.0,0.0,-3.8212,-3.8212,-3.7069,-3.6059,-3.6059,-3.6059,-3.5907,-3.5429,-3.5673,-3.6079,-3.6602,-3.6978,-3.7285,-3.7612,-3.763,-3.7612,-3.7577,-3.7775,-3.7951,-3.8119,-3.8364,-3.7857,-3.637,-3.6463,-3.581,-3.4253,-3.4197,-3.4197,-3.4197,-3.4197,-3.4167,-3.4053,-3.5715,-3.6445,-3.6376,-3.7973,-3.8707,-3.8707,-3.8707,-3.8707,-3.8707,-3.8707,-3.9166,-3.9937,-4.0763,-4.1418,-4.2012,-4.25,-4.2634,-4.257,-4.2369,-4.2287,-4.2287,-4.2287,-4.2205,-4.2103,-4.2103,-4.2187,-4.2369,-4.2706,-4.2994,-4.3268,-4.3529,-4.3795,-4.4005,-4.4005,-4.4005,-4.4451,-4.6104,-4.6475,-4.6735,-4.7571,-4.837,-4.8909,-4.8909,-4.8909,-4.8909,-4.8909,-4.9079,-4.9197,-4.9179,-4.9452,-4.9604,-4.9604,-4.9721,-4.9807,-4.9807,-4.9871,-4.9898,-4.9898,-4.9898,-4.9898,-4.9898,-4.9898,-4.9898,-4.9898,-4.9898,-5.0315,-5.1168,-5.1983,-5.2836,-5.3707,-5.3726,-5.4143,-3.5148,0.0,0.0,0.0,0.0,0.0,0.0,0.0,0.0,-3.8212,-3.7897,-3.7599,-3.7599,-3.7168,-3.6837,-3.6867,-3.728,-3.7723,-3.8183,-3.8659,-3.8801,-3.8522,-3.8469,-3.8237,-3.7648,-3.7828,-3.8036,0.0,-3.8528,-3.8074,-3.6611,-3.5477,-3.4655,-3.4216,-3.4197,-3.4197,-3.4197,-3.4197,-3.4464,-3.5018,-3.6019,-3.6768,-3.7272,-3.826,-3.8707,-3.8707,-3.8707,-3.864,-3.8559,-3.8658,-3.8836,-3.9111,-3.9873,-4.0495,-4.1069,-4.1574,-4.189,-4.2103,-4.2097,-4.2012,-4.1995,-4.2205,-4.2205,-4.2103,-4.2205,-4.2187,-4.2187,-4.2454,-4.2729,-4.3123,-4.36,-4.3851,-4.3961,-4.3974,-4.4005,-4.4302,-4.5398,-4.6085,-4.6903,-4.8296,-4.876,-4.8909,-4.8909,-4.8909,-4.8943,-4.9015,-4.9131,-4.9211,-4.9276,-4.9514,-4.9663,-4.9663,-4.9788,-4.9871,-4.9871,-4.9898,-4.9898,-4.9898,-4.9898,-4.9898,-4.9898,-4.9898,-4.9898,-4.9898,-4.9898,-5.0012,-5.0258,-5.113,-5.2286,-5.3707,-5.4295,-5.4693,-3.5363,-3.5131,0.0,0.0,0.0,0.0,-3.6555,-3.7218,0.0,0.0,-3.75,-3.7284,-3.7284,-3.7235,-3.7253,-3.755,-3.8464,-3.9144,-3.8912,-3.9306,-3.9526,-3.9269,-3.9272,-3.895,-3.8183,-3.8331,-3.8432,-3.8292,-3.8609,-3.818,-3.6719,-3.5416,-3.4569,-3.4197,-3.4197,-3.4197,-3.4197,-3.4197,-3.46,-3.5395,-3.6176,-3.6906,-3.7632,-3.8382,-3.8689,-3.8609,-3.8578,-3.8496,-3.8401,-3.8419,-3.8469,-3.8606,-3.9312,-3.9961,-4.0492,-4.1079,-4.1551,-4.1892,-4.1927,-4.1902,-4.1927,-4.2163,-4.2205,-4.2205,-4.2287,-4.2246,-4.2228,-4.2391,-4.2709,-4.3123,-4.36,-4.38,-4.3929,-4.3974,-4.4005,-4.4246,-4.5101,-4.5918,-4.6884,-4.8147,-4.8667,-4.8909,-4.8909,-4.8909,-4.8962,-4.9068,-4.915,-4.9244,-4.9321,-4.9555,-4.9721,-4.975,-4.9843,-4.9898,-4.9898,-4.9898,-4.9898,-4.9898,-4.9898,-4.9898,-4.9898,-4.9898,-4.9898,-4.9898,-4.9898,-4.9898,-4.9898,-5.041,-5.1528,-5.3177,-5.401,-5.4579,-3.6125,-3.5578,0.0,-3.5015,-3.5446,0.0,-3.5876,-3.6456,-3.6986,0.0,-3.6522,-3.6125,-3.6125,-3.6754,-3.7419,-3.7799,-3.934,-4.0203,-3.9303,-3.9575,-3.9904,-4.0018,-4.0039,-3.9753,-3.9004,-3.9066,-3.8957,-3.8456,-3.8572,-3.8135,-3.6883,-3.598,-3.5126,-3.4364,-3.4253,-3.4197,-3.4197,-3.4197,-3.46,-3.5421,-3.6136,-3.6869,-3.7642,-3.8332,-3.8591,-3.851,-3.8415,-3.8336,-3.8241,-3.8018,-3.807,-3.8328,-3.888,-3.9554,-4.0233,-4.0739,-4.1316,-4.1849,-4.1823,-4.1858,-4.1987,-4.2079,-4.2187,-4.2287,-4.2328,-4.2328,-4.2346,-4.2463,-4.2822,-4.3196,-4.3495,-4.3716,-4.3897,-4.3974,-4.4005,-4.4209,-4.4989,-4.5862,-4.6717,-4.7423,-4.8296,-4.8909,-4.8909,-4.8909,-4.8962,-4.9101,-4.9164,-4.9244,-4.9415,-4.9585,-4.9721,-4.9807,-4.9871,-4.9898,-4.9898,-4.9898,-4.9898,-4.9898,-4.9898,-4.9898,-4.9898,-4.9898,-4.9898,-4.9898,-4.9898,-4.9898,-4.9898,-4.9993,-5.0808,-5.2305,-5.3252,-5.4086,-3.6887,-3.6357,-3.5794,-3.5794,-3.5446,0.0,-3.5114,-3.5694,-3.6224,0.0,-3.6572,-3.6887,-3.6887,-3.7103,-3.7603,-3.8438,-3.9319,-4.0139,-4.0837,-4.1261,-4.1351,-4.0909,-4.0877,-4.0556,-3.9771,-3.9299,-3.9067,-3.9097,-3.8352,-3.783,-3.7599,-3.627,-3.5404,-3.5237,-3.4569,-3.4197,-3.4197,-3.4197,-3.4624,-3.5497,-3.5588,-3.6387,-3.7766,-3.7695,-3.7998,-3.851,-3.8267,-3.8104,-3.7969,-3.765,-3.7721,-3.8054,-3.8007,-3.8796,-3.9971,-3.9895,-4.0647,-4.1648,-4.1648,-4.1666,-4.1736,-4.2019,-4.2103,-4.2205,-4.2405,-4.2405,-4.2346,-4.2463,-4.2685,-4.2918,-4.3196,-4.3461,-4.3697,-4.3897,-4.3942,-4.4042,-4.4228,-4.5435,-4.655,-4.6698,-4.7906,-4.8909,-4.8909,-4.8909,-4.8978,-4.9164,-4.9197,-4.9295,-4.9544,-4.9634,-4.9721,-4.9807,-4.9871,-4.9898,-4.9898,-4.9898,-4.9898,-4.9898,-4.9898,-4.9898,-4.9898,-4.9898,-4.9898,-4.9898,-4.9898,-4.9898,-4.9898,-5.0599,-5.1111,-5.1471,-5.2987,-5.3783,-3.7665,-3.6854,-3.6009,-3.6009,-3.5446,0.0,0.0,-3.5181,-3.5446,-3.5446,-3.5744,-3.6009,-3.6009,-3.6472,-3.7067,-3.7719,-3.8559,-3.956,-4.0788,-4.1598,-4.1973,-4.1734,-4.1698,-4.1377,-4.0592,-4.028,-3.9949,-3.949,-3.8601,-3.8029,-3.7813,-3.7071,-3.6307,-3.5516,-3.507,-3.4643,-3.4197,-3.4197,-3.4624,-3.5497,-3.5472,-3.6247,-3.772,-3.7577,-3.779,-3.8267,-3.8,-3.7792,-3.7558,-3.7223,-3.7206,-3.7411,-3.7374,-3.8026,-3.8987,-3.9312,-4.0084,-4.1007,-4.1525,-4.1736,-4.1841,-4.2019,-4.2163,-4.2246,-4.2346,-4.2346,-4.2346,-4.2463,-4.2606,-4.2765,-4.305,-4.3267,-4.3511,-4.3697,-4.3846,-4.3961,-4.3961,-4.4976,-4.6011,-4.642,-4.7478,-4.8426,-4.8834,-4.8909,-4.8978,-4.9179,-4.9197,-4.9327,-4.9604,-4.9663,-4.975,-4.9843,-4.9871,-4.9898,-4.9898,-4.9898,-4.9898,-4.9898,-4.9898,-4.9898,-4.9898,-4.9898,-4.9898,-4.9898,-4.9898,-4.9898,-4.9898,-5.0334,-5.0789,-5.1225,-5.2059,-5.2665,-3.8411,-3.745,-3.639,-3.6257,-3.5661,-3.5065,0.0,0.0,0.0,-3.4899,-3.4899,0.0,0.0,0.0,0.0,0.0,0.0,0.0,0.0,-4.1191,0.0,-4.2269,-4.2287,-4.2037,-4.1395,-4.1296,-4.0793,-3.9615,-3.9035,-3.8493,-3.8025,-3.7868,-3.7163,-3.5757,-3.5572,-3.507,-3.4197,-3.4197,-3.455,-3.5237,-3.5237,-3.594,-3.7248,-3.7301,-3.7509,-3.7851,-3.7703,-3.7503,-3.7259,-3.6948,-3.6788,-3.6829,-3.6908,-3.7381,-3.8111,-3.8982,-3.9729,-4.0499,-4.1472,-4.1884,-4.1987,-4.2079,-4.2187,-4.2287,-4.2287,-4.2287,-4.2328,-4.2445,-4.2526,-4.2649,-4.2844,-4.3087,-4.3303,-4.3495,-4.3682,-4.3832,-4.3832,-4.4578,-4.5496,-4.6294,-4.7144,-4.7961,-4.876,-4.8909,-4.8978,-4.9179,-4.9197,-4.9308,-4.9663,-4.9692,-4.975,-4.9898,-4.9898,-4.9898,-4.9898,-4.9898,-4.9898,-4.9898,-4.9898,-4.9898,-4.9898,-4.9898,-4.9898,-4.9898,-4.9898,-4.9898,-4.9898,-4.9898,-5.0258,-5.0959,-5.113,-5.1566,-3.9156,-3.8576,-3.7798,-3.7152,-3.6423,-3.5694,-3.5048,0.0,-3.4899,-3.4899,0.0,0.0,0.0,0.0,0.0,0.0,0.0,0.0,-3.9083,-4.0353,-4.1421,-4.2216,-4.2287,-4.2251,-4.2162,-4.1636,-4.0735,-3.9337,-3.9381,-3.9228,-3.8711,-3.8108,-3.7423,-3.6593,-3.5869,-3.507,-3.4197,-3.4197,-3.4253,-3.4346,-3.4297,-3.4722,-3.5586,-3.5978,-3.6453,-3.6955,-3.7292,-3.7299,-3.7108,-3.6891,-3.6788,-3.6788,-3.6829,-3.73,-3.8111,-3.8982,-3.9814,-4.0586,-4.1472,-4.1797,-4.1866,-4.2037,-4.2187,-4.2287,-4.2287,-4.2287,-4.2287,-4.2328,-4.2387,-4.2526,-4.2609,-4.2844,-4.3069,-4.3232,-4.3426,-4.3631,-4.3631,-4.441,-4.5342,-4.6157,-4.7058,-4.7961,-4.876,-4.8909,-4.8978,-4.9179,-4.9197,-4.9308,-4.9663,-4.9692,-4.975,-4.9898,-4.9898,-4.9898,-4.9898,-4.9898,-4.9898,-4.9898,-4.9898,-4.9898,-4.9898,-4.9898,-4.9898,-4.9898,-4.9898,-4.9898,-4.9898,-4.9898,-4.9936,-5.0069,-5.0846,-5.1263,-3.9272,-3.8758,-3.803,-3.7284,-3.6555,-3.581,-3.5065,-3.4899,-3.4899,-3.4899,0.0,0.0,0.0,0.0,0.0,0.0,-3.6297,0.0,0.0,0.0,-3.9962,0.0,0.0,0.0,-4.2287,-4.1203,-4.0318,-3.9932,-3.9569,-3.9192,-3.8756,-3.8909,-3.8464,-3.7313,-3.6498,-3.5684,-3.4851,-3.4333,-3.4074,-3.4074,-3.4023,-3.4344,-3.5083,-3.5641,-3.6132,-3.6609,-3.7128,-3.7164,-3.693,-3.6788,-3.6725,-3.6766,-3.6788,-3.698,-3.7393,-3.8723,-3.9456,-3.9997,-4.1417,-4.1927,-4.1995,-4.2145,-4.2246,-4.2287,-4.2287,-4.2287,-4.2287,-4.2287,-4.2346,-4.2387,-4.2508,-4.2649,-4.2786,-4.2918,-4.3105,-4.3267,-4.3408,-4.3805,-4.4472,-4.5419,-4.6301,-4.717,-4.8054,-4.8646,-4.9083,-4.9197,-4.9244,-4.9371,-4.9663,-4.9692,-4.975,-4.9898,-4.9898,-4.9898,-4.9898,-4.9898,-4.9898,-4.9898,-4.9898,-4.9898,-4.9898,-4.9898,-4.9898,-4.9898,-4.9898,-4.9898,-4.9898,-4.9898,-4.9898,-4.9898,-5.0277,-5.0448,-3.899,-3.846,-3.7731,-3.6986,-3.6406,-3.581,-3.5065,-3.4899,-3.4965,-3.5164,-3.5197,0.0,0.0,0.0,-3.5404,-3.5652,0.0,-3.6346,0.0,-3.8028,0.0,0.0,0.0,0.0,0.0,-4.0592,-3.9902,-3.9985,-3.9662,-3.9315,-3.8899,-3.9443,-3.9195,-3.7963,-3.6914,-3.6021,-3.5229,-3.4371,-3.3947,-3.3921,-3.3842,-3.4046,-3.4527,-3.5351,-3.5861,-3.6131,-3.6929,-3.7143,-3.6891,-3.6806,-3.6806,-3.6788,-3.6851,-3.6869,-3.7061,-3.8643,-3.9269,-3.9623,-4.1421,-4.2097,-4.2145,-4.2287,-4.2287,-4.2287,-4.2287,-4.2287,-4.2287,-4.2287,-4.2287,-4.2328,-4.2405,-4.2526,-4.2588,-4.2667,-4.2842,-4.2995,-4.316,-4.3321,-4.3752,-4.4816,-4.5531,-4.6338,-4.7516,-4.8475,-4.9116,-4.9197,-4.9244,-4.9402,-4.9663,-4.9692,-4.975,-4.9898,-4.9898,-4.9898,-4.9898,-4.9898,-4.9898,-4.9898,-4.9898,-4.9898,-4.9898,-4.9898,-4.9898,-4.9898,-4.9898,-4.9898,-4.9898,-4.9898,-4.9898,-4.9898,-4.9898,-4.9898,-3.8245,-3.7715,-3.697,-3.6224,-3.6025,-3.581,-3.5065,-3.4899,-3.5098,-3.5827,-3.5959,-3.6191,-3.6903,-3.6438,-3.6081,-3.6329,-3.6073,0.0,0.0,0.0,0.0,0.0,0.0,0.0,0.0,-3.995,-3.9649,0.0,-3.9695,-3.9896,-3.9315,-3.9365,-3.9137,-3.8496,-3.6936,-3.5758,-3.5009,-3.4211,-3.378,-3.3698,-3.3643,-3.3538,-3.3484,-3.4871,-3.5408,-3.5312,-3.6698,-3.7203,-3.7108,-3.7009,-3.7048,-3.7108,-3.7108,-3.7164,-3.7453,-3.8947,-3.9552,-3.9828,-4.1511,-4.2187,-4.2287,-4.2287,-4.2287,-4.2287,-4.2287,-4.2287,-4.2287,-4.2287,-4.2287,-4.2287,-4.2287,-4.2387,-4.2503,-4.2503,-4.2645,-4.2822,-4.29,-4.3142,-4.3611,-4.4628,-4.5001,-4.569,-4.7389,-4.8475,-4.9116,-4.9197,-4.9244,-4.9402,-4.9663,-4.9692,-4.975,-4.9898,-4.9898,-4.9898,-4.9898,-4.9898,-4.9898,-4.9898,-4.9898,-4.9898,-4.9898,-4.9898,-4.9898,-4.9898,-4.9898,-4.9898,-4.9898,-4.9898,-4.9898,-4.9898,-4.9898,-4.9898,-3.7483,-3.7301,-3.6936,-3.6191,-3.6009,-3.581,-3.5065,-3.528,-3.5694,-3.5959,-3.639,-3.6804,-3.7052,-3.6506,-3.6092,-3.6382,-3.5994,-3.59,0.0,0.0,0.0,0.0,0.0,0.0,0.0,0.0,0.0,-3.9654,-3.998,0.0,-4.0041,-4.0058,-3.9731,-3.9037,-3.7457,-3.6272,-3.5551,-3.4684,-3.4029,-3.3509,-3.3422,-3.3334,-3.3232,-3.4217,-3.4825,-3.5189,-3.6221,-3.6856,-3.7203,-3.722,-3.722,-3.7241,-3.7241,-3.7279,-3.755,-3.9009,-3.9633,-3.9966,-4.1652,-4.2246,-4.2287,-4.2287,-4.2287,-4.2287,-4.2287,-4.2287,-4.2287,-4.2287,-4.2287,-4.2287,-4.2287,-4.2328,-4.2346,-4.2346,-4.2427,-4.253,-4.2765,-4.2938,-4.3215,-4.386,-4.4564,-4.5438,-4.6764,-4.7756,-4.8548,-4.9104,-4.939,-4.9544,-4.9692,-4.975,-4.9807,-4.9898,-4.9898,-4.9898,-4.9898,-4.9898,-4.9898,-4.9898,-4.9898,-4.9898,-4.9898,-4.9898,-4.9898,-4.9898,-4.9898,-4.9898,-4.9898,-4.9898,-4.9898,-4.9898,-4.9898,-4.9898,-3.6721,-3.6522,-3.6208,-3.5727,-3.5611,-3.5479,-3.5015,-3.5263,-3.5678,-3.5959,-3.639,-3.6787,-3.7052,-3.6483,-3.6071,-3.6367,-3.596,-3.5865,0.0,-3.7223,0.0,0.0,0.0,0.0,0.0,0.0,-3.8738,-3.9562,-3.9866,0.0,0.0,-4.0398,-4.0039,-3.959,-3.7751,-3.6432,-3.572,-3.4857,-3.4032,-3.3244,-3.3214,-3.3122,-3.306,-3.382,-3.4508,-3.5171,-3.5972,-3.6682,-3.7334,-3.7297,-3.7297,-3.7334,-3.7334,-3.7392,-3.7662,-3.911,-4.0091,-4.0833,-4.1948,-4.2287,-4.2287,-4.2287,-4.2287,-4.2287,-4.2287,-4.2287,-4.2287,-4.2287,-4.2287,-4.2287,-4.2287,-4.2287,-4.2287,-4.2287,-4.2287,-4.2369,-4.2667,-4.2842,-4.3032,-4.3495,-4.4125,-4.5012,-4.6387,-4.713,-4.7922,-4.9075,-4.9452,-4.9604,-4.9692,-4.975,-4.9835,-4.9898,-4.9898,-4.9898,-4.9898,-4.9898,-4.9898,-4.9898,-4.9898,-4.9898,-4.9898,-4.9898,-4.9898,-4.9898,-4.9898,-4.9898,-4.9898,-4.9898,-4.9898,-4.9898,-4.9898,-4.9898]}]]